Date StartTime U_cm/s V_cm/s W_cm/s Ustd_cm/s Vstd_cm/s Wstd_cm/s Uvar_(cm/s)^2 Vvar_(cm/s)^2 Wvar_(cm/s)^2 KE_(m/s)^2 TurbulentKE_(m/s)^2 HorizWindSpeed_cm/s FrictionSpeec_cm/s DragCoef SpeedOfSound_m/s SonicTemperature_C Pressure_mb 
07/10/2014  00:00:00      -85.878      129.471      -10.807       51.197       53.727       37.679     2621.092     2886.614     1419.716        1.559        0.346      155.363       38.031        0.060      346.752       25.225      861.447
07/10/2014  00:01:00     -166.749       52.070      -26.443       62.542       66.856       44.450     3911.521     4469.678     1975.812        2.078        0.518      174.690       38.995        0.050      346.827       25.353      861.456
07/10/2014  00:02:00     -245.961       10.026      -30.408       69.423      123.771       43.638     4819.529    15319.306     1904.256        4.178        1.102      246.165       40.737        0.027      346.774       25.257      861.455
07/10/2014  00:03:00     -192.650       18.810      -20.542       69.395       91.730       40.650     4815.658     8414.438     1652.428        2.638        0.744      193.566       29.877        0.024      346.695       25.125      861.448
07/10/2014  00:04:00     -127.642       30.672      -16.462       64.742       64.141       29.105     4191.467     4114.026      847.118        1.333        0.458      131.276       28.323        0.047      346.653       25.055      861.442
07/10/2014  00:05:00     -117.693      -15.031       -7.628       63.118       46.166       25.930     3983.895     2131.275      672.355        1.046        0.339      118.649       30.900        0.068      346.494       24.783      861.441
07/10/2014  00:06:00      -89.561      -20.619      -10.214       57.585       51.917       26.790     3316.040     2695.330      717.720        0.764        0.336       91.904       21.953        0.057      346.505       24.801      861.428
07/10/2014  00:07:00     -132.654      -45.046       -4.953       45.462       34.069       25.322     2066.837     1160.669      641.215        1.176        0.193      140.094       19.511        0.019      346.501       24.794      861.417
07/10/2014  00:08:00     -116.364      -14.074       -8.688       46.888       43.212       19.966     2198.492     1867.277      398.640        0.914        0.223      117.212       12.541        0.011      346.599       24.962      861.415
07/10/2014  00:09:00     -143.685        1.356      -15.777       49.592       46.203       25.098     2459.383     2134.747      629.908        1.306        0.261      143.691       24.937        0.030      346.560       24.896      861.421
07/10/2014  00:10:00     -137.922      -17.517      -22.860       54.762       46.238       27.371     2998.841     2137.922      749.187        1.287        0.294      139.029       20.790        0.022      346.637       25.028      861.403
07/10/2014  00:11:00     -128.316      -59.419       -8.488       39.452       32.290       24.755     1556.490     1042.663      612.803        1.164        0.161      141.405       18.714        0.018      346.589       24.945      861.390
07/10/2014  00:12:00     -179.446      -65.023      -10.395       47.064       38.154       22.368     2214.990     1455.702      500.321        2.035        0.209      190.864       16.145        0.007      346.559       24.893      861.397
07/10/2014  00:13:00     -138.730      -32.547      -14.355       47.891       25.686       22.192     2293.589      659.753      492.498        1.198        0.172      142.497       14.770        0.011      346.595       24.954      861.398
07/10/2014  00:14:00     -106.754      -16.847       -7.872       44.329       35.998       24.129     1965.045     1295.841      582.199        0.779        0.192      108.075       22.146        0.042      346.507       24.806      861.395
07/10/2014  00:15:00     -149.374       22.058      -10.780       56.441       32.588       20.367     3185.609     1061.985      414.821        1.379        0.233      150.994       23.897        0.025      346.560       24.896      861.406
07/10/2014  00:16:00     -177.466      -20.985      -15.512       49.665       27.604       24.196     2466.620      761.985      585.444        1.799        0.191      178.703       24.309        0.019      346.559       24.893      861.408
07/10/2014  00:17:00     -131.484      -29.693       -8.231       24.830       25.875       15.391      616.509      669.522      236.896        0.988        0.076      134.795       13.989        0.011      346.449       24.704      861.406
07/10/2014  00:18:00     -107.757      -37.015       -7.784       43.431       18.915       15.369     1886.293      357.779      236.211        0.776        0.124      113.937       18.883        0.027      346.396       24.615      861.395
07/10/2014  00:19:00      -61.216       -7.019       -4.952       24.858       29.358       15.578      617.915      861.908      242.662        0.277        0.086       61.617       11.711        0.036      346.356       24.544      861.396
07/10/2014  00:20:00      -51.929      -25.309        0.433       45.511       37.060       19.448     2071.291     1373.426      378.229        0.358        0.191       57.768       18.652        0.104      346.357       24.546      861.389
07/10/2014  00:21:00      -44.593      -12.309        6.424       17.656       17.816       16.893      311.739      317.419      285.370        0.155        0.046       46.261       12.116        0.069      346.290       24.430      861.381
07/10/2014  00:22:00      -64.362      -30.189       -6.346       23.944       22.445       11.640      573.319      503.777      135.487        0.315        0.061       71.090       10.825        0.023      346.290       24.432      861.374
07/10/2014  00:23:00      -28.861      -17.765       -1.506       19.795        9.271        6.878      391.843       85.952       47.309        0.084        0.026       33.890        6.758        0.040      346.229       24.328      861.367
07/10/2014  00:24:00      -38.004      -12.841       -3.993        8.752        7.581        6.534       76.601       57.467       42.696        0.090        0.009       40.115        5.260        0.017      346.283       24.419      861.364
07/10/2014  00:25:00      -31.994      -24.378       -6.485       10.078       11.834        6.485      101.572      140.052       42.061        0.097        0.014       40.223        2.616        0.004      346.276       24.408      861.356
07/10/2014  00:26:00      -61.825      -18.163       -9.031       26.008       11.508        9.825      676.428      132.442       96.530        0.257        0.045       64.437       12.734        0.039      346.254       24.370      861.349
07/10/2014  00:27:00      -44.626      -11.509       -4.558       18.525       12.517       13.018      343.190      156.666      169.478        0.141        0.033       46.087       11.814        0.066      346.337       24.513      861.343
07/10/2014  00:28:00      -27.046      -25.921       -5.867       12.693       12.558       13.367      161.114      157.701      178.675        0.097        0.025       37.462        7.498        0.040      346.360       24.551      861.331
07/10/2014  00:29:00        4.864      -24.092        8.276       10.620       20.358       15.385      112.790      414.462      236.693        0.072        0.038       24.578       15.546        0.400      346.182       24.243      861.316
07/10/2014  00:30:00      -52.781      -31.051       -1.083       24.819       20.038       11.776      616.006      401.526      138.672        0.245        0.058       61.237        9.765        0.025      346.120       24.138      861.319
07/10/2014  00:31:00      -25.284      -17.045        7.731       31.818       17.803       12.976     1012.373      316.956      168.383        0.124        0.075       30.493       13.760        0.204      346.093       24.091      861.317
07/10/2014  00:32:00      -38.648      -59.566       -0.608       31.000       32.044       20.404      961.023     1026.817      416.343        0.372        0.120       71.005       19.310        0.074      346.163       24.211      861.315
07/10/2014  00:33:00      -71.752      -57.705        0.961       33.320       24.970       18.096     1110.238      623.508      327.450        0.527        0.103       92.077       20.019        0.047      346.222       24.313      861.305
07/10/2014  00:34:00      -62.081      -57.207       -0.081       25.287       24.958       18.327      639.437      622.879      335.885        0.436        0.080       84.420       15.516        0.034      346.343       24.523      861.288
07/10/2014  00:35:00      -59.039      -78.528        3.623       35.292       38.357       21.984     1245.500     1471.288      483.292        0.643        0.160       98.246       18.052        0.034      346.369       24.567      861.278
07/10/2014  00:36:00      -75.930      -22.489       -2.942       31.416       20.291       15.069      986.994      411.729      227.082        0.395        0.081       79.191       15.652        0.039      346.318       24.479      861.274
07/10/2014  00:37:00      -98.038       10.962        1.924       25.745       24.420       19.730      662.817      596.337      389.289        0.569        0.082       98.649       15.389        0.024      346.403       24.624      861.268
07/10/2014  00:38:00      -39.385      -20.221        2.032       37.270       22.755       10.067     1389.083      517.786      101.342        0.199        0.100       44.272       13.104        0.088      346.224       24.318      861.268
07/10/2014  00:39:00      -23.139       -6.883        6.496       25.378       18.198       14.330      644.032      331.181      205.362        0.090        0.059       24.141       12.158        0.254      346.120       24.139      861.272
07/10/2014  00:40:00      -27.722        5.150        3.216       25.400       26.524       13.607      645.168      703.516      185.155        0.117        0.077       28.196       15.586        0.306      346.171       24.227      861.281
07/10/2014  00:41:00      -51.909       57.006        3.659       29.924       42.871       21.830      895.456     1837.932      476.552        0.458        0.160       77.099       18.110        0.055      346.189       24.258      861.300
07/10/2014  00:42:00      -34.620       37.839       -4.462       13.563       22.384       18.729      183.946      501.025      350.777        0.184        0.052       51.287       12.641        0.061      346.128       24.155      861.305
07/10/2014  00:43:00      -61.252       23.557       -4.725       27.277       16.396        9.314      744.038      268.842       86.748        0.271        0.055       65.626       10.548        0.026      346.201       24.278      861.307
07/10/2014  00:44:00      -69.385       -8.453        4.902       32.451       32.118       18.701     1053.057     1031.557      349.719        0.367        0.122       69.898       18.299        0.069      346.074       24.060      861.303
07/10/2014  00:45:00      -46.693      -47.024       18.035       47.220       44.349       23.492     2229.753     1966.861      551.888        0.473        0.237       66.269       19.888        0.090      346.017       23.962      861.297
07/10/2014  00:46:00     -109.480     -113.807       -1.536       41.950       44.290       22.726     1759.806     1961.597      516.461        1.459        0.212      157.917       19.277        0.015      346.149       24.188      861.289
07/10/2014  00:47:00      -80.735      -77.439       -1.137       61.968       35.516       27.176     3839.977     1261.379      738.546        0.918        0.292      111.870       31.935        0.081      346.123       24.143      861.288
07/10/2014  00:48:00      -66.180      -71.146        2.200       45.735       34.055       24.578     2091.718     1159.712      604.086        0.665        0.193       97.168       27.957        0.083      346.047       24.012      861.280
07/10/2014  00:49:00      -58.921      -65.938       -2.957       30.493       19.065       11.612      929.831      363.461      134.838        0.463        0.071       88.428        6.721        0.006      346.086       24.081      861.266
07/10/2014  00:50:00       -9.856      -46.609        7.375       22.874       23.934       17.536      523.201      572.840      307.509        0.186        0.070       47.640       14.159        0.088      346.083       24.077      861.261
07/10/2014  00:51:00      -15.043      -85.490        0.376       25.669       34.892       16.289      658.907     1217.427      265.334        0.484        0.107       86.803       14.331        0.027      346.085       24.080      861.269
07/10/2014  00:52:00      -23.323      -54.073        7.133       33.135       22.788       16.611     1097.908      519.282      275.918        0.271        0.095       58.889       17.831        0.092      346.072       24.056      861.271
07/10/2014  00:53:00      -27.506      -62.022       -4.140       22.312       22.633       12.382      497.819      512.253      153.314        0.289        0.058       67.848       11.489        0.029      346.016       23.959      861.269
07/10/2014  00:54:00       -4.584      -51.990       -3.005       20.938       27.707       12.500      438.410      767.690      156.252        0.205        0.068       52.192        7.488        0.021      345.931       23.814      861.266
07/10/2014  00:55:00      -11.954      -44.244        9.411       16.246       32.184       12.330      263.923     1035.829      152.026        0.182        0.073       45.831        5.500        0.014      346.027       23.977      861.262
07/10/2014  00:56:00      -56.942      -90.072      -10.590       37.954       36.094       25.078     1440.532     1302.802      628.930        0.742        0.169      106.561       17.751        0.028      346.028       23.981      861.258
07/10/2014  00:57:00      -68.597      -37.571        3.175       47.452       39.240       21.164     2251.705     1539.788      447.911        0.518        0.212       78.212       14.115        0.033      345.942       23.834      861.248
07/10/2014  00:58:00      -56.083      -26.095        3.287       33.512       25.430       17.203     1123.059      646.677      295.954        0.295        0.103       61.857       12.318        0.040      345.829       23.639      861.245
07/10/2014  00:59:00      -69.435      -38.513        3.375       40.886       31.393       19.103     1671.702      985.532      364.908        0.467        0.151       79.401       15.837        0.040      345.806       23.599      861.255
07/10/2014  01:00:00      -39.640      -25.076       -3.136       23.329       23.392       13.492      544.257      547.173      182.030        0.174        0.064       46.905        5.410        0.013      345.822       23.628      861.260
07/10/2014  01:01:00      -43.016      -26.514        8.690       42.798       28.319       18.428     1831.629      801.940      339.582        0.280        0.149       50.530       18.529        0.134      345.762       23.524      861.255
07/10/2014  01:02:00      -61.414      -24.402       -2.625       33.712       23.804       16.460     1136.481      566.621      270.943        0.317        0.099       66.084       15.206        0.053      345.813       23.613      861.260
07/10/2014  01:03:00      -49.500      -33.505        7.707       37.820       30.034       20.802     1430.350      902.018      432.727        0.320        0.138       59.773       14.315        0.057      345.780       23.556      861.274
07/10/2014  01:04:00      -11.156      -60.711        2.622       25.698       23.410       15.168      660.409      548.043      230.083        0.263        0.072       61.728        9.989        0.026      345.850       23.675      861.283
07/10/2014  01:05:00      -56.970      -38.908        4.109       31.812       21.594       18.437     1011.989      466.316      339.932        0.330        0.091       68.989       15.413        0.050      345.767       23.534      861.284
07/10/2014  01:06:00      -29.457      -28.862        6.011       31.616       23.437       15.717      999.544      549.312      247.035        0.177        0.090       41.241        9.274        0.051      345.731       23.470      861.280
07/10/2014  01:07:00      -18.937       -6.976        4.992       15.477       15.049        8.138      239.524      226.465       66.230        0.048        0.027       20.181        9.584        0.226      345.696       23.410      861.286
07/10/2014  01:08:00        8.933       14.755        5.427       11.375        7.442        6.328      129.400       55.388       40.045        0.028        0.011       17.248        5.853        0.115      345.516       23.100      861.286
07/10/2014  01:09:00       22.419       44.916       -1.012        8.218       15.254       10.265       67.533      232.686      105.378        0.146        0.020       50.201       10.783        0.046      345.569       23.191      861.283
07/10/2014  01:10:00       21.035       57.766       -7.687       11.530       12.894        8.428      132.943      166.256       71.036        0.210        0.019       61.476        7.700        0.016      345.592       23.232      861.289
07/10/2014  01:11:00        1.318       32.742       -4.328       13.228       14.108        4.944      174.988      199.036       24.445        0.075        0.020       32.769        2.410        0.005      345.637       23.310      861.294
07/10/2014  01:12:00       25.995       18.143        0.554        9.201        8.319        4.927       84.662       69.201       24.275        0.059        0.009       31.700        3.902        0.015      345.681       23.382      861.281
07/10/2014  01:13:00       -3.531       -0.820       -2.089        9.146        6.064        5.626       83.658       36.772       31.654        0.008        0.008        3.625        5.387        2.209      345.715       23.444      861.272
07/10/2014  01:14:00      -21.570      -23.745        0.968       17.963       16.874       12.653      322.677      284.725      160.108        0.090        0.038       32.079       11.897        0.138      345.631       23.302      861.270
07/10/2014  01:15:00      -42.306      -79.573       -7.242       27.782       30.191       18.954      771.855      911.480      359.238        0.511        0.102       90.120       17.817        0.039      345.638       23.311      861.279
07/10/2014  01:16:00      -61.850      -89.676       -3.390       29.267       40.454       20.057      856.549     1636.531      402.296        0.739        0.145      108.936       17.615        0.026      345.646       23.325      861.262
07/10/2014  01:17:00      -62.001      -63.288        7.053       33.677       38.546       24.936     1134.108     1485.818      621.783        0.557        0.162       88.598       22.140        0.062      345.598       23.243      861.243
07/10/2014  01:18:00     -109.472      -89.421       -7.624       48.729       49.718       26.086     2374.475     2471.900      680.484        1.278        0.276      141.352       20.772        0.022      345.612       23.268      861.236
07/10/2014  01:19:00      -57.279      -62.043        9.849       56.192       57.129       31.218     3157.579     3263.764      974.581        0.731        0.370       84.441       23.237        0.076      345.527       23.121      861.234
07/10/2014  01:20:00      -40.025     -105.367       11.502       51.755       59.544       33.082     2678.569     3545.443     1094.389        1.008        0.366      112.713       30.896        0.075      345.570       23.196      861.217
07/10/2014  01:21:00      -71.645      -62.684        2.495       44.831       48.323       25.791     2009.812     2335.121      665.156        0.704        0.251       95.196       24.134        0.064      345.567       23.189      861.199
07/10/2014  01:22:00      -81.579      -25.017        7.303       63.037       35.367       25.990     3973.611     1250.844      675.498        0.662        0.295       85.329       31.450        0.136      345.460       23.003      861.196
07/10/2014  01:23:00     -125.086      -54.507      -11.009       30.239       38.503       18.767      914.402     1482.508      352.182        1.074        0.137      136.446       14.621        0.011      345.429       22.952      861.213
07/10/2014  01:24:00      -83.572      -54.665        4.041       41.298       42.819       27.964     1705.527     1833.466      781.970        0.715        0.216       99.863       19.250        0.037      345.416       22.930      861.205
07/10/2014  01:25:00      -49.464      -58.154        2.071       32.294       23.395       15.191     1042.928      547.339      230.765        0.383        0.091       76.345        7.723        0.010      345.429       22.951      861.191
07/10/2014  01:26:00      -82.765      -44.725       -3.153       48.864       31.751       19.267     2387.699     1008.099      371.217        0.631        0.188       94.077       16.278        0.030      345.454       22.996      861.193
07/10/2014  01:27:00      -61.460      -58.867        0.306       42.023       41.701       25.074     1765.920     1738.983      628.715        0.569        0.207       85.104       23.032        0.073      345.432       22.958      861.193
07/10/2014  01:28:00      -84.863      -35.795        0.413       31.556       32.183       16.464      995.807     1035.716      271.066        0.539        0.115       92.103       11.563        0.016      345.392       22.887      861.182
07/10/2014  01:29:00      -38.186      -12.366        3.332       32.052       35.282       15.447     1027.310     1244.797      238.603        0.207        0.126       40.138       15.321        0.146      345.212       22.581      861.173
07/10/2014  01:30:00      -65.467      -10.230        2.396       32.551       26.775       15.321     1059.544      716.926      234.739        0.320        0.101       66.261       13.576        0.042      345.112       22.412      861.165
07/10/2014  01:31:00      -92.479      -16.246       -0.615       46.500       30.066       18.820     2162.224      903.943      354.208        0.612        0.171       93.896       20.178        0.046      345.016       22.246      861.153
07/10/2014  01:32:00     -143.980        1.660      -10.499       42.390       47.097       23.932     1796.953     2218.099      572.759        1.271        0.229      143.989       18.087        0.016      344.853       21.968      861.159
07/10/2014  01:33:00     -114.780      -16.501       -3.590       42.329       44.724       25.007     1791.723     2000.228      625.344        0.894        0.221      115.960       18.550        0.026      344.803       21.880      861.170
07/10/2014  01:34:00      -92.326      -32.900        1.620       39.444       35.027       22.509     1555.857     1226.856      506.654        0.645        0.164       98.013       20.202        0.042      344.790       21.858      861.175
07/10/2014  01:35:00      -84.907       -8.377       -2.245       36.640       30.316       20.237     1342.489      919.067      409.549        0.498        0.134       85.320       18.265        0.046      344.741       21.774      861.179
07/10/2014  01:36:00      -86.389       -6.131        3.632       41.379       25.889       21.790     1712.192      670.263      474.795        0.519        0.143       86.607       20.128        0.054      344.759       21.806      861.186
07/10/2014  01:37:00      -89.476      -23.296       -1.284       28.013       29.008       18.384      784.753      841.480      337.985        0.526        0.098       92.459       13.919        0.023      344.831       21.929      861.182
07/10/2014  01:38:00      -72.061      -22.234       -1.612       16.625       15.847        9.672      276.383      251.141       93.555        0.316        0.031       75.413        7.418        0.010      344.848       21.956      861.173
07/10/2014  01:39:00      -41.267       -7.511       -2.975       27.707       19.395       12.905      767.696      376.147      166.532        0.154        0.066       41.945       12.360        0.087      344.837       21.938      861.171
07/10/2014  01:40:00      -44.986       -8.753        4.474       24.733       15.845       13.452      611.737      251.075      180.949        0.158        0.052       45.830       15.894        0.120      344.845       21.951      861.166
07/10/2014  01:41:00      -64.038        1.126       -4.161       15.732       10.454        8.813      247.493      109.283       77.671        0.228        0.022       64.048        4.582        0.005      344.922       22.085      861.158
07/10/2014  01:42:00      -27.463       11.039        0.100       17.082        8.076        6.811      291.809       65.214       46.388        0.064        0.020       29.599        7.291        0.061      344.878       22.009      861.149
07/10/2014  01:43:00      -14.653        2.842        1.678        7.804        5.966        5.922       60.905       35.590       35.075        0.018        0.007       14.926        2.470        0.027      344.883       22.016      861.154
07/10/2014  01:44:00       -4.868        0.771        6.434        8.106        6.323        4.146       65.709       39.984       17.190        0.009        0.006        4.929        3.667        0.554      344.921       22.083      861.152
07/10/2014  01:45:00        7.283       20.488        8.398        7.024        7.863        7.544       49.341       61.834       56.917        0.036        0.008       21.744        5.565        0.065      344.971       22.166      861.142
07/10/2014  01:46:00       33.740       32.644        7.774        9.628        9.424       10.462       92.698       88.806      109.456        0.128        0.015       46.947        8.050        0.029      345.011       22.236      861.130
07/10/2014  01:47:00       30.638       51.475       30.368       31.305       21.647       26.387      980.026      468.596      696.253        0.333        0.107       59.903       14.596        0.059      344.587       21.511      861.132
07/10/2014  01:48:00       24.394        8.399       31.438       45.822       24.385       21.000     2099.621      594.612      441.010        0.239        0.157       25.799       12.066        0.219      344.613       21.556      861.123
07/10/2014  01:49:00       -1.730        6.414       12.555       11.048       13.067       12.329      122.065      170.734      151.998        0.032        0.022        6.643        8.303        1.562      344.649       21.617      861.117
07/10/2014  01:50:00       -6.471        1.786        1.106        8.797        4.029        4.714       77.387       16.229       22.218        0.008        0.006        6.713        3.600        0.288      344.714       21.728      861.127
07/10/2014  01:51:00      -43.551       18.660       -4.227       13.614        7.207        7.889      185.341       51.944       62.242        0.128        0.015       47.380        7.930        0.028      344.879       22.010      861.122
07/10/2014  01:52:00      -54.637       12.719       -8.120        9.410        9.332        8.826       88.546       87.091       77.901        0.173        0.013       56.098        4.046        0.005      345.196       22.554      861.111
07/10/2014  01:53:00      -43.490      -10.782       -9.739       28.132       13.248        7.448      791.415      175.499       55.466        0.156        0.051       44.807        4.821        0.012      345.078       22.353      861.115
07/10/2014  01:54:00      -77.643        1.353      -15.783        7.025        8.832        5.651       49.347       77.997       31.937        0.322        0.008       77.654        2.678        0.001      344.918       22.078      861.121
07/10/2014  01:55:00      -79.881      -11.009      -10.907       10.059        8.599        7.217      101.193       73.948       52.080        0.342        0.011       80.636        3.405        0.002      345.055       22.311      861.123
07/10/2014  01:56:00      -69.792      -22.043       -9.145       15.122       10.317        7.280      228.667      106.439       52.994        0.291        0.019       73.190        4.561        0.004      344.884       22.019      861.116
07/10/2014  01:57:00      -10.378      -19.424        0.309       24.384       11.723        6.441      594.557      137.435       41.486        0.063        0.039       22.023        7.097        0.104      345.038       22.283      861.114
07/10/2014  01:58:00        1.659       15.633        3.335       17.751       13.285       10.455      315.082      176.481      109.316        0.043        0.030       15.721       11.967        0.579      344.789       21.858      861.109
07/10/2014  01:59:00      -55.003      -18.384       -9.733       18.226       14.100        6.711      332.186      198.798       45.032        0.202        0.029       57.994        4.817        0.007      344.881       22.014      861.102
07/10/2014  02:00:00      -45.931      -35.146      -10.001       22.340       15.441       11.526      499.071      238.412      132.843        0.216        0.044       57.835       11.892        0.042      345.106       22.400      861.091
07/10/2014  02:01:00      -22.464      -35.849       -5.209       10.243        6.023        6.001      104.919       36.273       36.010        0.100        0.009       42.306        1.570        0.001      345.166       22.503      861.086
07/10/2014  02:02:00       -4.705      -14.857       -2.993       12.333       15.049        6.205      152.107      226.460       38.497        0.033        0.021       15.584        7.383        0.224      345.441       22.974      861.075
07/10/2014  02:03:00      -32.407      -10.982       -3.163       10.128        5.913        7.064      102.568       34.963       49.906        0.068        0.009       34.217        6.066        0.031      344.974       22.175      861.062
07/10/2014  02:04:00      -31.592       -6.721       -5.022       10.170        5.797        4.890      103.423       33.606       23.908        0.061        0.008       32.299        4.908        0.023      344.929       22.097      861.052
07/10/2014  02:05:00       -8.795       -5.449       -4.077       12.992       13.486        8.271      168.785      181.870       68.410        0.027        0.021       10.346        8.782        0.720      345.263       22.667      861.050
07/10/2014  02:06:00      -58.000        1.878       -9.824        9.167        5.499        5.301       84.025       30.237       28.103        0.180        0.007       58.030        2.779        0.002      344.949       22.131      861.051
07/10/2014  02:07:00      -24.405       10.569        3.630       24.963       10.950       12.857      623.135      119.896      165.298        0.081        0.045       26.596       16.024        0.363      344.674       21.660      861.040
07/10/2014  02:08:00       44.628       34.857        2.917       19.173       29.090       16.943      367.597      846.235      287.080        0.236        0.075       56.628       10.962        0.037      344.842       21.948      861.033
07/10/2014  02:09:00       42.071       17.900        2.158       14.838       16.712       11.364      220.169      279.306      129.151        0.136        0.031       45.720       10.232        0.050      344.752       21.793      861.031
07/10/2014  02:10:00       15.848       20.492       -6.600       14.532       17.744       12.307      211.170      314.859      151.451        0.070        0.034       25.905        8.515        0.108      344.732       21.760      861.037
07/10/2014  02:11:00       22.835       22.567        4.421       10.765        8.649        7.749      115.887       74.806       60.043        0.065        0.013       32.105        4.275        0.018      344.933       22.102      861.027
07/10/2014  02:12:00       23.887       27.067       -3.252       15.679        8.441        9.526      245.846       71.257       90.749        0.086        0.020       36.100        5.117        0.020      345.122       22.426      861.025
07/10/2014  02:13:00      -14.604       31.574       -6.888       30.677       23.816       10.502      941.057      567.205      110.295        0.144        0.081       34.788        7.768        0.050      345.234       22.618      861.030
07/10/2014  02:14:00      -81.832      -11.709      -12.760       11.691        7.969        6.892      136.684       63.502       47.503        0.362        0.012       82.665        3.133        0.001      344.550       21.449      861.040
07/10/2014  02:15:00     -112.363      -24.977       -9.665       30.829       18.964       14.690      950.409      359.646      215.789        0.743        0.076      115.106       16.322        0.020      344.467       21.307      861.036
07/10/2014  02:16:00      -77.871      -43.916       -7.457       30.430       16.922        7.482      925.994      286.357       55.980        0.466        0.063       89.401       10.482        0.014      344.621       21.570      861.032
07/10/2014  02:17:00       14.945       14.707       -2.470       33.644       30.456        8.775     1131.899      927.592       76.994        0.129        0.107       20.968        8.782        0.175      345.317       22.761      861.019
07/10/2014  02:18:00       74.226       92.253       -1.972       26.915       26.910       23.352      724.440      724.135      545.318        0.801        0.100      118.407       15.552        0.017      345.922       23.798      861.002
07/10/2014  02:19:00      -69.815      -11.450        2.257       36.560       46.010       21.926     1336.648     2116.919      480.737        0.447        0.197       70.747       15.550        0.048      346.296       24.441      860.992
07/10/2014  02:20:00     -139.535       -9.057       -8.379       64.580       47.742       31.997     4170.638     2279.309     1023.823        1.355        0.374      139.829       29.952        0.046      344.768       21.821      861.006
07/10/2014  02:21:00     -103.369      -25.504       -7.274       36.424       21.408       12.909     1326.679      458.287      166.632        0.667        0.098      106.469       13.506        0.016      344.592       21.521      861.003
07/10/2014  02:22:00      -62.477        6.874       -6.892       19.347       15.637        5.539      374.318      244.523       30.676        0.232        0.032       62.854        7.592        0.015      344.912       22.068      860.995
07/10/2014  02:23:00      -59.414       13.656       -8.879       38.415       15.709        9.782     1475.714      246.769       95.687        0.281        0.091       60.963       12.889        0.045      344.845       21.955      861.011
07/10/2014  02:24:00      -14.012       22.776       -0.052       30.829       29.264       12.120      950.405      856.384      146.885        0.133        0.098       26.741       11.016        0.170      345.086       22.365      861.013
07/10/2014  02:25:00     -107.004        4.168       -9.424       63.788       36.251       28.575     4068.944     1314.156      816.534        0.888        0.310      107.085       27.289        0.065      344.393       21.178      861.036
07/10/2014  02:26:00     -100.622       46.060      -14.176       32.681       27.372       20.923     1068.061      749.207      437.769        0.735        0.113      110.663       15.829        0.020      344.508       21.377      861.027
07/10/2014  02:27:00      -41.244       -4.686       -6.847       16.468       12.514        8.405      271.188      156.608       70.648        0.113        0.025       41.509        4.915        0.014      344.525       21.406      861.023
07/10/2014  02:28:00        0.104       12.612       -1.164       32.070       21.529       16.274     1028.476      463.494      264.854        0.096        0.088       12.612       17.900        2.014      344.597       21.529      861.023
07/10/2014  02:29:00       69.226       80.868        8.387       37.451       26.170       24.497     1402.606      684.874      600.113        0.704        0.134      106.451       23.072        0.047      345.299       22.730      861.007
07/10/2014  02:30:00       22.141       43.109       -8.185       27.207       22.491       13.952      740.215      505.840      194.645        0.193        0.072       48.463       11.763        0.059      345.267       22.675      860.997
07/10/2014  02:31:00      -37.284       21.275       -7.141       20.697       12.976        8.908      428.386      168.386       79.357        0.128        0.034       42.927       10.154        0.056      344.990       22.202      860.992
07/10/2014  02:32:00      -58.180       -9.489       -9.387       10.096       10.498        8.331      101.929      110.201       69.405        0.192        0.014       58.949        6.929        0.014      344.769       21.823      860.994
07/10/2014  02:33:00      -12.816       16.263       -7.608       24.185       16.958        6.466      584.898      287.569       41.815        0.070        0.046       20.706        1.817        0.008      345.093       22.376      860.976
07/10/2014  02:34:00       36.141       14.388        4.274        9.962       13.174       12.251       99.250      173.562      150.093        0.098        0.021       38.900       10.406        0.072      345.165       22.501      860.953
07/10/2014  02:35:00       17.156        9.222        2.120       15.508       10.453        6.771      240.487      109.264       45.842        0.039        0.020       19.477        5.102        0.069      345.194       22.549      860.951
07/10/2014  02:36:00      -12.850       29.440       -0.848       12.273       15.337        4.361      150.632      235.230       19.018        0.072        0.020       32.122        4.934        0.024      345.316       22.758      860.961
07/10/2014  02:37:00      -17.893       34.295       -5.451       14.148       12.065        7.247      200.161      145.566       52.520        0.096        0.020       38.682        7.659        0.039      345.220       22.597      860.967
07/10/2014  02:38:00      -54.450       -9.373      -10.170       19.966       21.668       10.487      398.644      469.504      109.970        0.207        0.049       55.251       10.295        0.035      344.678       21.668      860.976
07/10/2014  02:39:00      -21.963      -36.172      -15.966       14.286       18.283       11.221      204.076      334.255      125.921        0.135        0.033       42.317        9.492        0.050      344.514       21.388      860.980
07/10/2014  02:40:00       -8.616      -32.386       -7.537       10.135       10.364        6.406      102.723      107.406       41.035        0.072        0.013       33.512        2.007        0.004      344.810       21.892      860.981
07/10/2014  02:41:00      -19.540      -28.914        3.687       30.076       10.660       10.157      904.572      113.627      103.156        0.118        0.056       34.898       12.840        0.135      344.752       21.793      860.992
07/10/2014  02:42:00      -84.236      -16.595       -8.839       10.938       11.350        9.557      119.637      128.815       91.327        0.389        0.017       85.855        6.126        0.005      344.684       21.675      860.996
07/10/2014  02:43:00      -86.625      -37.586       -0.062       24.455       16.584       10.033      598.055      275.032      100.659        0.495        0.049       94.428        9.171        0.009      344.653       21.624      860.997
07/10/2014  02:44:00      -78.262      -40.587       -4.541       16.585       10.271        9.707      275.069      105.496       94.223        0.413        0.024       88.160        4.080        0.002      344.683       21.673      861.000
07/10/2014  02:45:00      -50.429      -27.743       -1.850       13.850       11.444        7.651      191.816      130.959       58.533        0.185        0.019       57.556        2.170        0.001      344.651       21.622      861.001
07/10/2014  02:46:00      -30.784      -20.122       -8.398       12.584        6.478        5.729      158.361       41.965       32.818        0.083        0.012       36.777        6.628        0.032      344.727       21.752      861.008
07/10/2014  02:47:00      -27.170      -19.662       -8.650        8.067        7.137        6.990       65.070       50.935       48.863        0.068        0.008       33.538        4.564        0.019      344.883       22.019      861.007
07/10/2014  02:48:00      -41.457      -31.489       -6.809       17.186        9.417        7.524      295.362       88.681       56.613        0.160        0.022       52.060        3.743        0.005      344.722       21.742      860.997
07/10/2014  02:49:00      -67.490      -43.459       -3.975       29.940       23.600       14.370      896.396      556.961      206.499        0.406        0.083       80.272        7.080        0.008      344.537       21.427      860.999
07/10/2014  02:50:00     -125.313      -38.875        2.662       33.893       29.868       19.653     1148.727      892.077      386.248        0.982        0.121      131.205       16.052        0.015      344.316       21.049      860.993
07/10/2014  02:51:00      -68.167      -68.793       10.440       39.119       35.378       21.586     1530.307     1251.629      465.948        0.637        0.162       96.847       20.931        0.047      344.362       21.128      860.990
07/10/2014  02:52:00      -36.182      -37.969        5.864       30.561       23.730       17.080      933.971      563.105      291.742        0.229        0.089       52.448       16.476        0.099      344.453       21.282      860.985
07/10/2014  02:53:00      -39.653      -40.429        0.592       28.805       19.221       13.050      829.722      369.445      170.294        0.229        0.068       56.629       13.016        0.053      344.534       21.422      860.976
07/10/2014  02:54:00      -52.818      -46.578       -0.889       25.713       17.221       19.811      661.142      296.574      392.493        0.315        0.068       70.422       10.620        0.023      344.679       21.668      860.975
07/10/2014  02:55:00      -77.489      -93.224        0.707       30.840       33.626       20.418      951.108     1130.716      416.899        0.860        0.125      121.224       18.010        0.022      344.804       21.882      860.971
07/10/2014  02:56:00      -78.448      -87.679        8.489       62.196       43.208       34.539     3868.384     1866.958     1192.927        1.042        0.346      117.651       27.592        0.055      344.521       21.398      860.975
07/10/2014  02:57:00     -120.796      -72.177       -2.585       46.047       40.634       30.074     2120.369     1651.147      904.462        1.224        0.234      140.717       22.878        0.026      344.492       21.347      860.985
07/10/2014  02:58:00      -88.846      -79.124       16.697       58.408       46.661       32.476     3411.480     2177.211     1054.683        1.054        0.332      118.972       23.786        0.040      344.572       21.488      860.987
07/10/2014  02:59:00      -53.731      -81.960        8.750       39.640       43.777       24.152     1571.290     1916.455      583.328        0.688        0.204       98.002       21.117        0.046      344.593       21.521      860.976
07/10/2014  03:00:00      -68.057      -67.276        7.367       59.048       43.510       28.854     3486.650     1893.100      832.580        0.771        0.311       95.696       25.842        0.073      344.519       21.395      860.970
07/10/2014  03:01:00     -126.111      -78.632       -3.826       54.898       44.280       25.722     3013.787     1960.706      661.643        1.387        0.282      148.616       29.482        0.039      344.443       21.263      860.964
07/10/2014  03:02:00      -87.882      -38.993        2.657       45.007       43.618       19.908     2025.654     1902.495      396.310        0.679        0.216       96.144       13.345        0.019      344.364       21.130      860.959
07/10/2014  03:03:00      -86.931      -38.782        8.956       55.028       40.339       23.185     3028.099     1627.222      537.544        0.717        0.260       95.189       26.987        0.080      344.319       21.054      860.945
07/10/2014  03:04:00     -135.120      -36.805        1.544       64.315       56.124       33.083     4136.426     3149.848     1094.468        1.400        0.419      140.043       31.845        0.052      344.241       20.919      860.924
07/10/2014  03:05:00     -176.296      -72.436        4.084       66.243       75.339       34.077     4388.096     5675.970     1161.245        2.378        0.561      190.597       31.001        0.026      344.263       20.953      860.906
07/10/2014  03:06:00     -163.953      -65.226       -4.380       70.668       64.284       35.293     4993.921     4132.420     1245.596        2.076        0.519      176.452       35.606        0.041      344.208       20.860      860.904
07/10/2014  03:07:00     -148.535      -45.266       -3.425       51.549       50.969       28.839     2657.314     2597.834      831.686        1.510        0.304      155.279       29.651        0.036      344.150       20.763      860.896
07/10/2014  03:08:00     -125.533      -13.788        1.235       53.615       42.381       29.943     2874.621     1796.176      896.607        1.076        0.278      126.288       30.983        0.060      344.008       20.522      860.881
07/10/2014  03:09:00     -164.692      -47.875       -3.927       52.232       41.017       27.371     2728.184     1682.434      749.146        1.729        0.258      171.510       24.455        0.020      344.084       20.651      860.881
07/10/2014  03:10:00     -125.295      -25.618        2.000       41.889       33.729       26.607     1754.654     1137.654      707.928        0.998        0.180      127.887       23.975        0.035      344.081       20.647      860.871
07/10/2014  03:11:00     -181.218      -54.744      -10.486       39.990       37.488       24.807     1599.184     1405.320      615.373        1.978        0.181      189.306       22.932        0.015      344.126       20.723      860.871
07/10/2014  03:12:00     -179.482      -45.366       -7.055       49.001       39.989       31.557     2401.102     1599.123      995.832        1.966        0.250      185.127       29.597        0.026      344.061       20.612      860.871
07/10/2014  03:13:00     -137.059      -61.314       -1.398       44.015       33.594       23.883     1937.356     1128.531      570.381        1.309        0.182      150.149       23.733        0.025      344.058       20.608      860.885
07/10/2014  03:14:00     -148.881      -38.064      -12.115       31.633       48.114       20.643     1000.677     2314.943      426.140        1.375        0.187      153.670       17.320        0.013      344.053       20.600      860.879
07/10/2014  03:15:00     -131.220      -60.507       -5.841       48.992       35.881       26.257     2400.199     1287.458      689.419        1.264        0.219      144.498       25.993        0.032      344.112       20.698      860.887
07/10/2014  03:16:00     -128.210      -44.093      -11.225       41.313       32.520       22.646     1706.738     1057.542      512.830        1.089        0.164      135.580       14.661        0.012      344.131       20.732      860.886
07/10/2014  03:17:00     -144.991      -41.085       -6.193       34.778       27.618       18.569     1209.486      762.755      344.817        1.253        0.116      150.699       11.860        0.006      344.116       20.707      860.894
07/10/2014  03:18:00     -109.627      -26.817       -4.522       26.948       23.586       16.202      726.217      556.290      262.496        0.715        0.077      112.860       16.014        0.020      344.106       20.690      860.889
07/10/2014  03:19:00     -133.328      -53.357       -6.637       29.086       31.548       17.539      845.970      995.289      307.618        1.141        0.107      143.609       15.574        0.012      344.206       20.860      860.879
07/10/2014  03:20:00     -141.633      -57.273      -12.342       16.407       20.383       12.087      269.174      415.480      146.092        1.216        0.042      152.775       11.666        0.006      344.176       20.807      860.883
07/10/2014  03:21:00      -84.122      -20.812       -3.254       36.750       36.308       17.950     1350.577     1318.260      322.187        0.526        0.150       86.658       20.106        0.054      344.098       20.675      860.872
07/10/2014  03:22:00      -98.964      -34.742      -11.637       28.679       22.914       16.536      822.511      525.066      273.425        0.638        0.081      104.885       14.222        0.018      344.185       20.825      860.864
07/10/2014  03:23:00     -102.529      -47.504      -10.573       44.956       21.148       21.468     2021.026      447.229      460.882        0.790        0.146      112.999       16.614        0.022      344.237       20.911      860.864
07/10/2014  03:24:00      -85.605      -43.879       -1.142       39.301       26.993       16.986     1544.540      728.639      288.509        0.591        0.128       96.196       18.106        0.035      344.217       20.880      860.856
07/10/2014  03:25:00      -75.104      -56.778        0.103       44.919       31.701       27.381     2017.759     1004.932      749.736        0.632        0.189       94.151       23.504        0.062      344.203       20.855      860.850
07/10/2014  03:26:00      -90.543      -58.742       -1.652       47.137       32.630       21.200     2221.910     1064.727      449.457        0.769        0.187      107.929       11.204        0.011      344.210       20.866      860.854
07/10/2014  03:27:00      -98.440      -63.913        1.704       41.994       42.350       26.016     1763.503     1793.519      676.842        0.901        0.212      117.368       20.029        0.029      344.171       20.800      860.849
07/10/2014  03:28:00     -101.177      -48.248       -7.691       39.760       30.263       18.886     1580.844      915.844      356.694        0.774        0.143      112.092       21.619        0.037      344.178       20.812      860.844
07/10/2014  03:29:00      -97.257      -64.550       -2.047       45.297       36.612       23.493     2051.826     1340.421      551.917        0.879        0.197      116.729       21.883        0.035      344.184       20.822      860.856
07/10/2014  03:30:00     -164.462      -64.669      -11.478       42.052       32.208       27.351     1768.378     1037.377      748.102        1.746        0.178      176.720       25.533        0.021      344.254       20.942      860.850
07/10/2014  03:31:00      -65.516      -66.998       11.696       57.675       56.161       32.754     3326.379     3154.069     1072.849        0.823        0.378       93.707       32.477        0.120      344.184       20.824      860.851
07/10/2014  03:32:00     -173.583     -107.508        6.607       82.325       52.365       38.725     6777.409     2742.063     1499.640        2.637        0.551      204.179       41.025        0.040      344.108       20.690      860.863
07/10/2014  03:33:00     -187.717     -109.818       -3.482       62.833       39.968       33.179     3947.964     1597.454     1100.816        2.698        0.332      217.481       31.072        0.020      344.172       20.799      860.864
07/10/2014  03:34:00     -186.797     -124.418        0.378       77.702       46.007       41.939     6037.560     2116.668     1758.920        3.014        0.496      224.439       43.233        0.037      344.206       20.857      860.857
07/10/2014  03:35:00     -155.659      -71.094       -7.405       56.572       38.727       29.130     3200.412     1499.767      848.564        1.744        0.277      171.126       29.993        0.031      344.183       20.819      860.845
07/10/2014  03:36:00     -149.171      -34.921        2.524       71.747       52.006       26.714     5147.643     2704.577      713.623        1.602        0.428      153.204       29.789        0.038      344.108       20.692      860.829
07/10/2014  03:37:00     -205.506      -60.395        1.302       80.782       51.326       30.683     6525.717     2634.347      941.472        2.799        0.505      214.197       34.690        0.026      343.984       20.478      860.821
07/10/2014  03:38:00     -180.633      -66.210        2.708       72.435       53.043       39.185     5246.854     2813.552     1535.472        2.331        0.480      192.385       38.709        0.040      343.869       20.281      860.830
07/10/2014  03:39:00     -152.726      -50.592        0.907       69.716       49.069       33.017     4860.379     2407.806     1090.151        1.712        0.418      160.888       34.648        0.046      343.915       20.363      860.831
07/10/2014  03:40:00     -125.378       -6.093       -1.912       40.925       35.860       21.634     1674.835     1285.967      468.019        0.959        0.171      125.526       18.403        0.021      343.861       20.272      860.835
07/10/2014  03:41:00     -113.342      -16.571       -3.962       42.672       42.602       21.037     1820.924     1814.950      442.557        0.861        0.204      114.547       16.789        0.021      343.830       20.219      860.850
07/10/2014  03:42:00      -98.913      -15.517        7.197       50.099       35.885       24.221     2509.939     1287.735      586.642        0.723        0.219      100.123       27.165        0.074      343.765       20.107      860.856
07/10/2014  03:43:00     -165.449      -34.526       -0.155       62.071       40.586       26.213     3852.866     1647.247      687.114        1.738        0.309      169.013       27.872        0.027      343.742       20.066      860.858
07/10/2014  03:44:00     -153.498      -49.423        0.659       45.550       39.958       24.597     2074.789     1596.655      605.035        1.514        0.214      161.258       23.821        0.022      343.726       20.040      860.866
07/10/2014  03:45:00     -123.907      -47.225        0.841       48.765       40.358       28.070     2378.000     1628.751      787.906        1.119        0.240      132.602       24.290        0.034      343.765       20.106      860.873
07/10/2014  03:46:00     -156.326      -32.340        0.746       41.333       30.704       23.301     1708.381      942.755      542.948        1.434        0.160      159.637       21.441        0.018      343.776       20.126      860.874
07/10/2014  03:47:00     -121.960      -31.762        6.609       46.862       47.442       25.564     2196.003     2250.780      653.496        1.051        0.255      126.028       23.898        0.036      343.723       20.035      860.873
07/10/2014  03:48:00     -104.683      -16.902        4.904       48.921       39.347       26.309     2393.258     1548.165      692.157        0.795        0.232      106.039       27.092        0.065      343.669       19.943      860.885
07/10/2014  03:49:00     -111.176      -10.260       -1.369       39.802       37.845       22.931     1584.185     1432.255      525.832        0.800        0.177      111.649       24.676        0.049      343.630       19.876      860.882
07/10/2014  03:50:00     -118.700        1.197       -2.529       50.720       29.110       25.791     2572.536      847.384      665.197        0.909        0.204      118.707       24.365        0.042      343.650       19.909      860.868
07/10/2014  03:51:00     -117.252      -41.824       -6.114       42.616       30.272       18.572     1816.165      916.382      344.908        0.931        0.154      124.488       18.024        0.021      343.656       19.920      860.859
07/10/2014  03:52:00     -115.993      -23.949      -10.738       38.149       39.361       19.787     1455.322     1549.288      391.525        0.877        0.170      118.440       15.344        0.017      343.663       19.933      860.855
07/10/2014  03:53:00      -81.519      -29.080        1.470       40.132       41.413       26.417     1610.565     1715.070      697.855        0.576        0.201       86.550       18.372        0.045      343.601       19.828      860.848
07/10/2014  03:54:00      -99.255      -29.808       -3.816       35.457       26.132       17.222     1257.215      682.907      296.613        0.650        0.112      103.635       18.911        0.033      343.643       19.900      860.839
07/10/2014  03:55:00      -86.618      -36.480        2.288       37.175       29.240       21.437     1381.970      854.990      459.536        0.577        0.135       93.987       18.875        0.040      343.583       19.797      860.838
07/10/2014  03:56:00      -96.671      -40.274        0.527       43.676       37.110       20.792     1907.619     1377.161      432.296        0.734        0.186      104.725       20.366        0.038      343.656       19.920      860.845
07/10/2014  03:57:00     -133.410      -57.928      -14.776       28.303       34.198       21.148      801.033     1169.535      447.217        1.189        0.121      145.444       17.759        0.015      343.704       20.003      860.846
07/10/2014  03:58:00     -103.290      -43.364       -5.394       47.771       42.930       27.104     2282.038     1843.009      734.607        0.872        0.243      112.024       20.180        0.032      343.693       19.984      860.847
07/10/2014  03:59:00     -136.914      -45.077       -9.161       48.347       32.630       25.608     2337.478     1064.718      655.768        1.246        0.203      144.144       24.677        0.029      343.776       20.126      860.857
07/10/2014  04:00:00     -109.990      -55.002       -2.263       38.828       46.916       16.935     1507.602     2201.073      286.801        0.956        0.200      122.976       12.842        0.011      343.753       20.087      860.863
07/10/2014  04:01:00     -156.909      -24.928       -1.281       53.885       34.715       24.859     2903.583     1205.115      617.948        1.498        0.236      158.877       24.118        0.023      343.842       20.239      860.866
07/10/2014  04:02:00     -122.407      -32.615        0.288       50.542       43.519       25.561     2554.483     1893.916      653.388        1.057        0.255      126.677       21.817        0.030      343.904       20.343      860.873
07/10/2014  04:03:00     -145.778      -30.380        0.317       54.629       31.379       24.723     2984.368      984.625      611.239        1.338        0.229      148.910       24.502        0.027      344.019       20.541      860.878
07/10/2014  04:04:00      -94.864        1.346       -1.145       44.861       38.943       23.464     2012.478     1516.573      550.543        0.654        0.204       94.873       26.498        0.078      343.956       20.433      860.879
07/10/2014  04:05:00      -82.331      -22.440        5.498       34.991       31.513       21.160     1224.375      993.085      447.757        0.499        0.133       85.335       20.850        0.060      343.866       20.280      860.886
07/10/2014  04:06:00      -75.817       -6.985       -2.304       25.303       22.378       12.727      640.257      500.775      161.968        0.355        0.065       76.138       13.308        0.031      343.811       20.186      860.888
07/10/2014  04:07:00      -80.501      -11.033       -4.902       17.765       13.787        8.754      315.592      190.074       76.627        0.360        0.029       81.254        7.168        0.008      343.823       20.206      860.887
07/10/2014  04:08:00      -87.640        3.701       -7.139       15.812       16.518        9.445      250.034      272.830       89.211        0.418        0.031       87.718        9.257        0.011      343.926       20.380      860.903
07/10/2014  04:09:00      -71.300       14.054       -8.342       17.715       13.204       13.121      313.817      174.335      172.156        0.301        0.033       72.672       10.132        0.019      343.998       20.506      860.906
07/10/2014  04:10:00      -74.233      -26.945       -1.965       22.184       22.554       10.627      492.117      508.664      112.938        0.368        0.056       78.972        8.155        0.011      343.952       20.425      860.902
07/10/2014  04:11:00      -19.403       38.779       -2.257       14.033       32.059       11.957      196.935     1027.800      142.977        0.163        0.068       43.362       13.982        0.104      344.421       21.228      860.897
07/10/2014  04:12:00        6.097      -35.522       -4.446       26.929       15.732       16.252      725.156      247.509      264.121        0.128        0.062       36.041       12.866        0.127      344.008       20.522      860.908
07/10/2014  04:13:00        1.483      -13.628       -7.599        9.869       10.423        7.842       97.390      108.640       61.505        0.026        0.013       13.708        7.400        0.291      343.929       20.386      860.922
07/10/2014  04:14:00        7.858       -4.934       10.523        8.075       12.323        6.053       65.206      151.860       36.638        0.023        0.013        9.279        2.676        0.083      343.833       20.223      860.927
07/10/2014  04:15:00       -0.290       11.163       16.607       16.749       15.219       11.228      280.530      231.623      126.077        0.052        0.032       11.167        8.229        0.543      343.940       20.407      860.913
07/10/2014  04:16:00      -19.650       -8.184       -0.947        9.006        8.569        9.176       81.114       73.422       84.206        0.035        0.012       21.286        2.464        0.013      343.847       20.248      860.916
07/10/2014  04:17:00       14.275       21.785       35.495       16.733       14.638       11.078      279.988      214.263      122.733        0.128        0.031       26.045       10.150        0.152      343.775       20.123      860.923
07/10/2014  04:18:00       52.084       26.469       14.498       15.375       11.704       12.355      236.382      136.977      152.643        0.207        0.026       58.424        5.825        0.010      343.732       20.052      860.922
07/10/2014  04:19:00       44.492       27.004       11.172       17.717       18.998       18.173      313.898      360.927      330.254        0.192        0.050       52.045        5.252        0.010      343.564       19.764      860.920
07/10/2014  04:20:00       31.051        0.541       15.487       32.837       22.842       12.304     1078.278      521.737      151.388        0.148        0.088       31.056       13.199        0.181      343.526       19.698      860.922
07/10/2014  04:21:00       21.096      -21.625        6.249       19.002       18.772        9.259      361.094      352.373       85.720        0.088        0.040       30.210       10.199        0.114      343.620       19.861      860.917
07/10/2014  04:22:00       15.082      -54.868       -0.030       23.001       11.313        9.057      529.041      127.986       82.028        0.199        0.037       56.903        6.456        0.013      343.858       20.265      860.910
07/10/2014  04:23:00      -12.396      -18.461       -1.944       15.270       17.898       15.531      233.169      320.323      241.203        0.065        0.040       22.237       12.033        0.293      343.721       20.032      860.902
07/10/2014  04:24:00       -4.293       -8.058        2.448       18.976       18.979       15.296      360.098      360.206      233.965        0.052        0.048        9.130        3.638        0.159      343.508       19.669      860.898
07/10/2014  04:25:00      -29.531      -24.655        5.276       29.411       19.365       15.984      865.024      375.013      255.480        0.150        0.075       38.470       15.908        0.171      343.516       19.684      860.884
07/10/2014  04:26:00      -72.280      -44.014       -1.265       27.283       17.330       15.284      744.382      300.331      233.602        0.422        0.064       84.627       15.870        0.035      343.405       19.493      860.884
07/10/2014  04:27:00      -86.898      -48.920       -0.112       21.008       16.787       13.900      441.331      281.807      193.212        0.543        0.046       99.722       11.001        0.012      343.460       19.588      860.889
07/10/2014  04:28:00      -69.974      -25.234        3.122       17.204       18.637       10.607      295.983      347.333      112.518        0.315        0.038       74.385        8.609        0.013      343.469       19.602      860.904
07/10/2014  04:29:00      -79.422       16.858       -0.444       18.621       14.168       10.387      346.754      200.741      107.889        0.362        0.033       81.191        6.434        0.006      343.389       19.465      860.934
07/10/2014  04:30:00      -60.344       27.218       -3.089       26.834       21.927       14.559      720.062      480.790      211.975        0.290        0.071       66.199       12.193        0.034      343.273       19.267      860.957
07/10/2014  04:31:00      -46.543       22.827        1.289       30.679       21.090       17.671      941.226      444.789      312.267        0.219        0.085       51.839       13.790        0.071      343.355       19.409      860.976
07/10/2014  04:32:00      -46.781        4.186       -0.522       28.294       27.133       15.838      800.577      736.208      250.831        0.200        0.089       46.968       15.248        0.105      343.500       19.655      860.991
07/10/2014  04:33:00      -52.274      -32.305       -7.093       20.739       17.234        9.645      430.113      296.998       93.033        0.232        0.041       61.450        5.495        0.008      343.384       19.458      861.001
07/10/2014  04:34:00      -78.634      -35.925       -8.179       13.286       20.908       13.485      176.529      437.139      181.844        0.417        0.040       86.452       10.911        0.016      343.229       19.193      861.009
07/10/2014  04:35:00      -67.663        1.204       -0.425       34.673       32.716       22.144     1202.193     1070.317      490.369        0.367        0.138       67.673       17.386        0.066      343.161       19.077      861.010
07/10/2014  04:36:00     -118.693      -22.588       -1.868       33.353       25.894       20.726     1112.392      670.492      429.574        0.841        0.111      120.823       20.237        0.028      343.169       19.091      861.022
07/10/2014  04:37:00     -119.276      -63.634       -2.570       37.096       40.180       23.087     1376.148     1614.471      533.010        1.090        0.176      135.189       21.871        0.026      343.184       19.117      861.026
07/10/2014  04:38:00      -84.815      -24.028        7.056       42.653       32.630       20.610     1819.314     1064.688      424.761        0.556        0.165       88.153       19.160        0.047      343.199       19.142      861.030
07/10/2014  04:39:00      -94.464      -41.327       -1.087       36.113       31.801       19.216     1304.125     1011.278      369.253        0.666        0.134      103.109       16.581        0.026      343.267       19.260      861.047
07/10/2014  04:40:00      -52.568      -53.136       -1.853       26.198       31.162       13.999      686.348      971.098      195.984        0.372        0.093       74.745       13.135        0.031      343.330       19.365      861.068
07/10/2014  04:41:00      -68.834     -102.735       -7.556       22.585       23.307       17.571      510.071      543.208      308.735        0.836        0.068      123.663       17.435        0.020      343.542       19.726      861.082
07/10/2014  04:42:00      -69.724      -69.399       -5.053       33.129       16.028       11.120     1097.503      256.900      123.644        0.559        0.074       98.375       11.865        0.015      343.537       19.718      861.096
07/10/2014  04:43:00      -34.329      -41.209        8.698       30.027       25.270       21.569      901.613      638.568      465.239        0.248        0.100       53.634       18.755        0.122      343.521       19.691      861.121
07/10/2014  04:44:00      -36.672      -20.061        4.368       25.776       30.354       12.501      664.426      921.341      156.263        0.175        0.087       41.801       14.605        0.122      343.493       19.643      861.147
07/10/2014  04:45:00      -23.592       25.757        7.736       13.651       16.107       10.565      186.348      259.441      111.622        0.092        0.028       34.929        5.321        0.023      343.419       19.515      861.169
07/10/2014  04:46:00        1.693       39.608       11.488        9.864       15.974       15.321       97.300      255.154      234.730        0.115        0.029       39.645        7.750        0.038      343.336       19.375      861.169
07/10/2014  04:47:00      -14.997       27.229        1.691        8.218       13.622        7.298       67.536      185.547       53.257        0.064        0.015       31.086        6.588        0.045      343.247       19.223      861.169
07/10/2014  04:48:00      -21.803       10.974       -2.075       15.172       20.621       10.586      230.192      425.239      112.065        0.068        0.038       24.409       11.261        0.213      343.410       19.503      861.164
07/10/2014  04:49:00      -30.191        4.297        0.030       21.854        8.314        7.586      477.582       69.122       57.545        0.077        0.030       30.495        9.280        0.093      343.422       19.522      861.160
07/10/2014  04:50:00      -47.479      -20.889       -2.472       20.043       16.690       13.286      401.710      278.555      176.516        0.178        0.043       51.871        7.438        0.021      343.499       19.654      861.169
07/10/2014  04:51:00      -35.468      -25.789        7.506       26.998       15.123       11.056      728.900      228.714      122.241        0.153        0.054       43.852        9.832        0.050      343.246       19.223      861.173
07/10/2014  04:52:00      -26.638      -38.542        9.268       36.138       32.278       18.265     1305.947     1041.867      333.599        0.248        0.134       46.852       17.835        0.145      343.177       19.105      861.170
07/10/2014  04:53:00     -116.798      -86.239       -1.636       36.670       46.065       28.057     1344.711     2121.941      787.171        1.267        0.213      145.186       22.930        0.025      343.415       19.511      861.169
07/10/2014  04:54:00     -139.237        9.555       -6.763       40.410       32.920       27.229     1632.958     1083.730      741.433        1.149        0.173      139.565       23.433        0.028      342.935       18.694      861.182
07/10/2014  04:55:00     -113.502      -18.620        3.014       41.084       22.734       20.149     1687.918      516.823      405.964        0.792        0.131      115.019       21.856        0.036      342.852       18.552      861.183
07/10/2014  04:56:00     -107.484       -3.548       -3.463       50.439       38.064       24.716     2544.112     1448.858      610.858        0.809        0.230      107.542       25.912        0.058      342.772       18.415      861.188
07/10/2014  04:57:00      -97.901        0.800       -0.954       55.093       40.857       24.721     3035.277     1669.278      611.123        0.745        0.266       97.904       19.589        0.040      342.761       18.396      861.177
07/10/2014  04:58:00     -101.701       -7.832        3.805       63.558       28.675       26.118     4039.624      822.283      682.158        0.798        0.277      102.002       27.351        0.072      342.749       18.376      861.175
07/10/2014  04:59:00     -117.693      -34.015       -5.785       35.400       46.431       25.794     1253.164     2155.828      665.330        0.956        0.204      122.510       21.892        0.032      342.810       18.479      861.172
07/10/2014  05:00:00     -115.966      -48.231        1.916       32.947       35.604       22.837     1085.512     1267.626      521.549        0.933        0.144      125.596       13.710        0.012      342.790       18.447      861.177
07/10/2014  05:01:00      -94.371      -28.595        0.662       37.499       28.834       17.592     1406.142      831.403      309.464        0.614        0.127       98.608       17.587        0.032      342.776       18.423      861.180
07/10/2014  05:02:00     -111.911      -16.035       -7.149       27.291       30.464       19.520      744.803      928.045      381.044        0.744        0.103      113.054       18.366        0.026      342.720       18.328      861.197
07/10/2014  05:03:00      -99.979      -24.685      -11.204       22.145       15.364       10.649      490.410      236.057      113.410        0.579        0.042      102.981        6.266        0.004      342.732       18.347      861.198
07/10/2014  05:04:00      -50.460      -34.875       -0.987       21.163       22.451       10.054      447.887      504.057      101.090        0.241        0.053       61.339        8.184        0.018      342.845       18.540      861.189
07/10/2014  05:05:00      -69.800      -25.102        2.222       23.250       20.350       14.029      540.547      414.139      196.812        0.333        0.058       74.177       10.794        0.021      342.897       18.628      861.192
07/10/2014  05:06:00      -92.136      -30.425       -2.471       38.551       31.416       16.109     1486.178      986.935      259.489        0.608        0.137       97.029       17.559        0.033      342.973       18.759      861.206
07/10/2014  05:07:00      -53.827      -40.096       -2.336       28.042       21.408       14.803      786.356      458.295      219.134        0.299        0.073       67.120       12.887        0.037      343.040       18.872      861.205
07/10/2014  05:08:00      -87.881      -25.377       -2.439       34.854       31.315       16.647     1214.828      980.607      277.112        0.542        0.124       91.472       13.722        0.023      343.018       18.834      861.200
07/10/2014  05:09:00      -57.636      -16.904        3.918       32.915       22.788       15.355     1083.424      519.304      235.763        0.273        0.092       60.063       15.867        0.070      343.013       18.826      861.203
07/10/2014  05:10:00      -77.481      -37.571       -7.660       32.200       25.242       12.224     1036.866      637.137      149.415        0.465        0.091       86.109        4.894        0.003      343.025       18.845      861.218
07/10/2014  05:11:00      -92.233      -43.820       -8.384       19.469       16.357       14.365      379.042      267.562      206.365        0.568        0.043      102.113       10.647        0.011      343.031       18.855      861.230
07/10/2014  05:12:00      -66.708        6.839       -5.204       32.305       25.271       13.691     1043.599      638.604      187.433        0.320        0.093       67.058       15.832        0.056      342.978       18.767      861.222
07/10/2014  05:13:00      -90.723      -27.121       -5.053       32.899       23.795       13.187     1082.328      566.223      173.899        0.541        0.091       94.690       15.658        0.027      343.070       18.921      861.223
07/10/2014  05:14:00     -108.038      -34.045       -8.613       22.129       18.019       12.483      489.687      324.668      155.816        0.694        0.049      113.275       10.389        0.008      343.094       18.963      861.237
07/10/2014  05:15:00      -57.378      -33.400        3.503       45.890       25.036       18.747     2105.857      626.790      351.442        0.375        0.154       66.391       16.803        0.064      343.020       18.838      861.255
07/10/2014  05:16:00      -58.640      -45.870        1.015       32.756       22.398       17.502     1072.986      501.661      306.337        0.371        0.094       74.449       13.044        0.031      343.036       18.864      861.258
07/10/2014  05:17:00      -43.898      -33.718       12.830       33.428       27.273       24.994     1117.414      743.832      624.690        0.286        0.124       55.353       21.861        0.156      343.028       18.852      861.255
07/10/2014  05:18:00     -118.528      -75.993       -1.446       36.260       29.140       22.251     1314.761      849.168      495.107        1.124        0.133      140.797       21.138        0.023      343.121       19.009      861.253
07/10/2014  05:19:00     -115.983      -78.413        0.957       43.954       32.074       22.024     1931.955     1028.748      485.071        1.152        0.172      140.002       17.901        0.016      343.141       19.043      861.251
07/10/2014  05:20:00     -102.462      -58.682       -6.876       45.833       33.921       21.137     2100.701     1150.616      446.755        0.884        0.185      118.076       17.210        0.021      343.073       18.927      861.237
07/10/2014  05:21:00     -118.725      -68.159       -7.209       16.542       20.331       12.678      273.637      413.353      160.731        0.982        0.042      136.899        8.916        0.004      343.069       18.921      861.223
07/10/2014  05:22:00     -145.364      -76.769       -4.360       23.639       21.943       15.099      558.779      481.503      227.986        1.416        0.063      164.390       11.588        0.005      343.069       18.919      861.209
07/10/2014  05:23:00     -122.776      -68.190        0.016       41.870       27.398       24.968     1753.097      750.663      623.382        1.142        0.156      140.442       21.450        0.023      343.031       18.856      861.196
07/10/2014  05:24:00     -129.845      -33.800       -3.820       34.319       33.322       19.585     1177.803     1110.365      383.569        1.034        0.134      134.172       18.461        0.019      342.993       18.792      861.181
07/10/2014  05:25:00     -113.040      -30.419       -1.482       37.562       26.953       21.493     1410.887      726.486      461.966        0.815        0.130      117.062       21.075        0.032      342.922       18.671      861.167
07/10/2014  05:26:00      -93.918      -30.922        4.077       45.764       44.760       23.868     2094.376     2003.493      569.684        0.723        0.233       98.878       21.782        0.049      342.985       18.778      861.164
07/10/2014  05:27:00      -87.496      -56.692        8.047       50.954       42.559       25.074     2596.315     1811.233      628.688        0.798        0.252      104.257       24.009        0.053      343.017       18.832      861.164
07/10/2014  05:28:00      -80.178      -49.360        0.949       53.835       42.649       28.038     2898.210     1818.967      786.116        0.718        0.275       94.154       26.694        0.080      343.070       18.922      861.151
07/10/2014  05:29:00      -69.670      -74.526        8.769       46.998       41.980       30.709     2208.817     1762.329      943.022        0.770        0.246      102.020       25.906        0.064      343.085       18.949      861.145
07/10/2014  05:30:00     -101.458      -68.210       -0.286       33.906       38.534       22.962     1149.646     1484.870      527.234        0.905        0.158      122.255       18.734        0.023      343.122       19.012      861.150
07/10/2014  05:31:00      -97.885      -85.202        3.345       57.877       37.480       34.907     3349.771     1404.715     1218.525        1.141        0.299      129.772       34.162        0.069      343.172       19.097      861.156
07/10/2014  05:32:00     -133.586      -95.685       -1.205       33.608       34.668       24.366     1129.491     1201.903      593.704        1.496        0.146      164.319       19.108        0.014      343.130       19.026      861.171
07/10/2014  05:33:00     -146.508      -89.403       -2.411       58.256       47.599       29.491     3393.819     2265.649      869.714        1.800        0.326      171.632       23.570        0.019      343.026       18.846      861.184
07/10/2014  05:34:00     -126.750      -66.679        3.043       55.788       41.484       23.443     3112.320     1720.950      549.566        1.295        0.269      143.219       20.243        0.020      342.980       18.769      861.212
07/10/2014  05:35:00     -134.773      -70.999       -3.457       64.303       47.849       34.212     4134.932     2289.501     1170.481        1.540        0.380      152.330       30.044        0.039      342.986       18.779      861.231
07/10/2014  05:36:00     -152.618      -96.531        6.077       54.212       60.793       31.976     2938.913     3695.766     1022.449        2.015        0.383      180.584       29.069        0.026      342.954       18.723      861.233
07/10/2014  05:37:00     -148.057     -112.252       -8.468       44.167       49.024       32.583     1950.768     2403.341     1061.657        2.000        0.271      185.799       25.326        0.019      343.010       18.819      861.237
07/10/2014  05:38:00     -141.543     -109.218       -2.443       65.111       49.999       29.364     4239.441     2499.939      862.264        1.978        0.380      178.782       27.108        0.023      343.003       18.806      861.243
07/10/2014  05:39:00     -113.817      -57.052        3.848       54.832       49.638       30.300     3006.548     2463.930      918.104        1.131        0.319      127.315       31.140        0.060      342.986       18.779      861.247
07/10/2014  05:40:00      -92.900      -73.588        7.553       61.327       48.875       32.334     3761.007     2388.720     1045.477        1.065        0.360      118.514       28.521        0.058      343.011       18.822      861.254
07/10/2014  05:41:00      -88.209      -60.244        7.805       55.621       33.922       29.880     3093.644     1150.727      892.834        0.830        0.257      106.818       26.743        0.063      342.985       18.777      861.275
07/10/2014  05:42:00      -69.147      -82.938        1.237       44.167       42.652       23.942     1950.717     1819.168      573.214        0.800        0.217      107.982       15.219        0.020      343.007       18.814      861.304
07/10/2014  05:43:00      -45.804     -110.364       10.935       51.139       63.604       34.584     2615.165     4045.518     1196.022        1.113        0.393      119.492       33.662        0.079      343.071       18.924      861.323
07/10/2014  05:44:00      -62.625     -113.737        3.158       54.127       63.075       36.611     2929.726     3978.478     1340.372        1.256        0.412      129.839       36.511        0.079      342.984       18.776      861.334
07/10/2014  05:45:00      -45.857     -124.894        4.695       40.502       45.107       32.648     1640.397     2034.651     1065.863        1.123        0.237      133.046       31.458        0.056      342.963       18.742      861.351
07/10/2014  05:46:00      -13.404      -33.956        3.739       28.209       25.919       24.559      795.762      671.776      603.145        0.171        0.104       36.506       18.070        0.245      342.957       18.732      861.353
07/10/2014  05:47:00       -0.723       26.756       10.820       19.731       22.380       17.894      389.305      500.880      320.198        0.102        0.061       26.766       13.836        0.267      342.835       18.523      861.346
07/10/2014  05:48:00       13.567       60.070      -10.112       19.951       15.963       12.229      398.055      254.828      149.542        0.235        0.040       61.583        9.028        0.021      342.887       18.611      861.350
07/10/2014  05:49:00       13.690       51.630      -14.624       18.622       14.394       13.060      346.779      207.176      170.574        0.190        0.036       53.414        7.111        0.018      342.914       18.659      861.367
07/10/2014  05:50:00       11.557       50.212       -4.895       11.753       10.312        7.999      138.122      106.347       63.985        0.149        0.015       51.525        5.369        0.011      342.809       18.482      861.372
07/10/2014  05:51:00       -5.161       29.213       -6.814        9.858       13.465        6.228       97.187      181.300       38.792        0.062        0.016       29.665        4.435        0.022      342.748       18.373      861.381
07/10/2014  05:52:00       -2.534       24.340        0.145       10.814        9.754        7.684      116.933       95.135       59.047        0.043        0.014       24.472        6.709        0.075      342.730       18.349      861.393
07/10/2014  05:53:00        0.238       -3.783       10.892        8.362       10.536        7.021       69.930      111.016       49.299        0.018        0.012        3.791        5.662        2.231      342.755       18.386      861.411
07/10/2014  05:54:00      -20.947      -14.348       -0.588        8.482       10.891       13.690       71.949      118.603      187.426        0.051        0.019       25.389        9.223        0.132      342.859       18.564      861.416
07/10/2014  05:55:00      -46.938       11.956        2.588       34.298       18.304       19.492     1176.319      335.023      379.931        0.212        0.095       48.436       19.040        0.155      342.937       18.697      861.413
07/10/2014  05:56:00      -92.765        8.200       -4.419       15.760       14.989       11.065      248.363      224.680      122.429        0.464        0.030       93.126        5.132        0.003      342.976       18.762      861.412
07/10/2014  05:57:00      -58.929      -15.613       -0.383       37.292       27.654       11.515     1390.679      764.767      132.591        0.300        0.114       60.963        9.261        0.023      343.081       18.941      861.413
07/10/2014  05:58:00      -52.028      -32.145       -6.996       28.848       20.245       12.782      832.186      409.843      163.384        0.260        0.070       61.158        8.669        0.020      343.091       18.957      861.420
07/10/2014  05:59:00      -35.846      -12.371        5.987       28.365       22.335       14.864      804.573      498.861      220.941        0.150        0.076       37.921       12.195        0.103      343.044       18.879      861.444
07/10/2014  06:00:00      -45.786      -18.311       -1.657       17.353       10.929        9.063      301.139      119.450       82.143        0.147        0.025       49.312        7.279        0.022      343.061       18.908      861.464
07/10/2014  06:01:00       -2.696      -11.868        3.633        8.277       10.132        8.593       68.517      102.662       73.848        0.020        0.012       12.170        3.106        0.065      343.086       18.951      861.488
07/10/2014  06:02:00       -8.257       -9.918       -5.138        8.154        8.991        8.728       66.490       80.843       76.185        0.021        0.011       12.905        4.992        0.150      343.154       19.065      861.509
07/10/2014  06:03:00      -28.962       17.366       -1.915       16.333       18.246        7.296      266.783      332.921       53.237        0.090        0.033       33.769        4.161        0.015      343.063       18.911      861.533
07/10/2014  06:04:00      -42.964       58.138      -11.414       19.780       14.376       13.899      391.252      206.670      193.173        0.307        0.040       72.291       10.406        0.021      342.982       18.773      861.548
07/10/2014  06:05:00       11.399       41.225       10.847       16.828       11.526       13.798      283.190      132.843      190.389        0.128        0.030       42.772       12.689        0.088      342.986       18.780      861.562
07/10/2014  06:06:00       49.747       39.490       26.212       19.000        8.657       11.731      361.019       74.948      137.623        0.265        0.029       63.515        8.692        0.019      342.887       18.611      861.567
07/10/2014  06:07:00       37.878       21.527        3.591       20.128       21.099       12.752      405.153      445.164      162.624        0.146        0.051       43.567        8.211        0.036      342.846       18.543      861.577
07/10/2014  06:08:00       26.379      -16.341        5.107       21.554       14.118       10.548      464.564      199.308      111.250        0.088        0.039       31.030        5.103        0.027      342.922       18.671      861.590
07/10/2014  06:09:00       17.861       13.331       22.171       17.847       24.305       19.994      318.514      590.736      399.756        0.115        0.065       22.288       20.643        0.858      342.982       18.773      861.600
07/10/2014  06:10:00       14.478       27.360       33.704       18.108       18.702       16.919      327.883      349.749      286.267        0.153        0.048       30.955       14.176        0.210      343.017       18.833      861.608
07/10/2014  06:11:00        8.300       35.481       55.522       19.073       24.398        7.350      363.760      595.265       54.018        0.271        0.051       36.439        6.985        0.037      343.269       19.261      861.610
07/10/2014  06:12:00       12.376       32.428       37.633       15.550       19.738       10.593      241.800      389.579      112.211        0.168        0.037       34.709        8.205        0.056      343.281       19.282      861.615
07/10/2014  06:13:00        9.169        6.068       17.423       12.530       27.330       13.149      156.996      746.948      172.895        0.075        0.054       10.995       15.942        2.102      343.333       19.372      861.620
07/10/2014  06:14:00       -3.985       -6.031       -0.158       20.403       15.242        9.695      416.278      232.308       93.984        0.040        0.037        7.229       10.363        2.055      343.382       19.453      861.617
07/10/2014  06:15:00      -33.533       16.561       -2.284       10.570       11.110        8.521      111.716      123.428       72.611        0.086        0.015       37.399        7.276        0.038      343.225       19.187      861.617
07/10/2014  06:16:00       -8.013       -2.706        6.367        8.806        7.444        8.860       77.551       55.411       78.508        0.016        0.011        8.458        4.724        0.312      343.447       19.563      861.621
07/10/2014  06:17:00      -21.781       -3.241        0.800        5.041        3.018        5.128       25.407        9.106       26.294        0.027        0.003       22.021        2.205        0.010      343.325       19.360      861.632
07/10/2014  06:18:00       -5.974       -4.926        2.243       16.220       10.146        8.698      263.092      102.943       75.657        0.025        0.022        7.743        9.114        1.386      343.459       19.585      861.623
07/10/2014  06:19:00       28.593       47.417       -4.115       17.159       18.230       13.618      294.417      332.350      185.456        0.195        0.041       55.371       10.399        0.035      343.136       19.037      861.613
07/10/2014  06:20:00       20.364       34.301       -0.903       11.570       11.819        9.690      133.859      139.680       93.890        0.098        0.018       39.891        7.140        0.032      343.138       19.039      861.588
07/10/2014  06:21:00       33.556       21.236        2.955       17.310       17.907       12.030      299.624      320.656      144.721        0.118        0.038       39.711       10.976        0.076      343.118       19.005      861.588
07/10/2014  06:22:00       52.529       26.487        4.827       21.822       20.441       14.198      476.192      417.838      201.584        0.229        0.055       58.829       12.061        0.042      343.127       19.018      861.593
07/10/2014  06:23:00       47.830       32.238        5.929       16.464       13.206       14.454      271.056      174.394      208.932        0.201        0.033       57.680        8.244        0.020      343.150       19.060      861.598
07/10/2014  06:24:00       45.695       23.276        5.973       21.831       16.247       17.521      476.611      263.958      306.982        0.186        0.052       51.281       10.373        0.041      343.269       19.263      861.593
07/10/2014  06:25:00       59.631       23.652       -1.601       23.096       13.772       11.807      533.439      189.665      139.400        0.249        0.043       64.151        3.977        0.004      343.127       19.019      861.615
07/10/2014  06:26:00       38.902        0.350       -2.598       12.824       14.881       13.023      164.460      221.441      169.608        0.104        0.028       38.903        6.988        0.032      343.134       19.030      861.635
07/10/2014  06:27:00       21.041       10.267        5.082       10.863        9.116        8.356      118.013       83.100       69.829        0.042        0.014       23.412        3.690        0.025      343.195       19.137      861.653
07/10/2014  06:28:00       26.609       17.480        3.328       14.373       11.564       11.710      206.580      133.721      137.130        0.075        0.024       31.837        7.156        0.051      343.143       19.048      861.676
07/10/2014  06:29:00       17.113        9.415        4.280        9.823        8.656        8.465       96.496       74.919       71.653        0.032        0.012       19.532        4.868        0.062      343.204       19.151      861.688
07/10/2014  06:30:00       25.719       16.578        3.584       13.436       10.116       11.253      180.518      102.339      126.640        0.068        0.020       30.599        6.984        0.052      343.226       19.189      861.703
07/10/2014  06:31:00       -1.411       13.467        2.424       10.150       11.164        9.008      103.028      124.640       81.142        0.025        0.015       13.541        4.242        0.098      343.458       19.585      861.717
07/10/2014  06:32:00       -1.760       24.505        5.116        8.037       10.583       12.446       64.592      111.993      154.894        0.048        0.017       24.568        7.193        0.086      343.397       19.480      861.719
07/10/2014  06:33:00      -36.297       15.411        9.032       12.504        4.741        9.083      156.361       22.481       82.495        0.095        0.013       39.433        8.121        0.042      343.241       19.213      861.733
07/10/2014  06:34:00      -17.945        4.136       -3.964       10.665        4.619        5.442      113.748       21.337       29.621        0.026        0.008       18.415        4.633        0.063      343.337       19.379      861.742
07/10/2014  06:35:00      -13.036        9.165        6.049        8.068        9.753        8.145       65.090       95.128       66.337        0.026        0.011       15.935        4.020        0.064      343.510       19.671      861.760
07/10/2014  06:36:00      -36.255       -2.096       -6.284        6.946        9.602        6.567       48.250       92.201       43.122        0.077        0.009       36.315        1.337        0.001      343.318       19.346      861.770
07/10/2014  06:37:00      -28.690        0.497       -7.215        6.812       10.042        6.341       46.403      100.851       40.207        0.053        0.009       28.694        4.916        0.029      343.301       19.317      861.787
07/10/2014  06:38:00      -14.548       -2.995        7.368       15.902        7.214       10.679      252.889       52.044      114.034        0.035        0.021       14.853       10.261        0.477      343.525       19.698      861.770
07/10/2014  06:39:00       -2.551        8.233        1.331       20.496        9.915        7.175      420.073       98.310       51.475        0.032        0.028        8.619        4.202        0.238      343.593       19.813      861.773
07/10/2014  06:40:00       -9.201       21.639        2.648       18.354       18.588       11.376      336.888      345.510      129.407        0.069        0.041       23.514        9.197        0.153      343.647       19.905      861.768
07/10/2014  06:41:00      -22.848       20.411        9.477       14.532       10.490       12.929      211.188      110.050      167.164        0.076        0.024       30.637       10.797        0.124      343.740       20.065      861.782
07/10/2014  06:42:00       32.747       32.352        7.063       17.691       18.343       12.083      312.954      336.483      146.001        0.148        0.040       46.033        7.753        0.028      343.533       19.711      861.776
07/10/2014  06:43:00       23.866       36.540        0.671       17.560       19.134       17.187      308.352      366.127      295.408        0.144        0.048       43.643       12.281        0.079      343.645       19.903      861.785
07/10/2014  06:44:00       37.174       41.979        2.796       32.529       26.369       16.678     1058.110      695.305      278.162        0.259        0.102       56.073        9.737        0.030      343.652       19.915      861.773
07/10/2014  06:45:00       21.961       31.368        8.707       30.486       20.768       19.038      929.402      431.298      362.454        0.163        0.086       38.291       14.927        0.152      343.721       20.032      861.777
07/10/2014  06:46:00        7.779       86.823      -13.231       14.802       32.597       14.146      219.105     1062.578      200.110        0.463        0.074       87.171       16.441        0.036      343.650       19.910      861.773
07/10/2014  06:47:00      -18.663       92.338       -7.384       11.082       14.326        9.554      122.814      205.236       91.286        0.467        0.021       94.205        7.715        0.007      343.554       19.748      861.789
07/10/2014  06:48:00      -17.103       80.296       -3.482       16.699       22.543       18.591      278.869      508.196      345.629        0.394        0.057       82.097        9.696        0.014      343.757       20.093      861.788
07/10/2014  06:49:00      -13.605       82.253       -2.533       16.908       20.781       17.719      285.897      431.835      313.963        0.399        0.052       83.371       11.273        0.018      343.749       20.080      861.781
07/10/2014  06:50:00      -11.267       67.993       -4.193       17.120       29.047       18.113      293.078      843.757      328.097        0.312        0.073       68.920       19.083        0.077      343.730       20.047      861.750
07/10/2014  06:51:00      -13.939      113.063      -10.744       11.967       17.288       11.379      143.214      298.869      129.480        0.683        0.029      113.919        8.239        0.005      343.719       20.029      861.741
07/10/2014  06:52:00      -14.040      100.699       -9.875       10.130       13.034        9.515      102.623      169.874       90.540        0.540        0.018      101.673        6.435        0.004      343.775       20.125      861.728
07/10/2014  06:53:00      -29.601       41.695        1.643       20.373       35.309       14.941      415.046     1246.717      223.228        0.225        0.094       51.134        5.392        0.011      343.892       20.324      861.720
07/10/2014  06:54:00      -34.097       23.821        1.530       20.468       23.804       17.543      418.952      566.608      307.764        0.151        0.065       41.594       10.802        0.067      343.824       20.207      861.713
07/10/2014  06:55:00      -49.948       37.715       -4.919       18.429       20.362       12.587      339.638      414.591      158.444        0.243        0.046       62.588       11.642        0.035      343.836       20.230      861.705
07/10/2014  06:56:00      -41.835       40.950      -10.312       18.623       20.697       11.056      346.809      428.351      122.230        0.222        0.045       58.541        8.499        0.021      343.797       20.162      861.720
07/10/2014  06:57:00      -30.921       19.845        0.105       15.409       12.602       12.638      237.441      158.810      159.726        0.095        0.028       36.741        5.686        0.024      343.963       20.445      861.729
07/10/2014  06:58:00      -36.951       16.302      -13.616       20.754       17.630       15.859      430.741      310.818      251.508        0.140        0.050       40.387       15.390        0.145      343.969       20.456      861.759
07/10/2014  06:59:00      -10.155       -5.545       -6.038        8.988       10.052        7.562       80.785      101.047       57.176        0.020        0.012       11.570        5.859        0.256      344.070       20.628      861.781
07/10/2014  07:00:00        2.681      -26.098       -1.400        8.232       13.317       13.603       67.772      177.343      185.049        0.056        0.022       26.235        9.399        0.128      344.031       20.560      861.819
07/10/2014  07:01:00      -14.173      -20.748        1.048       20.636       17.014       14.583      425.835      289.468      212.678        0.078        0.046       25.127        9.787        0.152      344.056       20.603      861.837
07/10/2014  07:02:00      -33.076        8.127       17.780        7.950        9.331        7.081       63.205       87.064       50.145        0.084        0.010       34.060        4.742        0.019      344.076       20.638      861.860
07/10/2014  07:03:00      -16.257        0.863       22.792       14.472       10.133       10.383      209.444      102.674      107.812        0.060        0.021       16.280       10.115        0.386      344.465       21.303      861.871
07/10/2014  07:04:00        1.466       17.542       37.804       19.847       16.308       15.356      393.913      265.943      235.799        0.132        0.045       17.603        8.423        0.229      344.551       21.450      861.885
07/10/2014  07:05:00       -5.516       19.154       43.369        7.039       15.780        8.451       49.544      249.023       71.413        0.132        0.018       19.932        8.393        0.177      344.760       21.807      861.895
07/10/2014  07:06:00      -19.516      -21.789       17.721       22.343       21.125       18.377      499.229      446.258      337.714        0.123        0.064       29.251       18.662        0.407      344.431       21.245      861.909
07/10/2014  07:07:00      -20.161        2.930       16.023       11.171        9.599        8.263      124.794       92.143       68.277        0.048        0.014       20.372        6.048        0.088      344.478       21.325      861.926
07/10/2014  07:08:00      -24.728       14.423        7.366       10.933       10.622       12.794      119.535      112.825      163.679        0.063        0.020       28.627        8.300        0.084      344.378       21.155      861.935
07/10/2014  07:09:00       -6.141        5.815       37.920       10.986       11.257        8.213      120.699      126.729       67.452        0.091        0.016        8.457        4.588        0.294      345.040       22.288      861.945
07/10/2014  07:10:00       -8.310       33.898       56.225        8.616       25.960       13.689       74.244      673.920      187.389        0.266        0.047       34.902       14.933        0.183      344.759       21.807      861.958
07/10/2014  07:11:00       -2.127       21.844       51.301       17.334       24.490       11.976      300.473      599.770      143.420        0.208        0.052       21.947        8.065        0.135      344.792       21.864      861.964
07/10/2014  07:12:00        9.336       24.194       59.209       23.293       23.693       16.623      542.548      561.351      276.321        0.278        0.069       25.933       14.835        0.327      344.657       21.632      861.970
07/10/2014  07:13:00       12.161      -13.621       29.776       21.480       40.400       28.063      461.380     1632.185      787.557        0.205        0.144       18.260       28.105        2.369      344.633       21.590      861.987
07/10/2014  07:14:00       17.434       -9.519       24.479       22.686       19.717       21.626      514.666      388.742      467.687        0.118        0.069       19.863       17.130        0.744      344.804       21.881      861.992
07/10/2014  07:15:00        3.572       11.775       44.715       26.720       23.020       18.749      713.971      529.933      351.526        0.187        0.080       12.305        7.006        0.324      344.956       22.144      862.006
07/10/2014  07:16:00        4.393       54.270       64.077       25.314       31.635       24.068      640.816     1000.775      579.258        0.465        0.111       54.448       15.129        0.077      344.577       21.495      862.010
07/10/2014  07:17:00       20.401       34.540       38.892       31.189       38.590       24.418      972.779     1489.181      596.244        0.309        0.153       40.115       16.186        0.163      344.509       21.380      862.019
07/10/2014  07:18:00       -5.472       17.648       49.865       19.573       39.368       25.288      383.096     1549.864      639.484        0.270        0.129       18.476       23.750        1.652      344.602       21.537      862.030
07/10/2014  07:19:00        9.668      -41.223       12.345       19.220       34.193       20.389      369.416     1169.185      415.720        0.195        0.098       42.341       17.304        0.167      344.622       21.570      862.038
07/10/2014  07:20:00      -23.254      -29.005        1.421       18.125       16.705       13.575      328.523      279.047      184.271        0.109        0.040       37.176       10.713        0.083      344.383       21.160      862.048
07/10/2014  07:21:00       -1.607       -1.612       24.473       20.752       25.681       18.095      430.631      659.535      327.443        0.101        0.071        2.276       20.126       78.178      344.726       21.749      862.042
07/10/2014  07:22:00       -7.183       31.145       55.120       12.618       18.833       13.687      159.224      354.668      187.343        0.238        0.035       31.962       12.970        0.165      344.969       22.167      862.046
07/10/2014  07:23:00        7.689       27.687       57.117       20.799       19.915       12.177      432.593      396.615      148.284        0.253        0.049       28.735        9.607        0.112      344.676       21.665      862.036
07/10/2014  07:24:00       14.024       18.168       31.283       18.404       16.865       22.998      338.713      284.442      528.919        0.133        0.058       22.951        5.597        0.059      344.652       21.623      862.046
07/10/2014  07:25:00        2.226      -18.923       15.234       10.821       42.510       14.117      117.096     1807.115      199.297        0.136        0.106       19.054       15.311        0.646      344.700       21.704      862.049
07/10/2014  07:26:00       13.254        8.850       22.110       24.275       41.530       15.413      589.299     1724.762      237.545        0.165        0.128       15.937       15.657        0.965      344.792       21.862      862.062
07/10/2014  07:27:00       55.036       46.400       28.831       44.842       24.602       27.449     2010.827      605.277      753.464        0.469        0.168       71.986       29.479        0.168      344.646       21.612      862.073
07/10/2014  07:28:00       81.577       37.497        4.632       41.575       34.971       23.976     1728.453     1222.939      574.857        0.580        0.176       89.783        8.464        0.009      344.515       21.387      862.089
07/10/2014  07:29:00       67.410       45.249        6.453       36.070       34.298       31.047     1301.037     1176.322      963.925        0.504        0.172       81.189       19.428        0.057      344.479       21.328      862.104
07/10/2014  07:30:00       64.634       47.858       21.012       38.238       25.716       27.280     1462.173      661.313      744.194        0.489        0.143       80.424       20.866        0.067      344.640       21.603      862.122
07/10/2014  07:31:00       45.066       59.053        3.992       28.211       34.381       26.765      795.839     1182.047      716.376        0.411        0.135       74.285       20.080        0.073      344.579       21.497      862.132
07/10/2014  07:32:00       37.596       60.519       -0.645       29.498       25.029       25.371      870.127      626.427      643.706        0.361        0.107       71.246       18.293        0.066      344.632       21.589      862.127
07/10/2014  07:33:00       44.036       56.399       -2.182       25.296       21.032       21.380      639.902      442.364      457.113        0.333        0.077       71.554       13.122        0.034      344.410       21.208      862.130
07/10/2014  07:34:00       14.262       14.608        6.676       13.212       23.329       16.493      174.562      544.239      272.003        0.073        0.050       20.416       17.283        0.717      344.618       21.565      862.120
07/10/2014  07:35:00       27.359       47.121        1.239       17.674       14.902       15.203      312.355      222.080      231.130        0.187        0.038       54.488       11.308        0.043      344.421       21.229      862.119
07/10/2014  07:36:00        0.418       28.923        8.636       18.860       23.459       22.967      355.715      550.333      527.499        0.117        0.072       28.926       14.183        0.240      344.922       22.086      862.111
07/10/2014  07:37:00       36.166       20.865       20.536       23.358       20.483       23.551      545.602      419.554      554.644        0.184        0.076       41.753       17.251        0.171      344.913       22.069      862.108
07/10/2014  07:38:00       45.486       20.758       15.723       21.625       14.301       15.871      467.641      204.527      251.879        0.184        0.046       49.999       12.840        0.066      344.828       21.924      862.109
07/10/2014  07:39:00       33.663       51.370        2.300       24.329       25.287       14.025      591.905      639.455      196.702        0.260        0.071       61.418       11.570        0.035      344.736       21.766      862.106
07/10/2014  07:40:00       22.532       74.682      -12.936       18.238       16.258       16.722      332.625      264.318      279.639        0.356        0.044       78.007        7.219        0.009      344.445       21.266      862.114
07/10/2014  07:41:00       26.675       54.971        1.621       21.499       25.986       20.054      462.203      675.254      402.155        0.264        0.077       61.101       19.347        0.100      344.677       21.666      862.108
07/10/2014  07:42:00       38.519       20.300        5.922       16.956       12.837       16.941      287.509      164.781      286.991        0.133        0.037       43.541        5.294        0.015      344.739       21.772      862.106
07/10/2014  07:43:00       26.941       23.703       19.175       22.521       15.063       13.438      507.207      226.889      180.593        0.128        0.046       35.884       11.009        0.094      345.064       22.327      862.090
07/10/2014  07:44:00       12.046       31.194       14.930       22.589       24.537       21.167      510.284      602.067      448.031        0.145        0.078       33.439       19.857        0.353      345.242       22.633      862.082
07/10/2014  07:45:00        3.878       17.670       43.958       16.815       25.965       15.094      282.728      674.192      227.826        0.172        0.059       18.090       14.294        0.624      345.602       23.252      862.082
07/10/2014  07:46:00       19.781        4.056       16.194       19.225       16.628       19.872      369.607      276.497      394.891        0.086        0.052       20.193       11.758        0.339      345.239       22.628      862.075
07/10/2014  07:47:00        7.156       -1.436       19.404       15.967        8.606       12.322      254.948       74.071      151.844        0.046        0.024        7.299        9.708        1.769      345.797       23.585      862.075
07/10/2014  07:48:00      -10.063       -4.778       24.759       11.048       11.426       16.581      122.059      130.560      274.932        0.063        0.026       11.140       10.004        0.807      345.652       23.337      862.062
07/10/2014  07:49:00      -10.903        1.577       33.150       12.664       14.333       17.088      160.368      205.434      292.009        0.094        0.033       11.017       10.831        0.967      345.776       23.548      862.051
07/10/2014  07:50:00      -19.718       -4.868        9.624       13.331        9.721       12.677      177.707       94.502      160.700        0.047        0.022       20.310       10.628        0.274      345.147       22.470      862.044
07/10/2014  07:51:00      -45.165       -1.920       -1.065       16.286       12.476        8.213      265.239      155.639       67.453        0.127        0.024       45.205       10.027        0.049      344.753       21.795      862.031
07/10/2014  07:52:00      -48.401      -27.342        0.775       10.880       12.665        7.049      118.378      160.400       49.692        0.171        0.016       55.590        3.556        0.004      344.822       21.914      862.030
07/10/2014  07:53:00      -35.235      -16.595        1.110        5.184       15.868        6.399       26.874      251.807       40.946        0.092        0.016       38.947        3.211        0.007      344.861       21.980      862.010
07/10/2014  07:54:00      -28.092       -0.820       -2.417        6.604        6.738        6.059       43.609       45.401       36.715        0.046        0.006       28.104        4.211        0.022      344.904       22.054      862.010
07/10/2014  07:55:00      -19.356        1.730       -0.792        6.288        4.238        6.032       39.541       17.962       36.383        0.024        0.005       19.433        3.426        0.031      344.982       22.189      862.009
07/10/2014  07:56:00      -16.662       -0.572       -6.194        6.953        9.371        7.279       48.339       87.820       52.991        0.025        0.009       16.671        5.646        0.115      345.118       22.421      862.005
07/10/2014  07:57:00      -23.257       -0.459       -9.875        7.972        6.891       11.677       63.550       47.482      136.345        0.044        0.012       23.261        7.758        0.111      345.151       22.477      862.008
07/10/2014  07:58:00      -28.464        2.544       19.020       20.628       12.760       15.391      425.517      162.818      236.890        0.100        0.041       28.577       13.826        0.234      345.551       23.163      862.010
07/10/2014  07:59:00       12.796       -1.508       32.941       31.374       36.503       18.300      984.303     1332.450      334.889        0.195        0.133       12.884       15.322        1.414      345.789       23.571      862.026
07/10/2014  08:00:00       39.197       44.450       15.932       40.148       27.049       27.056     1611.827      731.622      732.011        0.342        0.154       59.264       16.854        0.081      345.383       22.874      862.019
07/10/2014  08:01:00       72.638       47.187       26.522       38.956       32.593       32.276     1517.585     1062.274     1041.771        0.591        0.181       86.620       19.923        0.053      345.328       22.779      862.026
07/10/2014  08:02:00       55.836       51.486       16.086       34.836       32.516       28.649     1213.516     1057.273      820.764        0.456        0.155       75.950       12.910        0.029      345.421       22.939      862.018
07/10/2014  08:03:00       46.907       29.292       11.040       30.592       27.893       27.919      935.898      778.015      779.453        0.284        0.125       55.302       14.938        0.073      345.603       23.252      862.018
07/10/2014  08:04:00       59.870       68.912        5.731       34.819       33.975       26.326     1212.331     1154.270      693.069        0.571        0.153       91.287       18.972        0.043      345.530       23.127      862.008
07/10/2014  08:05:00       51.403       83.532        0.747       33.589       40.300       27.683     1128.254     1624.121      766.339        0.657        0.176       98.081       19.723        0.040      345.468       23.020      862.007
07/10/2014  08:06:00       32.712       43.454        3.266       27.029       32.293       18.641      730.561     1042.814      347.498        0.254        0.106       54.390       12.673        0.054      345.670       23.366      862.010
07/10/2014  08:07:00       -4.834       62.780        8.748       19.250       36.315       25.814      370.562     1318.744      666.353        0.320        0.118       62.965       20.633        0.107      345.967       23.877      862.001
07/10/2014  08:08:00       -5.580       33.974       17.169       18.098       36.709       22.155      327.538     1347.525      490.848        0.182        0.108       34.429       21.630        0.395      346.073       24.059      862.004
07/10/2014  08:09:00      -19.018       60.202       17.518       16.050       37.636       24.804      257.616     1416.493      615.246        0.329        0.114       63.134       21.719        0.118      346.143       24.179      861.996
07/10/2014  08:10:00       -5.356       38.665       11.473       17.305       27.395       22.348      299.449      750.507      499.427        0.160        0.077       39.034       17.946        0.211      346.259       24.378      861.989
07/10/2014  08:11:00      -20.776       24.610        3.839       23.811       24.198       23.620      566.962      585.540      557.902        0.138        0.086       32.207       15.351        0.227      345.708       23.432      861.992
07/10/2014  08:12:00       -8.243        6.599       23.764       11.944       13.762       14.488      142.652      189.398      209.912        0.061        0.027       10.559        8.536        0.654      346.316       24.478      861.994
07/10/2014  08:13:00       27.016       38.428       43.730       36.615       27.693       19.967     1340.624      766.904      398.683        0.331        0.125       46.974       16.808        0.128      346.041       24.004      861.995
07/10/2014  08:14:00        7.952       21.601       12.605       28.158       19.339       17.600      792.864      374.012      309.767        0.108        0.074       23.018       12.198        0.281      345.816       23.617      862.000
07/10/2014  08:15:00       71.239       50.938       31.326       61.534       31.297       30.392     3786.387      979.520      923.644        0.717        0.284       87.577        9.532        0.012      345.729       23.468      861.998
07/10/2014  08:16:00       82.827       52.555       14.217       26.869       22.238       24.555      721.921      494.515      602.958        0.582        0.091       98.093       17.267        0.031      345.432       22.958      861.996
07/10/2014  08:17:00       64.735       57.444        3.177       44.449       31.034       32.806     1975.687      963.116     1076.233        0.576        0.201       86.547       21.796        0.063      345.646       23.324      861.986
07/10/2014  08:18:00       90.528       70.556       -2.989       22.181       24.840       29.745      491.982      617.035      884.774        0.759        0.100      114.775       12.698        0.012      345.494       23.064      861.974
07/10/2014  08:19:00       47.793       40.658       17.796       23.810       22.073       29.075      566.904      487.225      845.348        0.308        0.095       62.748        8.715        0.019      345.812       23.613      861.970
07/10/2014  08:20:00        5.517       24.731       14.533       16.470       32.497       17.217      271.266     1056.050      296.422        0.124        0.081       25.339        5.212        0.042      346.104       24.111      861.963
07/10/2014  08:21:00      -16.757       11.772       15.886       17.776       17.168       18.204      315.999      294.752      331.389        0.081        0.047       20.479       14.526        0.503      346.145       24.181      861.961
07/10/2014  08:22:00       11.712       18.347       24.039       17.607       18.544       15.057      310.010      343.884      226.707        0.097        0.044       21.767       12.294        0.319      346.311       24.469      861.957
07/10/2014  08:23:00      -40.783       20.885       10.982       19.019       16.723       15.377      361.725      279.655      236.462        0.155        0.044       45.819       14.203        0.096      345.706       23.429      861.952
07/10/2014  08:24:00      -24.186       26.161        3.666       17.825       19.935       25.024      317.747      397.386      626.191        0.131        0.067       35.628       18.187        0.261      346.101       24.108      861.949
07/10/2014  08:25:00      -11.483        5.636       27.424       14.993        9.628       12.048      224.798       92.708      145.162        0.069        0.023       12.791        7.193        0.316      346.435       24.681      861.945
07/10/2014  08:26:00       -1.909       10.342       26.879       19.235       17.260       12.438      369.991      297.918      154.695        0.083        0.041       10.516       10.957        1.086      346.770       25.259      861.942
07/10/2014  08:27:00       -2.171       15.471        9.988       19.983       26.030       27.761      399.339      677.587      770.662        0.110        0.092       15.623       19.015        1.481      346.516       24.821      861.939
07/10/2014  08:28:00       33.974       33.151       21.284       25.675       21.703       19.603      659.207      471.023      384.275        0.211        0.076       47.468       17.599        0.137      346.340       24.516      861.930
07/10/2014  08:29:00       11.603        4.257       20.068       19.559       22.336       22.665      382.555      498.896      513.685        0.098        0.070       12.360        8.090        0.428      346.690       25.120      861.933
07/10/2014  08:30:00        4.808       29.611       34.765       28.780       19.536       17.227      828.310      381.642      296.770        0.181        0.075       29.998        6.413        0.046      346.625       25.007      861.913
07/10/2014  08:31:00       52.197       51.981        3.000       28.044       18.906       24.676      786.438      357.452      608.912        0.359        0.088       73.665       11.003        0.022      346.046       24.011      861.911
07/10/2014  08:32:00       61.330       37.588        6.101       24.296       24.285       29.230      590.297      589.766      854.364        0.362        0.102       71.932       20.636        0.082      346.128       24.153      861.903
07/10/2014  08:33:00       13.165       13.597       -6.724       14.186       28.316       19.378      201.236      801.796      375.504        0.089        0.069       18.926       16.133        0.727      346.154       24.199      861.892
07/10/2014  08:34:00       20.902       12.800       11.522       16.933       23.120       15.907      286.712      534.546      253.044        0.090        0.054       24.510        9.611        0.154      346.276       24.408      861.882
07/10/2014  08:35:00        8.488       27.326       21.149       29.483       17.165       18.916      869.262      294.637      357.823        0.139        0.076       28.614       12.443        0.189      346.621       25.000      861.867
07/10/2014  08:36:00       -7.650       74.855        1.400       26.286       47.131       25.970      690.968     2221.331      674.433        0.462        0.179       75.245       23.921        0.101      346.341       24.518      861.855
07/10/2014  08:37:00       -9.603       41.801        5.584       19.212       37.143       25.925      369.085     1379.571      672.131        0.215        0.121       42.889       24.092        0.316      346.533       24.850      861.855
07/10/2014  08:38:00       31.749       13.484       27.597       41.260       24.716       24.213     1702.377      610.869      586.265        0.242        0.145       34.494       10.252        0.088      346.532       24.849      861.850
07/10/2014  08:39:00       70.707       29.198       16.737       39.774       27.551       28.375     1581.971      759.060      805.120        0.464        0.157       76.499       16.277        0.045      346.258       24.377      861.857
07/10/2014  08:40:00       12.586       23.141       24.631       29.035       26.118       20.815      843.054      682.130      433.247        0.163        0.098       26.342       15.414        0.342      346.857       25.407      861.871
07/10/2014  08:41:00       47.303        5.736       29.591       34.567       64.041       29.047     1194.899     4101.211      843.730        0.464        0.307       47.649       19.829        0.173      346.634       25.024      861.883
07/10/2014  08:42:00       60.863       76.447       75.320       50.271       62.361       55.684     2527.141     3888.866     3100.748        1.237        0.476       97.716       42.725        0.191      346.372       24.572      861.912
07/10/2014  08:43:00       32.703       84.431       98.300       43.204       49.919       37.739     1866.603     2491.922     1424.252        1.182        0.289       90.543       31.285        0.119      346.487       24.771      861.934
07/10/2014  08:44:00       40.960       75.080      102.161       42.337       45.389       21.335     1792.458     2060.128      455.203        1.103        0.215       85.526       24.205        0.080      346.199       24.275      861.962
07/10/2014  08:45:00       44.488       11.638       53.460       38.488       57.913       32.787     1481.293     3353.947     1074.992        0.544        0.296       45.985       36.169        0.619      346.362       24.555      861.991
07/10/2014  08:46:00       47.532       81.431       60.649       39.279       43.306       43.476     1542.877     1875.399     1890.166        0.894        0.265       94.288       33.376        0.125      346.232       24.331      861.998
07/10/2014  08:47:00       28.447      -56.465        2.080       35.815       44.108       32.564     1282.740     1945.541     1060.415        0.414        0.214       63.226       17.257        0.074      346.545       24.871      862.018
07/10/2014  08:48:00       44.027      -35.419       14.006       36.869       52.901       35.325     1359.300     2798.493     1247.834        0.440        0.270       56.505       40.038        0.502      346.439       24.687      862.022
07/10/2014  08:49:00       26.780       54.739       50.891       42.676       34.084       28.117     1821.200     1161.730      790.554        0.504        0.189       60.938       26.702        0.192      347.006       25.665      862.019
07/10/2014  08:50:00       65.139       52.691       34.035       51.126       49.355       46.101     2613.903     2435.880     2125.303        0.768        0.359       83.782       29.800        0.127      346.824       25.349      862.011
07/10/2014  08:51:00       98.652       65.439       37.980       32.583       38.956       26.961     1061.668     1517.609      726.919        0.938        0.165      118.383       10.988        0.009      346.323       24.488      862.009
07/10/2014  08:52:00      108.920       83.557       36.720       22.684       21.553       27.496      514.582      464.524      756.016        1.096        0.087      137.278       18.873        0.019      346.086       24.079      862.012
07/10/2014  08:53:00       55.328       56.830      -11.993       38.951       27.120       24.706     1517.210      735.488      610.365        0.465        0.143       79.315       11.158        0.020      346.224       24.320      861.999
07/10/2014  08:54:00      -24.387       16.222       25.202       17.431       24.296       17.274      303.836      590.319      298.391        0.134        0.060       29.289        7.832        0.072      346.791       25.294      861.995
07/10/2014  08:55:00        5.862       37.921       14.199       37.400       54.796       22.257     1398.765     3002.605      495.371        0.328        0.245       38.371       14.548        0.144      346.772       25.261      861.981
07/10/2014  08:56:00       16.163       36.108       18.610       44.342       35.337       26.679     1966.184     1248.675      711.766        0.292        0.196       39.561       16.944        0.183      346.683       25.107      861.963
07/10/2014  08:57:00       -4.360       45.891      -10.287       37.303       39.080       18.885     1391.491     1527.277      356.649        0.275        0.164       46.097       16.040        0.121      346.359       24.549      861.938
07/10/2014  08:58:00       82.144       53.100       32.698       33.190       26.439       28.471     1101.605      699.003      810.601        0.662        0.131       97.813        7.868        0.006      346.517       24.822      861.912
07/10/2014  08:59:00       67.703       36.843       27.992       53.401       41.149       34.001     2851.637     1693.270     1156.095        0.621        0.285       77.079       28.628        0.138      346.862       25.417      861.875
07/10/2014  09:00:00      105.168       52.262       10.407       50.838       29.356       33.275     2584.513      861.799     1107.240        0.923        0.228      117.438       15.631        0.018      346.571       24.915      861.843
07/10/2014  09:01:00       25.301       38.787       15.925       44.962       27.648       25.321     2021.545      764.393      641.128        0.291        0.171       46.309       22.516        0.236      347.450       26.430      861.818
07/10/2014  09:02:00       -2.785       31.526       21.268       39.833       33.529       32.684     1586.683     1124.209     1068.230        0.262        0.189       31.649       22.421        0.502      347.121       25.860      861.797
07/10/2014  09:03:00       12.357       39.942       25.483       39.023       44.269       26.830     1522.812     1959.703      719.850        0.330        0.210       41.809       28.734        0.472      347.686       26.836      861.791
07/10/2014  09:04:00       88.344       63.891       16.348       54.657       38.309       35.257     2987.408     1467.559     1243.038        0.893        0.285      109.026       24.679        0.051      347.157       25.924      861.788
07/10/2014  09:05:00       57.966       48.208        3.353       54.909       49.319       29.547     3015.016     2432.371      873.002        0.601        0.316       75.393        8.810        0.014      346.785       25.283      861.778
07/10/2014  09:06:00      110.859       57.884       27.360       52.156       38.342       38.744     2720.218     1470.117     1501.133        1.104        0.285      125.061       32.255        0.067      346.803       25.313      861.771
07/10/2014  09:07:00       58.228       49.080       -0.739       50.831       38.982       37.623     2583.778     1519.601     1415.470        0.566        0.276       76.153       27.758        0.133      346.867       25.423      861.756
07/10/2014  09:08:00      157.097      102.387        2.074       61.722       44.704       37.745     3809.554     1998.491     1424.698        2.120        0.362      187.517       22.031        0.014      346.578       24.924      861.752
07/10/2014  09:09:00       99.384       75.602       10.549       56.263       49.891       42.399     3165.552     2489.159     1797.648        1.158        0.373      124.871       34.906        0.078      346.870       25.428      861.743
07/10/2014  09:10:00       39.310       93.001        0.556       35.689       61.858       30.885     1273.688     3826.411      953.913        0.812        0.303      100.968       26.037        0.067      346.744       25.211      861.748
07/10/2014  09:11:00      -12.269        8.739       22.116       20.065       15.977       16.266      402.602      255.261      264.577        0.082        0.046       15.063       10.561        0.492      347.240       26.067      861.728
07/10/2014  09:12:00      -25.170       82.656       -0.326       31.351       47.728       31.559      982.900     2277.918      995.943        0.586        0.213       86.403       29.291        0.115      347.114       25.849      861.713
07/10/2014  09:13:00      -23.901       91.852        5.250       22.675       35.552       29.499      514.177     1263.973      870.208        0.584        0.132       94.911       17.861        0.035      347.290       26.153      861.691
07/10/2014  09:14:00       16.887       34.351       11.217       19.648       30.974       23.823      386.027      959.376      567.533        0.175        0.096       38.277       13.035        0.116      347.042       25.726      861.669
07/10/2014  09:15:00      -90.103       -5.436        5.972       54.568       32.560       23.697     2977.679     1060.148      561.548        0.639        0.230       90.267       27.178        0.091      346.735       25.195      861.656
07/10/2014  09:16:00      -49.161       69.239      -11.372       56.296       61.889       23.091     3169.281     3830.286      533.184        0.744        0.377       84.916       18.145        0.046      346.768       25.255      861.642
07/10/2014  09:17:00      -19.774      131.272       -6.346       29.146       58.604       37.415      849.489     3434.481     1399.910        1.167        0.284      132.753       37.100        0.078      347.117       25.854      861.629
07/10/2014  09:18:00       87.118       50.552       20.671       53.380       35.219       39.439     2849.392     1240.391     1555.430        0.811        0.282      100.722       25.653        0.065      347.495       26.506      861.621
07/10/2014  09:19:00       32.236       41.391        4.829       39.761       25.154       22.011     1580.915      632.736      484.503        0.274        0.135       52.463       14.472        0.076      347.054       25.745      861.617
07/10/2014  09:20:00      -51.406       19.619       -3.584       19.848       20.880       20.028      393.951      435.987      401.138        0.214        0.062       55.022       13.219        0.058      346.990       25.635      861.599
07/10/2014  09:21:00       18.329       23.892       38.664       51.435       33.394       25.726     2645.570     1115.146      661.805        0.341        0.221       30.113       24.130        0.642      347.503       26.520      861.591
07/10/2014  09:22:00       54.278       57.099       10.886       33.633       25.913       20.660     1131.208      671.498      426.849        0.428        0.111       78.780       13.318        0.029      347.229       26.048      861.561
07/10/2014  09:23:00       49.907       44.851       22.221       56.092       45.215       30.747     3146.276     2044.367      945.382        0.557        0.307       67.099       15.818        0.056      347.551       26.603      861.550
07/10/2014  09:24:00        5.632       68.641      -11.482       39.571       65.378       23.338     1565.829     4274.234      544.651        0.563        0.319       68.872       22.905        0.111      347.162       25.931      861.538
07/10/2014  09:25:00      -38.112        4.083        5.428       14.000       19.041       14.906      196.007      362.543      222.179        0.114        0.039       38.330        6.688        0.030      347.034       25.712      861.534
07/10/2014  09:26:00      -18.366      -21.788       11.046       35.789       22.610       22.146     1280.862      511.204      490.427        0.161        0.114       28.496       20.529        0.519      347.421       26.379      861.507
07/10/2014  09:27:00        0.620      -54.314        0.926       16.025       21.971        9.961      256.791      482.736       99.223        0.189        0.042       54.317        6.206        0.013      346.927       25.526      861.503
07/10/2014  09:28:00      -10.022      -35.686        1.861       20.646       23.806       20.538      426.253      566.745      421.804        0.140        0.071       37.066       16.816        0.206      347.492       26.502      861.481
07/10/2014  09:29:00       -8.562        6.985       26.417       27.869       23.306       23.980      776.691      543.162      575.055        0.136        0.095       11.050       16.228        2.157      348.139       27.620      861.480
07/10/2014  09:30:00       -9.899      -19.863        8.001       14.988       18.656       15.745      224.648      348.031      247.890        0.069        0.041       22.193       12.493        0.317      347.749       26.945      861.464
07/10/2014  09:31:00      -16.544        5.121       31.049       22.921       30.437       25.486      525.361      926.398      649.514        0.168        0.105       17.318       20.959        1.465      348.338       27.961      861.452
07/10/2014  09:32:00      -24.621       -5.920       15.590       24.669       26.079       22.288      608.550      680.090      496.766        0.133        0.089       25.323       14.531        0.329      347.807       27.045      861.435
07/10/2014  09:33:00       -9.235       32.178       71.482       22.332       31.495       20.493      498.725      991.966      419.963        0.407        0.096       33.477       21.985        0.431      348.493       28.228      861.425
07/10/2014  09:34:00        7.272       27.787       46.898       28.640       33.306       26.334      820.242     1109.289      693.461        0.282        0.131       28.723       24.979        0.756      348.247       27.805      861.423
07/10/2014  09:35:00      -22.128      -14.419       15.913       23.900       27.407       21.966      571.205      751.128      482.518        0.138        0.090       26.412       18.909        0.513      347.997       27.372      861.421
07/10/2014  09:36:00      -10.144        3.172       45.797       17.755       27.708       20.320      315.226      767.724      412.907        0.185        0.075       10.628       17.357        2.667      348.890       28.917      861.430
07/10/2014  09:37:00       -7.475       24.883       65.357       34.680       39.784       19.338     1202.725     1582.795      373.942        0.405        0.158       25.981       17.045        0.430      348.713       28.610      861.426
07/10/2014  09:38:00        5.210       32.433       68.832       32.645       37.428       36.535     1065.680     1400.870     1334.779        0.481        0.190       32.849       26.100        0.631      348.542       28.314      861.426
07/10/2014  09:39:00       29.935       24.135       40.800       46.242       38.811       37.750     2138.289     1506.319     1425.053        0.411        0.253       38.453       33.618        0.764      347.995       27.369      861.444
07/10/2014  09:40:00       64.495       52.553       39.452       42.725       32.238       42.696     1825.404     1039.315     1822.966        0.658        0.234       83.195       29.496        0.126      347.885       27.180      861.439
07/10/2014  09:41:00       40.604       73.724       71.335       51.600       29.414       28.911     2662.539      865.164      835.866        0.827        0.218       84.166       19.435        0.053      347.916       27.232      861.437
07/10/2014  09:42:00        7.827       83.322      105.024       30.444       50.809       24.816      926.827     2581.511      615.821        1.108        0.206       83.689       22.932        0.075      347.967       27.320      861.431
07/10/2014  09:43:00       33.393       46.454       30.073       51.240       35.726       36.710     2625.525     1276.377     1347.597        0.471        0.262       57.211       23.675        0.171      347.656       26.783      861.442
07/10/2014  09:44:00       -4.616        1.568       12.885       26.668       37.574       20.457      711.163     1411.776      418.497        0.137        0.127        4.875       14.986        9.451      348.401       28.071      861.432
07/10/2014  09:45:00        7.051      -16.551       -1.732       39.602       40.731       27.573     1568.344     1658.994      760.246        0.216        0.199       17.990       18.054        1.007      348.206       27.734      861.431
07/10/2014  09:46:00        8.119        6.921       21.396       30.173       58.973       38.903      910.392     3477.856     1513.410        0.324        0.295       10.669       32.482        9.269      348.226       27.768      861.425
07/10/2014  09:47:00       50.087       72.261       33.356       30.217       26.077       34.771      913.078      680.002     1208.998        0.582        0.140       87.922       17.279        0.039      347.846       27.112      861.419
07/10/2014  09:48:00       19.277       36.543       16.999       28.720       30.192       23.761      824.864      911.556      564.586        0.215        0.115       41.316       22.819        0.305      348.399       28.067      861.413
07/10/2014  09:49:00       25.780       19.921       36.312       21.487       22.082       14.964      461.681      487.597      223.932        0.178        0.059       32.580        8.522        0.068      348.483       28.212      861.409
07/10/2014  09:50:00       21.618       29.232       55.472       49.078       55.231       50.138     2408.676     3050.442     2513.810        0.618        0.399       36.357       43.684        1.444      348.375       28.025      861.405
07/10/2014  09:51:00       75.266       70.122       74.623       50.628       42.811       30.217     2563.154     1832.824      913.084        1.073        0.265      102.870       17.156        0.028      347.857       27.130      861.404
07/10/2014  09:52:00       39.187      -33.563       30.361       32.265       55.118       33.395     1041.053     3037.953     1115.250        0.439        0.260       51.596       34.806        0.455      348.219       27.756      861.409
07/10/2014  09:53:00       -5.765      -39.865       12.063       21.657       62.915       32.161      469.033     3958.333     1034.329        0.361        0.273       40.279       36.340        0.814      348.506       28.252      861.406
07/10/2014  09:54:00      -29.841      -45.232       -0.731       31.260       33.598       30.162      977.196     1128.818      909.741        0.298        0.151       54.189       20.350        0.141      348.060       27.480      861.420
07/10/2014  09:55:00      -24.246       -0.693       20.857       43.817       20.180       35.423     1919.968      407.248     1254.775        0.230        0.179       24.256       33.668        1.927      348.560       28.348      861.417
07/10/2014  09:56:00       96.157       37.186       71.764       76.104       49.506       50.050     5791.780     2450.836     2505.006        1.326        0.537      103.097       42.930        0.173      348.113       27.572      861.408
07/10/2014  09:57:00       57.962       73.083       56.925       62.809       52.624       52.609     3945.011     2769.310     2767.659        1.071        0.474       93.278       38.861        0.174      348.020       27.410      861.393
07/10/2014  09:58:00      -47.203      -37.133       15.445       42.440       43.492       28.117     1801.141     1891.540      790.590        0.416        0.224       60.058       16.029        0.071      348.193       27.710      861.386
07/10/2014  09:59:00      -13.126      -47.288       31.330       40.242       69.120       42.596     1619.415     4777.506     1814.446        0.580        0.411       49.076       33.987        0.480      348.776       28.720      861.379
07/10/2014  10:00:00       39.627     -128.938      -22.534       79.392       65.634       60.418     6303.139     4307.843     3650.367        1.648        0.713      134.890       47.459        0.124      348.125       27.592      861.384
07/10/2014  10:01:00        7.985      -71.783        0.075       54.883       72.809       45.246     3012.097     5301.134     2047.170        0.779        0.518       72.226       46.476        0.414      348.211       27.742      861.379
07/10/2014  10:02:00      -28.232      -52.007       22.140       43.220       45.202       37.594     1867.979     2043.178     1413.341        0.466        0.266       59.176       28.957        0.239      348.308       27.910      861.376
07/10/2014  10:03:00      -60.841      -29.753       24.211       50.300       72.176       36.009     2530.099     5209.416     1296.672        0.710        0.452       67.726       36.374        0.288      348.018       27.409      861.358
07/10/2014  10:04:00      -19.097      -20.991       31.223       23.247       38.766       25.766      540.443     1502.777      663.882        0.224        0.135       28.378       20.866        0.541      348.586       28.391      861.358
07/10/2014  10:05:00      -20.224      -20.894       10.960       39.030       27.122       23.610     1523.370      735.623      557.416        0.189        0.141       29.079       20.970        0.520      348.496       28.235      861.353
07/10/2014  10:06:00      -41.031      -72.829       21.465       57.823       45.504       27.919     3343.500     2070.579      779.451        0.682        0.310       83.591       25.104        0.090      348.208       27.737      861.347
07/10/2014  10:07:00      -64.025      -81.714        4.077       41.460       43.817       33.021     1718.949     1919.916     1090.403        0.776        0.236      103.810       26.323        0.064      347.882       27.173      861.347
07/10/2014  10:08:00      -45.247       -1.720        7.136       36.141       26.168       24.407     1306.182      684.752      595.713        0.234        0.129       45.279       23.902        0.279      348.361       28.002      861.336
07/10/2014  10:09:00      -43.388        7.686       23.201       35.671       38.051       30.812     1272.453     1447.904      949.371        0.307        0.183       44.063       20.944        0.226      348.774       28.717      861.333
07/10/2014  10:10:00      -38.588       26.998       10.553       24.753       24.232       22.577      612.714      587.209      509.726        0.202        0.085       47.095        9.048        0.037      348.407       28.081      861.296
07/10/2014  10:11:00      -17.301      -15.360       10.541       34.101       23.440       22.206     1162.904      549.416      493.117        0.143        0.110       23.136       18.002        0.605      348.688       28.568      861.278
07/10/2014  10:12:00      -28.150      -54.753        4.243       30.639       37.782       23.532      938.766     1427.478      553.774        0.336        0.146       61.565       26.007        0.178      348.309       27.912      861.268
07/10/2014  10:13:00      -46.676      -86.018      -19.274       39.410       29.336       23.155     1553.170      860.579      536.149        0.645        0.147       97.866       13.905        0.020      348.125       27.592      861.253
07/10/2014  10:14:00      -27.067      -22.364       13.057       27.655       24.927       18.871      764.824      621.342      356.109        0.157        0.087       35.110       17.830        0.258      348.356       27.993      861.238
07/10/2014  10:15:00      -11.600      -50.998        6.030       23.013       33.738       16.648      529.615     1138.251      277.140        0.236        0.097       52.301       11.339        0.047      348.184       27.694      861.233
07/10/2014  10:16:00      -56.917      -16.442       24.525       64.441       45.115       35.341     4152.656     2035.332     1248.953        0.577        0.372       59.244       40.314        0.463      348.865       28.874      861.228
07/10/2014  10:17:00      -33.817      -47.314        8.221       61.003       39.216       28.629     3721.370     1537.900      819.624        0.476        0.304       58.156       30.307        0.272      348.432       28.125      861.223
07/10/2014  10:18:00      -52.541      -54.304       20.221       66.848       44.392       29.956     4468.650     1970.627      897.354        0.673        0.367       75.562       34.220        0.205      348.517       28.272      861.216
07/10/2014  10:19:00        0.034       26.226        8.810       33.172       37.338       32.126     1100.368     1394.154     1032.087        0.215        0.176       26.226       16.563        0.399      348.640       28.485      861.206
07/10/2014  10:20:00      -31.038      -24.828       -6.106       23.856       33.084       15.373      569.118     1094.529      236.323        0.176        0.095       39.746        9.379        0.056      348.301       27.896      861.214
07/10/2014  10:21:00       11.544        1.814       23.454       44.836       23.920       22.079     2010.272      572.164      487.482        0.188        0.153       11.686       19.063        2.661      349.406       29.812      861.200
07/10/2014  10:22:00       14.910      -78.142        9.762       48.025       43.526       40.126     2306.413     1894.508     1610.113        0.612        0.291       79.552       30.133        0.143      348.832       28.815      861.191
07/10/2014  10:23:00        3.329      -98.056        2.955       40.980       42.956       32.318     1679.390     1845.239     1044.455        0.710        0.228       98.113       24.519        0.062      348.446       28.149      861.193
07/10/2014  10:24:00        3.591        3.733       31.689       18.895       30.105       23.660      357.039      906.307      559.778        0.143        0.091        5.180        9.799        3.579      349.291       29.613      861.183
07/10/2014  10:25:00       11.365      -32.092       25.199       27.871       64.933       38.908      776.811     4216.314     1513.832        0.415        0.325       34.045       41.446        1.482      348.935       28.995      861.173
07/10/2014  10:26:00       77.898       51.371       56.356       67.735       47.235       50.981     4588.082     2231.179     2599.082        1.065        0.471       93.312       27.086        0.084      348.561       28.348      861.174
07/10/2014  10:27:00      161.657       71.918       31.720       57.553       51.959       44.495     3312.395     2699.763     1979.802        2.015        0.400      176.933       24.756        0.020      348.383       28.039      861.158
07/10/2014  10:28:00      102.821       67.022       50.778       94.904       53.664       55.496     9006.778     2879.792     3079.787        1.630        0.748      122.736       57.706        0.221      348.503       28.246      861.154
07/10/2014  10:29:00      138.734       74.361       25.777       90.513       68.359       67.640     8192.638     4672.898     4575.197        2.144        0.872      157.406       51.789        0.108      348.650       28.497      861.138
07/10/2014  10:30:00      152.859      117.051       14.707       62.372       56.821       52.773     3890.298     3228.643     2785.018        2.359        0.495      192.527       36.982        0.037      348.581       28.377      861.129
07/10/2014  10:31:00       83.502       50.187       12.784       45.276       47.699       42.679     2049.910     2275.177     1821.494        0.790        0.307       97.423       22.748        0.055      348.670       28.536      861.120
07/10/2014  10:32:00       18.727      -23.254       32.012       34.020       44.009       34.484     1157.365     1936.798     1189.172        0.310        0.214       29.857       20.264        0.461      348.960       29.040      861.108
07/10/2014  10:33:00       35.016       22.624       56.684       40.144       62.216       38.483     1611.531     3870.877     1480.907        0.596        0.348       41.689       45.405        1.186      348.718       28.618      861.110
07/10/2014  10:34:00        7.618      -40.966       29.111       16.806       49.543       22.453      282.425     2454.554      504.131        0.291        0.162       41.669       26.025        0.390      348.726       28.632      861.104
07/10/2014  10:35:00       66.961       38.560       41.415       65.947       36.848       34.863     4349.009     1357.768     1215.430        0.730        0.346       77.270       37.897        0.241      348.969       29.055      861.106
07/10/2014  10:36:00       74.658       51.827      -20.451       36.286       23.073       18.731     1316.709      532.380      350.836        0.544        0.110       90.884       23.457        0.067      348.040       27.444      861.115
07/10/2014  10:37:00        6.982       63.315       -6.697       42.998       35.125       26.634     1848.862     1233.746      709.387        0.395        0.190       63.699        9.718        0.023      348.519       28.275      861.111
07/10/2014  10:38:00       40.983       37.910        8.458       47.176       48.988       35.481     2225.621     2399.811     1258.876        0.454        0.294       55.828       39.032        0.489      348.839       28.828      861.110
07/10/2014  10:39:00       40.054      -96.358       -7.691       63.103       93.832       37.498     3981.961     8804.467     1406.094        1.257        0.710      104.352       36.736        0.124      348.750       28.672      861.117
07/10/2014  10:40:00       66.377       -6.384       57.252       47.538       85.539       53.814     2259.875     7316.879     2895.973        1.010        0.624       66.683       53.402        0.641      349.125       29.322      861.122
07/10/2014  10:41:00       94.612       11.513       43.095       92.972       85.396       48.147     8643.868     7292.550     2318.087        1.459        0.913       95.310       63.964        0.450      348.796       28.753      861.122
07/10/2014  10:42:00       17.093       79.221      110.228       53.371       60.832       35.714     2848.517     3700.526     1275.478        1.327        0.391       81.044       37.629        0.216      348.995       29.097      861.126
07/10/2014  10:43:00       30.533        8.717       52.177       47.992       54.579       35.322     2303.257     2978.875     1247.676        0.513        0.326       31.753       35.254        1.233      349.075       29.237      861.127
07/10/2014  10:44:00       42.509      -90.143       18.503       38.381      100.533       37.971     1473.130    10106.800     1441.828        1.165        0.651       99.663       49.808        0.250      348.720       28.621      861.123
07/10/2014  10:45:00      -18.602     -119.752       -9.025       50.871       59.992       36.432     2587.811     3599.033     1327.264        1.114        0.376      121.188       32.679        0.073      348.408       28.082      861.114
07/10/2014  10:46:00       13.039      -80.331        1.715       57.279       92.763       50.613     3280.856     8605.046     2561.726        1.053        0.722       81.383       46.858        0.332      349.046       29.187      861.107
07/10/2014  10:47:00       25.174       36.350       59.889       26.611       23.587       12.132      708.152      556.361      147.197        0.348        0.071       44.216        9.885        0.050      348.907       28.947      861.104
07/10/2014  10:48:00       27.135       33.931       18.205       26.007       16.694       22.219      676.371      278.688      493.686        0.183        0.072       43.447        7.431        0.029      348.716       28.616      861.086
07/10/2014  10:49:00        6.302        6.112       30.465       22.518       24.242       12.740      507.072      587.684      162.302        0.113        0.063        8.779       10.627        1.465      349.720       30.356      861.075
07/10/2014  10:50:00       -0.599      -14.970       13.709       27.199       28.908       23.125      739.774      835.676      534.743        0.126        0.106       14.982       21.555        2.070      349.248       29.537      861.058
07/10/2014  10:51:00       -0.260       -5.293       30.423       60.014       50.364       40.357     3601.642     2536.540     1628.696        0.436        0.388        5.300       36.440       47.280      349.501       29.978      861.051
07/10/2014  10:52:00       80.947        8.808       72.997       88.953       78.693       58.331     7912.646     6192.537     3402.458        1.473        0.875       81.425       54.333        0.445      349.103       29.287      861.026
07/10/2014  10:53:00      104.163       -4.402       56.104       68.758      104.722       76.794     4727.725    10966.603     5897.386        1.780        1.080      104.256       82.996        0.634      349.057       29.205      861.018
07/10/2014  10:54:00       85.811       65.374       85.249       87.105       68.542       43.647     7587.258     4698.020     1905.032        1.655        0.710      107.877       35.302        0.107      349.014       29.129      861.007
07/10/2014  10:55:00       29.644      -73.583       23.974      104.823      137.587       75.492    10987.957    18930.137     5698.978        2.124        1.781       79.330       94.691        1.425      348.959       29.033      861.010
07/10/2014  10:56:00       70.094      -39.649       32.768       72.656       72.479       69.018     5278.937     5253.179     4763.438        1.142        0.765       80.531       61.898        0.591      349.289       29.608      861.010
07/10/2014  10:57:00       25.829       13.609       69.034       51.972       72.099       52.948     2701.130     5198.279     2803.528        0.816        0.535       29.195       46.690        2.558      349.447       29.882      861.004
07/10/2014  10:58:00      145.955     -169.625      -34.008      119.008      152.255       81.002    14162.991    23181.719     6561.249        4.756        2.195      223.776       97.800        0.191      349.141       29.350      860.972
07/10/2014  10:59:00      114.316     -159.184      -44.710       99.169      107.465       67.928     9834.433    11548.689     4614.278        3.320        1.300      195.979       62.087        0.100      348.946       29.010      860.969
07/10/2014  11:00:00       -0.976     -103.414       -3.514      108.195       80.697       52.744    11706.095     6512.041     2781.965        1.585        1.050      103.419       53.044        0.263      349.073       29.232      860.988
07/10/2014  11:01:00       54.583        2.530       26.703       28.812       45.658       36.743      830.141     2084.672     1350.021        0.398        0.213       54.642       30.387        0.309      349.102       29.284      860.982
07/10/2014  11:02:00       58.435       41.253       35.621       28.618       21.242       31.317      818.974      451.221      980.773        0.432        0.113       71.530       22.415        0.098      348.904       28.941      860.963
07/10/2014  11:03:00       19.772      -65.290       22.560       76.818       93.322       46.071     5900.971     8709.013     2122.530        1.094        0.837       68.218       59.097        0.750      349.187       29.431      860.948
07/10/2014  11:04:00       67.723      -49.402       48.044       80.771       96.096       67.679     6523.898     9234.453     4580.463        1.483        1.017       83.827       79.581        0.901      349.460       29.904      860.928
07/10/2014  11:05:00       69.585      -10.515       52.130       65.143       65.090       60.281     4243.632     4236.697     3633.748        0.989        0.606       70.375       47.021        0.446      349.451       29.889      860.910
07/10/2014  11:06:00       41.637      -48.999       55.597       77.116       81.182       71.017     5946.941     6590.491     5043.360        1.240        0.879       64.300       45.559        0.502      349.446       29.881      860.890
07/10/2014  11:07:00      -68.838     -128.897       -5.546       47.769       56.231       39.013     2281.886     3161.918     1522.049        1.417        0.348      146.127       22.832        0.024      349.082       29.248      860.879
07/10/2014  11:08:00      -50.580     -111.039        0.551       52.093       49.198       47.893     2713.685     2420.464     2293.760        1.116        0.371      122.016       26.417        0.047      349.073       29.234      860.868
07/10/2014  11:09:00      -44.997      -91.346        0.526       37.847       34.835       25.333     1432.370     1213.463      641.771        0.683        0.164      101.827       16.477        0.026      349.058       29.208      860.867
07/10/2014  11:10:00        0.671      -20.723       26.144       42.319       39.758       35.424     1790.864     1580.727     1254.876        0.287        0.231       20.734       33.017        2.536      349.817       30.525      860.860
07/10/2014  11:11:00      -10.598      -37.123       21.244       32.764       51.176       25.022     1073.499     2619.019      626.124        0.313        0.216       38.606       25.290        0.429      349.764       30.433      860.857
07/10/2014  11:12:00       -0.327      -10.931       17.516       41.043       29.538       26.899     1684.537      872.518      723.580        0.185        0.164       10.936       18.523        2.869      349.629       30.197      860.847
07/10/2014  11:13:00      -16.234      -14.378        2.840       30.579       26.817       27.003      935.062      719.144      729.149        0.143        0.119       21.685       21.170        0.953      349.457       29.900      860.838
07/10/2014  11:14:00      -84.770      -28.824        3.361       48.326       37.152       24.184     2335.371     1380.283      584.857        0.616        0.215       89.536       16.409        0.034      349.053       29.198      860.819
07/10/2014  11:15:00      -82.843      -30.764       -4.661       38.232       28.032       20.410     1461.648      785.789      416.580        0.525        0.133       88.370       11.331        0.016      348.809       28.775      860.812
07/10/2014  11:16:00      -84.219      -24.606       -5.277       35.553       28.964       19.747     1264.002      838.942      389.940        0.511        0.125       87.740       11.636        0.018      348.783       28.730      860.803
07/10/2014  11:17:00      -12.243       -9.569       -7.243       11.623        6.744        8.642      135.089       45.488       74.686        0.027        0.013       15.539        5.103        0.108      349.266       29.568      860.797
07/10/2014  11:18:00      -45.133       -1.568        2.915       31.562       19.772       19.101      996.156      390.936      364.855        0.190        0.088       45.160       11.464        0.064      349.109       29.295      860.788
07/10/2014  11:19:00      -59.577       13.561        3.311       24.395       14.922       13.514      595.128      222.651      182.628        0.237        0.050       61.101       10.451        0.029      349.070       29.229      860.785
07/10/2014  11:20:00      -29.305        8.456       24.921       26.993       29.201       21.974      728.596      852.720      482.858        0.181        0.103       30.501       18.417        0.365      350.079       30.981      860.777
07/10/2014  11:21:00       -9.631      -61.900        8.261       20.858       63.483       30.480      435.044     4030.142      929.050        0.469        0.270       62.645       37.320        0.355      349.425       29.844      860.775
07/10/2014  11:22:00       -8.628      -36.258        4.570       27.478       33.227       24.457      755.018     1104.026      598.128        0.193        0.123       37.271       21.857        0.344      349.626       30.194      860.769
07/10/2014  11:23:00       81.795      -21.187       36.342       73.552       94.285       52.560     5409.961     8889.667     2762.578        1.276        0.853       84.495       70.557        0.697      349.519       30.006      860.757
07/10/2014  11:24:00       49.866       -1.626       53.018       47.842       56.462       43.793     2288.843     3187.998     1917.783        0.635        0.370       49.892       37.369        0.561      349.926       30.712      860.726
07/10/2014  11:25:00       65.904        7.446       61.991       85.331      102.415       61.056     7281.299    10488.822     3727.887        1.487        1.075       66.323       81.858        1.523      349.496       29.965      860.724
07/10/2014  11:26:00       59.096       42.041       62.088       73.278       58.450       49.402     5369.648     3416.441     2440.580        1.017        0.561       72.525       54.900        0.573      349.749       30.404      860.715
07/10/2014  11:27:00       48.633      -39.717       39.828       56.209       97.482       51.166     3159.497     9502.702     2618.008        1.040        0.764       62.790       52.169        0.690      349.749       30.405      860.690
07/10/2014  11:28:00       81.415      -43.842       27.522       62.910       96.619       69.484     3957.645     9335.295     4828.051        1.371        0.906       92.469       72.005        0.606      349.618       30.178      860.679
07/10/2014  11:29:00       12.956      -67.397       22.475       66.513      123.303       74.948     4424.042    15203.666     5617.222        1.523        1.262       68.631       87.833        1.638      349.492       29.961      860.670
07/10/2014  11:30:00        7.345      -59.284        4.403       61.393       71.253       40.889     3769.156     5077.061     1671.936        0.705        0.526       59.737       43.588        0.532      349.295       29.618      860.666
07/10/2014  11:31:00       41.205       15.516       21.621       42.059       36.655       35.719     1768.983     1343.578     1275.835        0.340        0.219       44.030       25.869        0.345      349.713       30.343      860.646
07/10/2014  11:32:00        9.077       13.428       18.672       25.150       24.796       30.514      632.527      614.864      931.096        0.139        0.109       16.208       20.802        1.647      350.227       31.237      860.639
07/10/2014  11:33:00       50.218       45.425       26.536       59.594       39.072       34.006     3551.438     1526.619     1156.391        0.576        0.312       67.714       18.060        0.071      349.839       30.562      860.620
07/10/2014  11:34:00       75.331       99.347        8.750       55.412       51.491       43.386     3070.464     2651.312     1882.373        1.161        0.380      124.678       29.961        0.058      349.411       29.820      860.612
07/10/2014  11:35:00       46.921       65.614       25.378       47.546       59.442       36.861     2260.628     3533.335     1358.725        0.715        0.358       80.665       37.082        0.211      349.691       30.307      860.606
07/10/2014  11:36:00      154.073       93.094       14.385       54.080       48.861       39.635     2924.615     2387.360     1570.933        1.975        0.344      180.014       18.789        0.011      349.387       29.777      860.605
07/10/2014  11:37:00      104.045       76.985       13.219       84.916       53.869       35.141     7210.774     2901.849     1234.904        1.414        0.567      129.430       39.158        0.092      349.289       29.607      860.606
07/10/2014  11:38:00       25.072       22.045       30.687       45.046       27.786       43.519     2029.126      772.072     1893.932        0.337        0.235       33.385       29.902        0.802      349.643       30.221      860.600
07/10/2014  11:39:00       -6.158        9.107       -2.470       15.092       19.747       15.795      227.776      389.932      249.491        0.050        0.043       10.993        9.186        0.698      349.791       30.478      860.591
07/10/2014  11:40:00       -5.004        4.981       26.404       19.917       18.882       19.001      396.667      356.524      361.047        0.093        0.056        7.061       14.133        4.006      350.602       31.889      860.587
07/10/2014  11:41:00       10.623        2.095       31.358       16.817       13.180       20.341      282.817      173.711      413.763        0.099        0.044       10.828        6.662        0.379      350.827       32.281      860.581
07/10/2014  11:42:00       26.778       37.852       28.178       36.236       34.622       33.011     1313.076     1198.690     1089.703        0.327        0.180       46.366       15.539        0.112      350.062       30.949      860.570
07/10/2014  11:43:00       -1.149       15.954       47.483       41.042       54.328       31.360     1684.431     2951.566      983.419        0.406        0.281       15.996       26.311        2.706      350.328       31.412      860.554
07/10/2014  11:44:00       -1.833        7.394       44.685       41.879       33.220       36.853     1753.828     1103.541     1358.131        0.313        0.211        7.618       31.043       16.606      350.424       31.580      860.537
07/10/2014  11:45:00       29.477       51.624       22.156       48.582       43.533       30.274     2360.248     1895.123      916.513        0.460        0.259       59.447       17.338        0.085      350.478       31.674      860.528
07/10/2014  11:46:00       42.876      108.597       -2.288       49.122       50.264       48.006     2412.940     2526.458     2304.537        1.044        0.362      116.755       40.712        0.122      349.869       30.613      860.535
07/10/2014  11:47:00       75.174       58.346       17.108       32.870       26.201       24.031     1080.438      686.500      577.482        0.585        0.117       95.160        8.773        0.008      349.364       29.738      860.513
07/10/2014  11:48:00       -0.596       20.752       42.443       37.956       39.060       23.671     1440.670     1525.721      560.297        0.288        0.176       20.761       15.217        0.537      350.526       31.756      860.503
07/10/2014  11:49:00       39.905       54.609       14.080       46.823       38.138       34.031     2192.371     1454.528     1158.096        0.479        0.240       67.635       26.342        0.152      350.024       30.883      860.498
07/10/2014  11:50:00       -1.359       62.246        6.794       28.624       35.467       32.944      819.350     1257.889     1085.294        0.354        0.158       62.261       21.105        0.115      350.068       30.961      860.495
07/10/2014  11:51:00       73.823       72.623        5.942       44.260       50.901       32.005     1958.937     2590.938     1024.351        0.817        0.279      103.557       25.669        0.061      350.066       30.955      860.500
07/10/2014  11:52:00       70.902      -85.991        1.567       66.844       79.198       40.901     4468.106     6272.363     1672.932        1.242        0.621      111.452       28.601        0.066      349.825       30.538      860.497
07/10/2014  11:53:00       56.986      -72.957       14.042       32.390       77.631       39.367     1049.081     6026.511     1549.768        0.869        0.431       92.575       40.871        0.195      349.825       30.537      860.488
07/10/2014  11:54:00       -4.493       25.459       45.779       41.181       44.186       30.022     1695.878     1952.389      901.306        0.366        0.227       25.853       23.883        0.853      350.527       31.759      860.479
07/10/2014  11:55:00       32.358       43.435       47.778       57.683       42.478       30.782     3327.332     1804.359      947.501        0.565        0.304       54.163       26.698        0.243      350.296       31.357      860.454
07/10/2014  11:56:00       -7.311       11.128       57.463       25.606       49.463       33.306      655.677     2446.540     1109.257        0.384        0.211       13.315       35.227        7.000      350.375       31.493      860.431
07/10/2014  11:57:00       85.221       12.220       25.956       57.957      113.066       53.943     3359.057    12783.840     2909.894        1.357        0.953       86.093       56.676        0.433      349.696       30.312      860.412
07/10/2014  11:58:00       46.451       35.783       95.531       65.543       99.761       74.030     4295.879     9952.295     5480.457        1.614        0.986       58.636       69.368        1.400      350.115       31.042      860.394
07/10/2014  11:59:00      111.407     -107.693       37.279       80.345      113.564       73.243     6455.280    12896.751     5364.470        2.505        1.236      154.949       86.421        0.311      349.532       30.027      860.389
07/10/2014  12:00:00      110.036      -82.254       26.057       69.681       99.803       53.083     4855.410     9960.632     2817.758        1.859        0.882      137.382       59.102        0.185      349.894       30.655      860.373
07/10/2014  12:01:00       51.653       44.228       85.252       45.045       56.937       31.240     2029.086     3241.854      975.911        0.907        0.312       68.001       33.450        0.242      349.810       30.510      860.369
07/10/2014  12:02:00       61.931       -4.437       38.402       67.425       58.967       33.521     4546.085     3477.102     1123.685        0.724        0.457       62.090       36.762        0.351      349.850       30.581      860.343
07/10/2014  12:03:00      109.193      108.761      114.937       85.682      113.885       61.273     7341.465    12969.731     3754.356        3.051        1.203      154.116       67.386        0.191      349.632       30.199      860.313
07/10/2014  12:04:00       99.649      116.412      118.930       67.287       54.736       45.524     4527.574     2996.023     2072.436        2.361        0.480      153.237       39.518        0.067      349.430       29.849      860.307
07/10/2014  12:05:00       84.258       75.443       91.936       89.955       67.802       46.350     8091.878     4597.055     2148.351        1.804        0.742      113.097       37.513        0.110      349.504       29.979      860.298
07/10/2014  12:06:00       49.076       55.319       76.722       55.150       63.464       53.934     3041.490     4027.633     2908.919        1.066        0.499       73.950       47.149        0.407      349.848       30.576      860.278
07/10/2014  12:07:00       74.554       83.700       56.264       46.324       43.268       49.308     2145.891     1872.116     2431.246        1.109        0.322      112.089       26.266        0.055      349.513       29.996      860.264
07/10/2014  12:08:00       37.160        1.755        9.684       56.851       66.833       42.804     3231.985     4466.638     1832.202        0.550        0.477       37.201       40.986        1.214      349.775       30.450      860.244
07/10/2014  12:09:00       24.170        9.834       28.159       42.134       45.800       37.557     1775.252     2097.601     1410.562        0.338        0.264       26.094       23.311        0.798      350.166       31.130      860.233
07/10/2014  12:10:00       40.047       18.904       27.503       43.016       53.616       29.592     1850.389     2874.720      875.669        0.416        0.280       44.284       21.158        0.228      350.337       31.427      860.210
07/10/2014  12:11:00       -7.052       50.233       59.534       36.759       40.990       37.832     1351.218     1680.191     1431.236        0.529        0.223       50.725       21.254        0.176      350.664       31.996      860.179
07/10/2014  12:12:00       90.715      103.686       18.551       71.566      106.396       68.813     5121.659    11320.151     4735.243        2.025        1.059      137.768       65.246        0.224      350.132       31.070      860.165
07/10/2014  12:13:00      107.883       99.788       20.916       70.857       49.580       42.367     5020.708     2458.176     1794.939        1.565        0.464      146.957       16.711        0.013      349.643       30.221      860.168
07/10/2014  12:14:00       74.810       68.346       36.315       44.412       41.873       40.918     1972.401     1753.319     1674.256        0.849        0.270      101.330       30.717        0.092      349.917       30.698      860.154
07/10/2014  12:15:00       25.707       71.977       90.556       42.567       47.345       32.684     1811.947     2241.516     1068.268        0.958        0.256       76.430       33.219        0.189      350.167       31.131      860.143
07/10/2014  12:16:00       62.528      -77.379        9.680       35.153       75.313       35.777     1235.731     5672.087     1279.988        0.909        0.409       99.485       27.931        0.079      349.916       30.695      860.134
07/10/2014  12:17:00       -4.563        2.185       35.643       32.352       30.788       27.710     1046.667      947.925      767.833        0.203        0.138        5.059       23.131       20.905      350.442       31.610      860.121
07/10/2014  12:18:00      -13.849      -31.156       16.358       37.369       31.463       30.207     1396.428      989.923      912.459        0.236        0.165       34.096       24.271        0.507      350.331       31.417      860.091
07/10/2014  12:19:00        2.431      -22.605       13.448       29.225       35.336       28.922      854.128     1248.599      836.498        0.182        0.147       22.735       21.953        0.932      350.337       31.429      860.085
07/10/2014  12:20:00      -11.393      -76.627        7.111       33.901       42.188       34.805     1149.271     1779.789     1211.368        0.510        0.207       77.469       25.467        0.108      349.921       30.704      860.065
07/10/2014  12:21:00        3.294      -31.198        4.261       27.690       26.079       24.505      766.711      680.114      600.502        0.152        0.102       31.371       16.183        0.266      350.040       30.911      860.050
07/10/2014  12:22:00        7.627        6.655       14.685       23.513       26.669       25.030      552.863      711.258      626.489        0.110        0.095       10.122       21.273        4.417      350.507       31.723      860.035
07/10/2014  12:23:00        2.518       13.255       27.327       27.168       19.365       25.814      738.100      375.011      666.386        0.135        0.089       13.492       13.706        1.032      350.475       31.667      860.012
07/10/2014  12:24:00      -26.996       -4.910       27.198       35.121       20.727       23.067     1233.487      429.622      532.067        0.184        0.110       27.439       25.831        0.886      350.830       32.285      859.994
07/10/2014  12:25:00      -34.385      -20.326       22.614       46.190       31.129       29.471     2133.491      969.003      868.530        0.304        0.199       39.943       19.465        0.237      350.378       31.499      859.969
07/10/2014  12:26:00        6.266      -27.551       31.602       37.573       45.916       26.718     1411.715     2108.247      713.877        0.301        0.212       28.254       28.905        1.047      350.861       32.339      859.955
07/10/2014  12:27:00      -15.227        6.986        9.871       34.968       87.874       34.547     1222.764     7721.761     1193.524        0.526        0.507       16.753       48.729        8.461      350.046       30.920      859.945
07/10/2014  12:28:00       -0.716       54.587       10.161       25.656       60.367       31.595      658.221     3644.179      998.219        0.419        0.265       54.592       32.987        0.365      350.486       31.687      859.922
07/10/2014  12:29:00      -11.043      124.560        0.298       28.301       54.747       27.886      800.949     2997.234      777.616        1.011        0.229      125.048       28.692        0.053      350.112       31.038      859.901
07/10/2014  12:30:00       -1.737       41.487       29.922       32.625       50.225       25.912     1064.404     2522.528      671.423        0.344        0.213       41.523       27.036        0.424      351.168       32.875      859.873
07/10/2014  12:31:00       25.694       62.883       16.029       56.121       41.906       41.958     3149.606     1756.114     1760.441        0.577        0.333       67.930       34.727        0.261      350.207       31.200      859.850
07/10/2014  12:32:00       -7.345      127.540        0.965       43.260       97.396       48.067     1871.394     9485.884     2310.455        1.499        0.683      127.752       59.324        0.216      350.219       31.221      859.833
07/10/2014  12:33:00        5.293       39.657       20.410       33.866       50.504       30.971     1146.938     2550.657      959.226        0.334        0.233       40.008       27.190        0.462      350.488       31.690      859.814
07/10/2014  12:34:00       41.154      101.725       29.004       44.812       45.839       57.643     2008.079     2101.257     3322.712        1.016        0.372      109.734       44.298        0.163      350.121       31.053      859.788
07/10/2014  12:35:00       25.666      -31.199      -11.643       35.163       57.761       37.120     1236.440     3336.316     1377.877        0.386        0.298       40.399       34.813        0.743      349.848       30.578      859.774
07/10/2014  12:36:00       65.080       43.744       39.566       74.709       82.311       52.224     5581.387     6775.180     2727.363        1.140        0.754       78.416       42.048        0.288      350.130       31.068      859.748
07/10/2014  12:37:00      141.995       54.139       74.674       85.928       85.282       63.670     7383.583     7273.006     4053.845        2.369        0.936      151.966       54.058        0.127      349.919       30.699      859.726
07/10/2014  12:38:00      100.814      -54.320       41.284       70.211       81.091       47.539     4929.537     6575.723     2259.994        1.429        0.688      114.517       51.863        0.205      349.923       30.706      859.691
07/10/2014  12:39:00      111.937      -83.940       15.668       87.155       96.058       59.573     7595.990     9227.140     3548.899        2.009        1.019      139.914       71.445        0.261      350.069       30.961      859.666
07/10/2014  12:40:00      167.732     -190.279      -31.167      120.948      138.406       85.780    14628.393    19156.211     7358.268        5.322        2.057      253.653       85.694        0.114      349.915       30.691      859.616
07/10/2014  12:41:00      196.293     -206.101      -41.559      126.522      152.432       94.272    16007.827    23235.594     8887.163        6.543        2.407      284.620       99.354        0.122      349.822       30.531      859.577
07/10/2014  12:42:00       94.779     -238.791      -33.315       94.196       67.900       46.427     8872.921     4610.474     2155.433        4.137        0.782      256.912       29.953        0.014      349.648       30.224      859.612
07/10/2014  12:43:00       -8.792      -74.636        6.954       65.382       90.973       64.316     4274.812     8276.091     4136.584        1.119        0.834       75.152       70.046        0.869      350.167       31.131      859.616
07/10/2014  12:44:00       -3.515       24.782       69.050       33.300       50.547       38.402     1108.912     2555.040     1474.698        0.527        0.257       25.030       26.743        1.142      350.360       31.468      859.607
07/10/2014  12:45:00       31.019       -2.892       36.391       37.443       48.080       38.625     1401.948     2311.650     1491.865        0.375        0.260       31.154       25.541        0.672      350.231       31.244      859.588
07/10/2014  12:46:00       18.331       37.662       74.521       52.008       63.082       40.276     2704.795     3979.346     1622.133        0.781        0.415       41.886       35.650        0.724      350.438       31.604      859.565
07/10/2014  12:47:00       43.492       61.821       58.885       71.148       59.403       40.410     5062.010     3528.772     1632.981        0.970        0.511       75.587       30.447        0.162      350.264       31.300      859.555
07/10/2014  12:48:00       34.400       67.861       -7.074       25.687       25.377       40.912      659.839      643.983     1673.828        0.441        0.149       76.082       16.112        0.045      349.883       30.638      859.546
07/10/2014  12:49:00       15.507       26.374       11.361       27.874       59.453       32.422      776.983     3534.662     1051.167        0.321        0.268       30.595       13.468        0.194      350.194       31.180      859.522
07/10/2014  12:50:00       50.043        6.003       44.179       47.304       55.911       34.033     2237.686     3126.082     1158.269        0.551        0.326       50.402       30.340        0.362      350.406       31.547      859.506
07/10/2014  12:51:00       87.917      -10.957       60.949       80.474       91.346       75.385     6476.055     8344.052     5682.886        1.603        1.025       88.597       65.634        0.549      350.284       31.334      859.485
07/10/2014  12:52:00       93.114      -17.810       67.233      122.890      156.545       96.713    15101.957    24506.338     9353.376        3.123        2.448       94.802      118.437        1.561      350.308       31.375      859.466
07/10/2014  12:53:00       86.094       93.507      119.393       83.502       63.251       40.685     6972.589     4000.638     1655.272        2.152        0.631      127.106       27.142        0.046      350.016       30.866      859.464
07/10/2014  12:54:00       11.257       38.049       52.425       53.461       57.921       48.209     2858.116     3354.804     2324.104        0.643        0.427       39.679       44.900        1.280      350.279       31.327      859.443
07/10/2014  12:55:00       -9.755        0.215       14.304       37.230       39.287       33.893     1386.050     1543.493     1148.760        0.219        0.204        9.757       27.524        7.958      350.329       31.413      859.418
07/10/2014  12:56:00      -28.271       47.499       22.448       44.367       49.683       32.815     1968.406     2468.403     1076.806        0.454        0.276       55.276       32.178        0.339      350.543       31.786      859.383
07/10/2014  12:57:00      -15.691       14.652       30.997       38.413       24.065       22.580     1475.571      579.108      509.854        0.199        0.128       21.468       19.216        0.801      350.889       32.389      859.373
07/10/2014  12:58:00       29.752       29.121       26.867       27.297       22.588       20.779      745.126      510.197      431.776        0.207        0.084       41.632       16.665        0.160      350.848       32.318      859.359
07/10/2014  12:59:00       52.632      -20.223       38.454       46.528       47.617       36.429     2164.889     2267.364     1327.079        0.521        0.288       56.384       28.328        0.252      350.335       31.424      859.344
07/10/2014  13:00:00       20.210        9.252       39.729       37.647       63.659       39.821     1417.269     4052.420     1585.733        0.456        0.353       22.227       37.621        2.865      350.428       31.586      859.317
07/10/2014  13:01:00       -4.160       16.513       47.591       30.759       49.654       36.084      946.094     2465.526     1302.083        0.363        0.236       17.029       20.893        1.505      350.971       32.532      859.305
07/10/2014  13:02:00       50.956      -78.542       16.815       70.308       65.483       55.039     4943.166     4287.977     3029.345        1.065        0.613       93.623       35.149        0.141      350.325       31.407      859.323
07/10/2014  13:03:00      -65.420      -85.530      -11.609       80.774       59.333       27.566     6524.378     3520.349      759.869        1.127        0.540      107.680       20.823        0.037      349.771       30.443      859.306
07/10/2014  13:04:00      -71.214      -41.105        0.956       70.693       51.157       26.725     4997.467     2617.056      714.226        0.754        0.416       82.226       28.892        0.123      350.399       31.535      859.278
07/10/2014  13:05:00       16.879      -48.774        7.305       46.320       67.020       35.227     2145.548     4491.661     1240.963        0.530        0.394       51.612       43.902        0.724      350.388       31.516      859.267
07/10/2014  13:06:00       -1.733       28.060       53.779       18.066       29.670       18.293      326.390      880.306      334.633        0.261        0.077       28.114        9.329        0.110      350.870       32.355      859.248
07/10/2014  13:07:00       25.886        8.153       19.220       32.089       32.953       29.162     1029.703     1085.868      850.416        0.204        0.148       27.140       14.710        0.294      350.463       31.647      859.238
07/10/2014  13:08:00        1.389       16.893       44.042       22.611       38.379       21.504      511.272     1472.979      462.427        0.234        0.122       16.950       18.525        1.195      350.887       32.386      859.217
07/10/2014  13:09:00      -95.956      -32.130       -4.366       52.571       41.807       25.104     2763.689     1747.806      630.228        0.770        0.257      101.192       29.945        0.088      350.037       30.907      859.201
07/10/2014  13:10:00      -57.483       47.461        1.962       60.807       31.809       32.773     3697.552     1011.841     1074.056        0.567        0.289       74.544       34.639        0.216      350.439       31.606      859.183
07/10/2014  13:11:00      -18.921       11.909        6.965       55.622       42.800       33.344     3093.792     1831.865     1111.829        0.329        0.302       22.357        9.675        0.187      350.600       31.886      859.170
07/10/2014  13:12:00      -22.693      -48.704       13.692       61.982       86.544       44.778     3841.775     7489.780     2005.070        0.820        0.667       53.731       41.812        0.606      350.541       31.782      859.162
07/10/2014  13:13:00       65.493      -19.260       13.421       46.389       58.368       47.274     2151.918     3406.767     2234.846        0.632        0.390       68.267       25.360        0.138      350.506       31.721      859.147
07/10/2014  13:14:00      -32.844      -27.800       11.964       46.587       43.699       30.777     2170.341     1909.638      947.201        0.351        0.251       43.030       10.999        0.065      350.723       32.100      859.118
07/10/2014  13:15:00      -54.200       -8.691       -1.528       47.720       56.639       38.266     2277.216     3207.994     1464.307        0.498        0.347       54.893       28.172        0.263      350.870       32.354      859.104
07/10/2014  13:16:00      -60.564      -51.317       15.448       75.509       68.042       37.505     5701.557     4629.674     1406.631        0.914        0.587       79.382       34.905        0.193      350.723       32.098      859.086
07/10/2014  13:17:00     -123.122      -83.077       12.200       75.580       66.592       47.213     5712.308     4434.523     2229.032        1.729        0.619      148.529       34.386        0.054      350.396       31.530      859.073
07/10/2014  13:18:00     -209.159     -107.969        5.721      120.767       88.034       55.226    14584.586     7749.999     3049.880        4.041        1.269      235.382       55.867        0.056      350.272       31.311      859.063
07/10/2014  13:19:00     -250.927      -82.989        0.658      120.597      101.360       54.046    14543.634    10273.937     2920.961        4.879        1.387      264.294       56.986        0.046      350.328       31.408      859.045
07/10/2014  13:20:00     -226.083      -61.892        5.571      113.028       77.634       47.682    12775.230     6027.062     2273.603        3.802        1.054      234.402       54.638        0.054      350.189       31.166      859.048
07/10/2014  13:21:00     -121.917      -81.085        1.134       67.222       74.352       35.954     4518.846     5528.288     1292.655        1.639        0.567      146.419       21.212        0.021      350.322       31.399      859.046
07/10/2014  13:22:00     -182.300      -91.685       -3.072       75.733       46.771       27.835     5735.552     2187.499      774.774        2.517        0.435      204.057       26.269        0.017      350.084       30.985      859.033
07/10/2014  13:23:00     -129.091      -58.247        1.390       66.145       61.769       34.138     4375.221     3815.467     1165.416        1.471        0.468      141.624       31.407        0.049      350.463       31.647      859.033
07/10/2014  13:24:00     -116.365     -147.499       -2.212      105.249      110.666       54.489    11077.346    12246.991     2969.052        3.079        1.315      187.874       63.526        0.114      350.299       31.359      859.008
07/10/2014  13:25:00     -154.399     -103.535        9.690       93.160       64.053       45.351     8678.870     4102.764     2056.743        2.474        0.742      185.899       52.349        0.079      350.254       31.280      859.006
07/10/2014  13:26:00      -46.207      -95.013        8.932       50.998       67.917       36.463     2600.776     4612.778     1329.564        0.989        0.427      105.653       35.027        0.110      350.306       31.372      858.999
07/10/2014  13:27:00      -54.380     -132.001        2.375       64.453       64.479       32.824     4154.135     4157.575     1077.399        1.489        0.469      142.764       26.759        0.035      350.134       31.073      858.969
07/10/2014  13:28:00     -124.883      -58.851        4.970       75.482       44.721       34.511     5697.555     1999.987     1191.028        1.398        0.444      138.055       43.309        0.098      350.330       31.414      858.958
07/10/2014  13:29:00     -126.192       24.102        4.886       83.074       57.512       42.909     6901.211     3307.626     1841.200        1.429        0.603      128.473       39.093        0.093      350.622       31.923      858.929
07/10/2014  13:30:00     -144.747       26.673      -11.547       70.123       56.850       39.576     4917.233     3231.953     1566.270        1.575        0.486      147.184       36.116        0.060      350.576       31.842      858.892
07/10/2014  13:31:00      -65.531      -16.364        5.090       75.705       63.620       34.066     5731.319     4047.451     1160.513        0.776        0.547       67.543       39.381        0.340      351.023       32.621      858.885
07/10/2014  13:32:00      -92.835      -50.442        6.272      120.207       66.325       46.899    14449.735     4399.015     2199.477        1.612        1.052      105.653       50.362        0.227      351.017       32.610      858.859
07/10/2014  13:33:00     -102.528      -43.519       12.313      102.716       76.745       50.411    10550.673     5889.829     2541.307        1.577        0.949      111.382       55.736        0.250      350.890       32.389      858.844
07/10/2014  13:34:00     -231.559     -133.018       -8.156      101.823       90.606       57.609    10367.884     8209.508     3318.819        4.663        1.095      267.046       58.743        0.048      350.193       31.174      858.827
07/10/2014  13:35:00     -208.504     -113.830        1.745      106.368       75.178       52.149    11314.078     5651.708     2719.540        3.806        0.984      237.552       52.087        0.048      350.226       31.232      858.833
07/10/2014  13:36:00     -174.241      -94.453        9.886       75.036       59.081       41.401     5630.465     3490.571     1714.059        2.511        0.542      198.195       35.545        0.032      350.213       31.209      858.828
07/10/2014  13:37:00     -121.701      -47.527        2.510       66.052       64.600       36.884     4362.843     4173.132     1360.441        1.348        0.495      130.652       37.965        0.084      350.565       31.824      858.823
07/10/2014  13:38:00      -73.305        2.090       -5.548       38.493       37.776       22.631     1481.728     1426.991      512.159        0.441        0.171       73.334       16.373        0.050      350.436       31.600      858.838
07/10/2014  13:39:00      -67.039      -70.735        0.843       76.048       68.219       46.105     5783.227     4653.791     2125.637        1.103        0.628       97.456       28.954        0.088      350.582       31.852      858.830
07/10/2014  13:40:00      -43.613     -142.744       -8.952       66.488       64.310       36.797     4420.703     4135.834     1354.008        1.613        0.496      149.258       21.153        0.020      350.368       31.479      858.807
07/10/2014  13:41:00      -34.549      -62.568       12.788       74.560       57.071       38.130     5559.202     3257.138     1453.920        0.777        0.514       71.472       42.017        0.346      350.609       31.899      858.797
07/10/2014  13:42:00     -131.197      -80.544      -12.980       38.504       50.219       21.142     1482.527     2521.997      446.970        1.416        0.223      153.947       13.585        0.008      350.089       30.996      858.796
07/10/2014  13:43:00     -121.640       39.580       -0.751       57.125       62.780       38.658     3263.219     3941.296     1494.414        1.253        0.435      127.918       34.620        0.073      350.484       31.682      858.786
07/10/2014  13:44:00     -167.213       56.906      -14.756       58.425       45.904       31.969     3413.512     2107.168     1021.999        1.898        0.327      176.631       18.861        0.011      350.372       31.488      858.764
07/10/2014  13:45:00     -172.715       83.149      -17.528       98.906       37.637       35.796     9782.479     1416.534     1281.331        2.476        0.624      191.687       31.435        0.027      350.436       31.597      858.727
07/10/2014  13:46:00     -161.045       85.330      -30.450      110.506       50.319       43.502    12211.651     2531.988     1892.389        2.539        0.832      182.255       42.669        0.055      350.315       31.386      858.712
07/10/2014  13:47:00       -3.096       50.124       23.200       24.709       38.503       33.248      610.559     1482.493     1105.438        0.313        0.160       50.219       17.156        0.117      351.178       32.892      858.711
07/10/2014  13:48:00       -5.062       36.902       18.428       17.594       34.682       27.142      309.532     1202.808      736.666        0.199        0.112       37.247       19.458        0.273      351.234       32.990      858.695
07/10/2014  13:49:00      -27.230       53.556        6.570       27.859       46.807       29.542      776.113     2190.889      872.754        0.375        0.192       60.081       24.897        0.172      350.970       32.529      858.675
07/10/2014  13:50:00       21.886        6.999       13.170       14.249       18.384       25.962      203.029      337.964      674.035        0.096        0.061       22.978        8.312        0.131      350.973       32.533      858.668
07/10/2014  13:51:00       25.739       -8.259       10.941       25.599       18.690       21.122      655.297      349.312      446.127        0.115        0.073       27.031       14.309        0.280      350.831       32.287      858.649
07/10/2014  13:52:00       42.456       46.541       13.216       39.883       31.411       21.840     1590.643      986.629      476.972        0.360        0.153       62.997       14.472        0.053      350.559       31.814      858.631
07/10/2014  13:53:00        5.104       86.120       -2.391       34.319       56.591       28.175     1177.789     3202.543      793.847        0.631        0.259       86.271       16.006        0.034      350.588       31.863      858.618
07/10/2014  13:54:00       -4.289      -30.292       -0.450       25.874       31.949       20.590      669.480     1020.714      423.944        0.152        0.106       30.594       14.011        0.210      350.824       32.275      858.616
07/10/2014  13:55:00      -18.272      -10.923        9.910       35.418       38.524       25.408     1254.420     1484.076      645.560        0.197        0.169       21.288       19.715        0.858      351.089       32.737      858.592
07/10/2014  13:56:00      100.167     -117.666       -5.247       84.385      124.063       60.541     7120.903    15391.697     3665.215        2.504        1.309      154.527       72.898        0.223      350.815       32.258      858.580
07/10/2014  13:57:00      -49.732      -42.559       29.922       59.357       79.652       41.886     3523.195     6344.362     1754.471        0.840        0.581       65.456       32.560        0.247      351.165       32.867      858.561
07/10/2014  13:58:00        3.214      -30.725       10.807       62.987       44.443       41.366     3967.404     1975.146     1711.116        0.436        0.383       30.892       33.906        1.205      351.155       32.852      858.557
07/10/2014  13:59:00       -4.388      -10.569      -24.330       78.981       51.396       43.083     6237.928     2641.511     1856.161        0.573        0.537       11.444       31.679        7.663      351.019       32.614      858.539
07/10/2014  14:00:00      129.350      -78.281       17.128       85.824       79.384       54.382     7365.737     6301.861     2957.451        1.989        0.831      151.193       57.140        0.143      350.651       31.972      858.528
07/10/2014  14:01:00       59.701      -13.118        8.327       67.357       57.843       39.912     4536.941     3345.788     1592.968        0.664        0.474       61.125       20.906        0.117      350.783       32.203      858.520
07/10/2014  14:02:00      129.933     -162.594       19.190      111.136      132.444       82.477    12351.132    17541.306     6802.394        4.019        1.835      208.133       89.414        0.185      350.886       32.379      858.488
07/10/2014  14:03:00      159.034     -144.901       23.226      110.074      201.622       96.558    12116.367    40651.315     9323.496        5.445        3.105      215.147      123.428        0.329      350.698       32.053      858.479
07/10/2014  14:04:00       95.739      -37.174       50.517       89.861      128.361       79.959     8075.043    16476.551     6393.488        2.202        1.547      102.703       90.440        0.775      350.975       32.535      858.464
07/10/2014  14:05:00      122.476      133.975      103.624      104.873       79.658       86.897    10998.357     6345.441     7551.104        3.429        1.245      181.520       79.000        0.189      350.684       32.028      858.474
07/10/2014  14:06:00       50.032        0.394        1.738       48.510       43.260       30.019     2353.264     1871.408      901.148        0.382        0.256       50.034       31.239        0.390      350.489       31.692      858.478
07/10/2014  14:07:00       18.243      -26.033       -4.300       19.785       29.169       25.953      391.444      850.843      673.571        0.147        0.096       31.789       17.728        0.311      350.753       32.150      858.448
07/10/2014  14:08:00       13.571       15.169       20.944       41.207       30.731       27.948     1698.054      944.364      781.082        0.214        0.171       20.354       23.444        1.327      350.885       32.383      858.405
07/10/2014  14:09:00       -5.622       -2.893       17.137       18.664        9.229       16.413      348.362       85.174      269.398        0.052        0.035        6.323       11.948        3.570      351.506       33.464      858.368
07/10/2014  14:10:00       23.053        8.450       39.036       20.889       19.921       18.956      436.361      396.850      359.324        0.166        0.060       24.553        9.446        0.148      351.201       32.933      858.342
07/10/2014  14:11:00       13.142       12.614       31.354       28.269       22.556       25.069      799.141      508.795      628.433        0.163        0.097       18.216       21.023        1.332      351.057       32.682      858.319
07/10/2014  14:12:00       33.694       12.844       18.648       36.991       32.025       25.241     1368.313     1025.588      637.085        0.234        0.152       36.059       21.162        0.344      350.687       32.036      858.297
07/10/2014  14:13:00       42.769       45.623       51.277       31.858       27.733       23.355     1014.908      769.101      545.441        0.443        0.116       62.535       17.354        0.077      350.655       31.981      858.288
07/10/2014  14:14:00       94.995      -43.820        8.485       84.590       84.323       53.964     7155.443     7110.298     2912.125        1.409        0.859      104.615       64.800        0.384      350.710       32.074      858.280
07/10/2014  14:15:00       46.226      -41.200       16.403       69.490       64.194       48.493     4828.803     4120.873     2351.595        0.770        0.565       61.922       51.948        0.704      350.982       32.551      858.278
07/10/2014  14:16:00       21.847       32.313       14.559       58.193       61.381       34.031     3386.416     3767.631     1158.102        0.502        0.416       39.005       21.735        0.311      351.003       32.586      858.244
07/10/2014  14:17:00       79.336       81.531       12.704       47.686       53.901       50.885     2273.932     2905.274     2589.304        1.043        0.388      113.761       37.052        0.106      350.483       31.680      858.226
07/10/2014  14:18:00       43.037       32.102       38.041       43.665       44.011       34.204     1906.663     1936.942     1169.881        0.467        0.251       53.691       20.502        0.146      350.676       32.017      858.189
07/10/2014  14:19:00       30.845      -10.484       22.739       22.406       32.140       23.221      502.012     1032.989      539.231        0.183        0.104       32.578       17.817        0.299      350.813       32.256      858.178
07/10/2014  14:20:00       61.110      -73.597       18.364       91.969       87.737       47.499     8458.265     7697.802     2256.130        1.395        0.921       95.661       52.071        0.296      350.676       32.017      858.159
07/10/2014  14:21:00       22.400      -40.394       17.516       38.205       69.715       39.305     1459.592     4860.119     1544.893        0.515        0.393       46.189       35.248        0.582      350.917       32.437      858.162
07/10/2014  14:22:00       55.194       52.348       39.918       37.315       43.244       30.246     1392.430     1870.021      914.813        0.578        0.209       76.070       22.732        0.089      350.556       31.809      858.148
07/10/2014  14:23:00       87.645       40.086       16.777       41.741       77.376       42.822     1742.286     5987.058     1833.723        0.956        0.478       96.377       29.672        0.095      350.697       32.053      858.110
07/10/2014  14:24:00       58.318      -36.407       27.426       63.097       80.028       50.638     3981.265     6404.499     2564.173        0.921        0.647       68.749       51.041        0.551      350.966       32.522      858.105
07/10/2014  14:25:00     -154.612      -16.004        1.672      189.127       89.834       56.978    35768.969     8070.129     3246.473        3.562        2.354      155.438       84.168        0.293      350.964       32.516      858.068
07/10/2014  14:26:00       51.997      100.875       29.085      119.581      105.630       86.213    14299.517    11157.599     7432.610        2.330        1.644      113.488       79.161        0.487      351.326       33.147      857.982
07/10/2014  14:27:00      250.534      180.432        4.997       89.829       85.563       68.930     8069.203     7321.095     4751.323        5.774        1.007      308.744       32.207        0.011      350.950       32.490      858.030
07/10/2014  14:28:00      149.758       98.952       35.303       96.572       76.363       51.215     9326.066     5831.278     2622.948        2.562        0.889      179.497       42.981        0.057      351.194       32.917      858.072
07/10/2014  14:29:00      120.103       12.644       24.796       63.647       74.584       51.000     4050.995     5562.821     2601.048        1.371        0.611      120.766       26.181        0.047      351.023       32.619      858.075
07/10/2014  14:30:00       78.932        0.213       34.391       62.058       60.508       43.571     3851.187     3661.233     1898.394        0.841        0.471       78.932       16.027        0.041      350.958       32.507      858.065
07/10/2014  14:31:00      106.446       56.604       29.379       56.609       72.166       49.491     3204.544     5207.874     2449.392        1.313        0.543      120.560       32.798        0.074      350.602       31.888      858.038
07/10/2014  14:32:00       59.800       52.087      -13.419       55.074       73.808       42.653     3033.161     5447.650     1819.267        0.838        0.515       79.304       22.449        0.080      351.018       32.613      858.014
07/10/2014  14:33:00      -51.493      -79.201       -4.141       60.858       80.757       40.086     3703.678     6521.690     1606.903        1.038        0.592       94.469       36.904        0.153      350.984       32.553      857.994
07/10/2014  14:34:00       18.395      -23.548        1.757       66.854       70.853       39.638     4469.473     5020.212     1571.135        0.598        0.553       29.881       27.604        0.853      351.032       32.637      858.000
07/10/2014  14:35:00       51.361       27.467      120.598      117.348      193.350      130.847    13770.575    37384.300    17120.969        4.309        3.414       58.244      158.247        7.382      351.109       32.769      857.967
07/10/2014  14:36:00      104.621      -40.387       80.835      136.696      144.619      105.615    18685.907    20914.759    11154.503        3.492        2.538      112.145       94.369        0.708      351.115       32.779      857.940
07/10/2014  14:37:00      108.796     -137.604       20.740      118.414      112.486       90.930    14021.820    12653.139     8268.242        3.307        1.747      175.418       80.251        0.209      351.079       32.717      857.953
07/10/2014  14:38:00       46.309      -82.798       62.204       72.258      136.530       73.838     5221.171    18640.403     5452.011        2.109        1.466       94.868       69.724        0.540      351.198       32.926      857.964
07/10/2014  14:39:00      102.487     -102.216       35.158       91.052       88.858       58.732     8290.495     7895.769     3449.469        2.091        0.982      144.747       69.894        0.233      350.977       32.540      857.969
07/10/2014  14:40:00        9.424     -164.056       -2.935       96.813      124.898       51.808     9372.829    15599.606     2684.088        2.733        1.383      164.327       51.753        0.099      350.877       32.365      857.955
07/10/2014  14:41:00      104.338     -158.556        8.716       60.561       97.669       49.964     3667.668     9539.204     2496.438        2.590        0.785      189.806       41.144        0.047      350.790       32.213      857.951
07/10/2014  14:42:00       46.480      -49.133       32.425       45.316       79.295       46.360     2053.527     6287.715     2149.249        0.806        0.525       67.634       49.924        0.545      350.932       32.462      857.919
07/10/2014  14:43:00       11.626      -19.978       46.207       37.519       55.995       38.844     1407.691     3135.456     1508.880        0.436        0.303       23.114       33.006        2.039      351.187       32.906      857.910
07/10/2014  14:44:00      132.187      -36.999       52.854       85.274       94.258       71.642     7271.609     8884.603     5132.598        2.146        1.064      137.267       62.219        0.205      351.048       32.662      857.901
07/10/2014  14:45:00      147.984     -167.647        9.494      129.384      163.404       82.624    16740.316    26700.878     6826.731        5.017        2.513      223.618      107.519        0.231      351.038       32.645      857.881
07/10/2014  14:46:00       64.531      -19.286       74.985       81.962      137.142       82.298     6717.739    18807.876     6772.888        2.122        1.615       67.351       79.807        1.404      351.486       33.427      857.867
07/10/2014  14:47:00       29.412       55.919       68.201       55.282       53.859       69.491     3056.122     2900.834     4829.001        0.971        0.539       63.182       54.261        0.738      351.435       33.339      857.879
07/10/2014  14:48:00       47.007       42.349       60.827       59.663       49.767       41.362     3559.640     2476.744     1710.826        0.772        0.387       63.270       36.706        0.337      351.001       32.583      857.868
07/10/2014  14:49:00       18.170        2.838       22.435       40.178       42.097       36.008     1614.301     1772.166     1296.542        0.276        0.234       18.390       30.257        2.707      351.112       32.776      857.865
07/10/2014  14:50:00       51.497      -70.270        2.498       66.524       81.013       40.268     4425.405     6563.129     1621.494        1.010        0.631       87.119       48.854        0.314      351.164       32.866      857.863
07/10/2014  14:51:00       70.152     -101.662        5.885       62.280       73.216       39.274     3878.765     5360.602     1542.433        1.303        0.539      123.517       42.971        0.121      351.568       33.570      857.870
07/10/2014  14:52:00       46.261     -102.826        7.131       46.953       50.822       32.417     2204.568     2582.878     1050.861        0.930        0.292      112.753       24.881        0.049      351.780       33.941      857.877
07/10/2014  14:53:00      -20.933       18.326        0.411       48.380       35.055       36.755     2340.610     1228.872     1350.893        0.285        0.246       27.821       24.445        0.772      351.595       33.619      857.864
07/10/2014  14:54:00      -96.596        5.974      -25.649       32.570       29.633       24.638     1060.835      878.102      607.049        0.628        0.127       96.781       13.751        0.020      351.576       33.586      857.844
07/10/2014  14:55:00      -56.563      -20.416        1.675       42.986       29.266       25.078     1847.818      856.523      628.916        0.348        0.167       60.135       20.365        0.115      351.550       33.541      857.836
07/10/2014  14:56:00      -49.271      -12.173       -3.468       56.735       73.591       42.295     3218.830     5415.615     1788.866        0.650        0.521       50.753       48.038        0.896      351.423       33.319      857.832
07/10/2014  14:57:00      -84.644        8.571       16.116       82.840       42.010       40.995     6862.481     1764.812     1680.593        0.890        0.515       85.077       47.428        0.311      351.500       33.452      857.814
07/10/2014  14:58:00      -38.786      -35.500        0.193       44.105       43.138       27.951     1945.265     1860.887      781.274        0.368        0.229       52.580       23.391        0.198      351.554       33.547      857.818
07/10/2014  14:59:00     -159.014      -51.270       -9.121       81.918       88.003       38.398     6710.636     7744.503     1474.372        2.196        0.796      167.075       43.829        0.069      351.077       32.714      857.807
07/10/2014  15:00:00      -12.304      -92.116       -9.798       50.657       50.183       32.150     2566.156     2518.314     1033.627        0.742        0.306       92.934       18.978        0.042      350.732       32.114      857.802
07/10/2014  15:01:00        4.642       -9.334        9.458       89.357       65.902       40.456     7984.641     4343.054     1636.654        0.708        0.698       10.425       35.784       11.782      351.053       32.673      857.781
07/10/2014  15:02:00     -129.667     -111.683      -20.840       47.184       35.019       28.542     2226.356     1226.304      814.662        1.699        0.213      171.133       24.195        0.020      350.815       32.256      857.753
07/10/2014  15:03:00     -121.352      -33.206       -4.705       94.962       47.729       42.358     9017.804     2278.071     1794.241        1.447        0.655      125.813       50.590        0.162      351.090       32.737      857.749
07/10/2014  15:04:00     -125.728       55.782      -11.741       68.846       56.724       42.725     4739.751     3217.622     1825.410        1.442        0.489      137.547       30.549        0.049      351.138       32.820      857.736
07/10/2014  15:05:00      -33.782      112.199       -5.169       28.941       64.753       33.009      837.563     4193.013     1089.585        0.994        0.306      117.174       37.954        0.105      351.112       32.775      857.729
07/10/2014  15:06:00      -46.885      145.739      -13.241       38.635       40.803       29.431     1492.700     1664.889      866.156        1.382        0.201      153.095       21.184        0.019      350.890       32.389      857.725
07/10/2014  15:07:00      -30.220      162.667      -15.846       42.570       47.387       29.488     1812.202     2245.522      869.550        1.628        0.246      165.450       23.034        0.019      350.857       32.332      857.724
07/10/2014  15:08:00      -29.988      128.191      -13.569       31.723       48.657       31.999     1006.335     2367.464     1023.905        1.096        0.220      131.652       21.129        0.026      350.962       32.516      857.718
07/10/2014  15:09:00       67.135       40.975       -9.127       34.241       35.839       27.185     1172.424     1284.444      739.048        0.473        0.160       78.651       14.698        0.035      350.849       32.317      857.704
07/10/2014  15:10:00       60.088       44.745        6.744       35.270       36.681       26.462     1243.949     1345.461      700.236        0.447        0.164       74.918       14.033        0.035      350.728       32.108      857.698
07/10/2014  15:11:00        7.484       27.202        0.669       37.306       27.708       21.213     1391.726      767.736      449.974        0.170        0.130       28.213       20.583        0.532      351.090       32.737      857.687
07/10/2014  15:12:00       -0.369       12.897        7.712       23.922       18.611       22.892      572.270      346.358      524.035        0.083        0.072       12.902       11.462        0.789      351.510       33.471      857.677
07/10/2014  15:13:00       17.815       -2.734       14.760       28.359       18.200       24.813      804.234      331.255      615.696        0.115        0.088       18.023       17.264        0.918      351.801       33.979      857.673
07/10/2014  15:14:00       19.536       -6.442       13.429       30.063       35.587       25.218      903.776     1266.438      635.923        0.170        0.140       20.570       16.202        0.620      351.266       33.045      857.673
07/10/2014  15:15:00       17.348       20.957       48.180       40.250       40.966       31.062     1620.031     1678.250      964.847        0.366        0.213       27.205       20.779        0.583      351.176       32.887      857.672
07/10/2014  15:16:00      117.282      -32.589       12.466       47.703       46.696       43.275     2275.557     2180.504     1872.701        1.065        0.316      121.726       31.278        0.066      350.569       31.830      857.662
07/10/2014  15:17:00       37.183      -67.564       -0.023       38.910       33.814       27.330     1513.992     1143.384      746.903        0.468        0.170       77.120       16.272        0.045      350.806       32.243      857.658
07/10/2014  15:18:00       -4.095        8.746       16.691       31.907       27.659       27.520     1018.083      765.012      757.366        0.146        0.127        9.657       18.556        3.692      351.772       33.928      857.630
07/10/2014  15:19:00      -61.234      -28.812        8.154       67.522       41.877       33.298     4559.199     1753.706     1108.733        0.603        0.371       67.674       38.887        0.330      351.575       33.584      857.620
07/10/2014  15:20:00     -105.536      -44.050        2.354       48.715       44.539       25.577     2373.137     1983.704      654.163        0.905        0.251      114.361       15.175        0.018      351.179       32.894      857.618
07/10/2014  15:21:00      -59.293      -18.535      -14.159       55.498       25.849       23.790     3079.976      668.156      565.957        0.419        0.216       62.122       21.041        0.115      351.188       32.910      857.621
07/10/2014  15:22:00      -10.815       54.942      -12.574       52.316       48.043       33.285     2736.916     2308.140     1107.908        0.472        0.308       55.996       31.125        0.309      351.368       33.223      857.617
07/10/2014  15:23:00       34.300       54.645       39.326       55.997       46.929       36.184     3135.685     2202.370     1309.310        0.618        0.332       64.518       22.964        0.127      351.340       33.175      857.606
07/10/2014  15:24:00       58.502      -62.668        4.052       59.043       58.205       30.995     3486.133     3387.772      960.661        0.760        0.392       85.731       31.136        0.132      350.648       31.968      857.598
07/10/2014  15:25:00       35.539      -11.813       24.942       58.275       63.063       39.224     3395.937     3976.898     1538.491        0.547        0.446       37.451       48.353        1.667      351.181       32.895      857.591
07/10/2014  15:26:00      -27.344       11.528      -18.573       22.624       25.614       17.876      511.847      656.088      319.545        0.136        0.074       29.675       11.475        0.150      350.978       32.543      857.590
07/10/2014  15:27:00     -101.058      -42.653       -0.647       56.634       59.218       29.087     3207.414     3506.746      846.036        0.979        0.378      109.690       27.942        0.065      351.346       33.184      857.575
07/10/2014  15:28:00     -126.330     -111.074       -3.713       72.154       47.984       37.605     5206.237     2302.474     1414.130        1.862        0.446      168.216       37.497        0.050      350.903       32.411      857.569
07/10/2014  15:29:00      -37.293      -69.462        7.780       37.263       30.906       21.198     1388.560      955.188      449.352        0.453        0.140       78.840       22.389        0.081      351.052       32.671      857.564
07/10/2014  15:30:00        0.661      -45.722       14.933       29.202       41.573       21.028      852.729     1728.328      442.156        0.267        0.151       45.727       19.376        0.180      351.225       32.973      857.566
07/10/2014  15:31:00      -14.909      -80.390       -3.352       52.276       46.924       30.452     2732.734     2201.858      927.319        0.628        0.293       81.761       22.517        0.076      351.021       32.618      857.562
07/10/2014  15:32:00       42.401      -27.156       33.007       60.514       84.936       55.756     3661.946     7214.065     3108.768        0.880        0.699       50.352       50.361        1.000      351.085       32.729      857.560
07/10/2014  15:33:00       47.731     -130.162       -4.630       29.914       58.260       33.843      894.875     3394.249     1145.332        1.234        0.272      138.638       33.843        0.060      350.977       32.539      857.582
07/10/2014  15:34:00       16.378      -39.818       26.178       48.028       55.841       34.657     2306.733     3118.167     1201.101        0.458        0.331       43.055       37.090        0.742      351.121       32.791      857.589
07/10/2014  15:35:00       -8.805      -78.337       -9.162       68.650       50.918       28.842     4712.871     2592.690      831.857        0.722        0.407       78.830       13.607        0.030      351.072       32.706      857.586
07/10/2014  15:36:00      -26.760      -88.487       10.920       37.500       66.682       32.764     1406.230     4446.490     1073.493        0.779        0.346       92.444       38.849        0.177      351.155       32.852      857.587
07/10/2014  15:37:00       12.000      -64.118       10.090       34.670       45.394       24.026     1202.038     2060.574      577.254        0.410        0.192       65.232       16.440        0.064      351.328       33.153      857.584
07/10/2014  15:38:00      -31.452     -138.395       -1.903       33.965       63.625       37.390     1153.652     4048.195     1398.004        1.337        0.330      141.924       29.913        0.044      350.942       32.480      857.597
07/10/2014  15:39:00        7.911      -76.071        7.887       54.986       70.011       52.432     3023.419     4901.527     2749.121        0.829        0.534       76.481       43.957        0.330      350.846       32.311      857.605
07/10/2014  15:40:00      -22.770        0.946       31.785       26.562       44.725       26.124      705.533     2000.305      682.480        0.246        0.169       22.790       15.416        0.458      350.760       32.163      857.594
07/10/2014  15:41:00       -7.261       24.955       39.185       18.944       34.195       22.253      358.870     1169.275      495.186        0.212        0.101       25.990       18.271        0.494      350.540       31.780      857.598
07/10/2014  15:42:00       19.695      -12.907       10.710       23.638       29.385       14.475      558.736      863.494      209.521        0.115        0.082       23.547       11.314        0.231      350.665       31.998      857.590
07/10/2014  15:43:00       11.909      -58.746       25.565       44.431       71.521       47.364     1974.084     5115.273     2243.325        0.679        0.467       59.941       37.614        0.394      350.984       32.554      857.579
07/10/2014  15:44:00        6.958      -31.801       19.341       38.699       53.496       32.535     1497.583     2861.777     1058.521        0.342        0.271       32.554       30.442        0.874      350.969       32.528      857.578
07/10/2014  15:45:00       13.898      -42.375       15.674       38.167       69.567       41.432     1456.701     4839.518     1716.643        0.512        0.401       44.596       31.354        0.494      350.714       32.084      857.571
07/10/2014  15:46:00      -12.295      -66.426        9.389       73.592       54.818       40.376     5415.817     3005.039     1630.187        0.735        0.503       67.555       34.365        0.259      351.161       32.862      857.584
07/10/2014  15:47:00      -67.704      -24.835        5.454       55.755       35.202       25.088     3108.641     1239.147      629.419        0.510        0.249       72.116       27.251        0.143      351.264       33.040      857.596
07/10/2014  15:48:00      -72.780      -84.569       -2.642       77.427       40.272       34.991     5994.955     1621.869     1224.374        1.065        0.442      111.574       38.104        0.117      351.124       32.796      857.600
07/10/2014  15:49:00       -2.608        1.512        2.247       26.904       26.388       22.000      723.800      696.316      484.021        0.096        0.095        3.015       14.623       23.532      351.070       32.702      857.600
07/10/2014  15:50:00       -8.450       -7.787      -12.831       50.518       26.109       18.020     2552.025      681.684      324.720        0.193        0.178       11.491       13.496        1.379      351.011       32.599      857.602
07/10/2014  15:51:00      -65.358      -32.973        2.107       30.190       23.871       18.077      911.433      569.818      326.778        0.359        0.090       73.205       18.630        0.065      351.070       32.702      857.611
07/10/2014  15:52:00       -1.713      -37.438        9.909       40.992       26.167       24.966     1680.312      684.725      623.278        0.225        0.149       37.478       20.290        0.293      351.145       32.832      857.610
07/10/2014  15:53:00     -138.840     -106.590        0.749      143.857       67.808       45.296    20694.915     4597.969     2051.723        2.899        1.367      175.037       54.731        0.098      351.031       32.634      857.625
07/10/2014  15:54:00     -167.417     -129.019       24.275      121.455       96.711       60.982    14751.252     9352.964     3718.835        3.654        1.391      211.363       63.900        0.091      351.044       32.654      857.635
07/10/2014  15:55:00     -245.259      -93.312       -1.635      123.883       95.986       47.014    15347.008     9213.350     2210.347        4.781        1.339      262.410       40.905        0.024      350.939       32.472      857.665
07/10/2014  15:56:00     -210.389      -45.898       17.764      138.118      122.530       73.413    19076.509    15013.662     5389.449        4.308        1.974      215.338       87.686        0.166      350.828       32.278      857.691
07/10/2014  15:57:00     -138.192     -110.786       18.837      122.183      109.136       64.945    14928.763    11910.705     4217.820        3.139        1.553      177.118       59.382        0.112      350.711       32.075      857.694
07/10/2014  15:58:00      -95.236      -79.285        4.628      107.745       61.833       43.983    11609.039     3823.336     1934.509        1.637        0.868      123.919       45.568        0.135      350.592       31.869      857.684
07/10/2014  15:59:00     -222.835      -84.513        4.273      184.281      132.537       64.078    33959.327    17565.999     4105.956        5.621        2.782      238.323       71.135        0.089      350.423       31.574      857.680
07/10/2014  16:00:00     -303.976     -174.195       -9.403      109.812      139.626       63.849    12058.770    19495.329     4076.697        7.923        1.782      350.350       64.794        0.034      350.272       31.312      857.646
07/10/2014  16:01:00     -270.015      -68.838      -12.895      150.209      108.717       59.981    22562.725    11819.421     3597.685        5.789        1.899      278.652       47.457        0.029      350.228       31.233      857.613
07/10/2014  16:02:00     -225.569     -176.543       -0.253      125.912      118.392       55.926    15853.825    14016.647     3127.684        5.752        1.650      286.442       61.409        0.046      350.339       31.428      857.613
07/10/2014  16:03:00     -213.716     -177.049       -7.015      112.384       85.490       60.945    12630.086     7308.552     3714.284        5.036        1.183      277.527       57.933        0.044      350.429       31.584      857.629
07/10/2014  16:04:00     -165.153     -178.770        4.052      116.685      116.149       65.023    13615.440    13490.674     4228.017        4.529        1.567      243.381       67.247        0.076      350.384       31.507      857.672
07/10/2014  16:05:00     -131.597      -24.946        4.369       69.553       43.668       41.196     4837.629     1906.896     1697.102        1.320        0.422      133.940       27.679        0.043      350.515       31.736      857.702
07/10/2014  16:06:00      -64.539      -85.610       20.385       78.076      130.365       59.478     6095.863    16995.064     3537.631        1.926        1.331      107.212       55.301        0.266      350.398       31.532      857.700
07/10/2014  16:07:00     -141.225      -44.810       17.017      109.369       68.371       46.188    11961.543     4674.636     2133.303        2.050        0.938      148.163       48.329        0.106      350.291       31.347      857.672
07/10/2014  16:08:00      -64.672     -172.448       10.370       59.564      183.648       52.484     3547.822    33726.518     2754.531        3.702        2.001      184.175       31.928        0.030      350.386       31.510      857.694
07/10/2014  16:09:00       -0.885     -193.943       16.296       38.691       98.440       43.146     1496.995     9690.480     1861.581        2.546        0.652      193.945       44.126        0.052      350.468       31.653      857.693
07/10/2014  16:10:00       15.428        4.675       18.621       62.130       49.087       35.078     3860.142     2409.566     1230.472        0.405        0.375       16.121       28.982        3.232      350.578       31.847      857.687
07/10/2014  16:11:00     -113.843      -29.862        2.449      104.029       60.044       31.427    10822.031     3605.248      987.651        1.463        0.771      117.694       39.400        0.112      350.593       31.872      857.672
07/10/2014  16:12:00     -232.374        2.377      -21.914      104.884      109.482       51.250    11000.591    11986.308     2626.574        4.004        1.281      232.386       48.963        0.044      350.570       31.828      857.670
07/10/2014  16:13:00     -107.569       18.368        9.439      106.957       60.818       47.164    11439.751     3698.850     2224.416        1.468        0.868      109.126       46.302        0.180      350.659       31.986      857.680
07/10/2014  16:14:00     -233.278     -103.064        1.298      145.722      132.181       56.839    21235.004    17471.943     3230.661        5.348        2.097      255.031       67.507        0.070      350.429       31.584      857.689
07/10/2014  16:15:00     -142.077      -55.418       16.330      150.854      113.432       69.999    22756.803    12866.788     4899.809        3.202        2.026      152.502       65.794        0.186      350.336       31.424      857.672
07/10/2014  16:16:00     -124.507      -57.971      -11.938      124.395       60.105       45.725    15474.039     3612.646     2090.776        2.009        1.059      137.341       32.966        0.058      350.301       31.362      857.668
07/10/2014  16:17:00     -192.058      -59.086       -4.490      165.778       97.621       46.049    27482.486     9529.929     2120.544        3.976        1.957      200.941       56.907        0.080      350.266       31.302      857.661
07/10/2014  16:18:00      -56.664      -51.150       -0.942       29.350       70.547       24.850      861.437     4976.926      617.517        0.614        0.323       76.336       13.590        0.032      350.255       31.284      857.634
07/10/2014  16:19:00     -100.043       71.703       -2.333       68.664       47.055       28.340     4714.694     2214.168      803.156        1.144        0.387      123.085       27.441        0.050      350.409       31.552      857.683
07/10/2014  16:20:00     -113.233      -46.301       29.204      105.652      117.052       63.937    11162.391    13701.252     4087.962        2.238        1.448      122.334       63.029        0.265      350.521       31.745      857.696
07/10/2014  16:21:00     -299.370      -44.069      -32.757      267.419      144.960       72.651    71512.903    21013.323     5278.148        9.520        4.890      302.596      114.934        0.144      350.320       31.394      857.685
07/10/2014  16:22:00      -43.546        0.312       23.002       88.865      102.211       73.939     7897.047    10447.067     5466.933        1.311        1.191       43.547       57.298        1.731      350.341       31.432      857.640
07/10/2014  16:23:00     -327.146     -109.075      -22.049      207.975      102.944       71.467    43253.750    10597.473     5107.479        8.917        2.948      344.850       84.143        0.060      350.107       31.024      857.594
07/10/2014  16:24:00     -264.288     -114.376       20.505      259.310      155.183       99.615    67241.700    24081.916     9923.207        9.228        5.062      287.976      130.152        0.204      350.152       31.102      857.543
07/10/2014  16:25:00     -472.304     -150.231      -23.177      227.013      154.097       89.965    51534.926    23745.856     8093.768       16.476        4.169      495.622       96.599        0.038      350.058       30.938      857.531
07/10/2014  16:26:00     -719.049      -49.328      -93.449      197.116      164.084       89.373    38854.620    26923.588     7987.587       30.097        3.688      720.739      103.154        0.020      350.037       30.903      857.513
07/10/2014  16:27:00     -266.035     -177.851       -6.396      212.505      139.911      100.019    45158.523    19575.048    10003.881        8.858        3.737      320.009      120.498        0.142      350.163       31.119      857.536
07/10/2014  16:28:00     -403.519     -176.047      -12.630      195.323      158.556       84.441    38150.888    25140.139     7130.345       13.219        3.521      440.250       72.889        0.027      350.092       30.998      857.560
07/10/2014  16:29:00     -382.706     -145.675        1.888      224.683      180.039       88.620    50482.473    32414.070     7853.528       12.920        4.538      409.493      103.591        0.064      350.100       31.010      857.588
07/10/2014  16:30:00     -273.958     -196.191        9.042      175.271      154.697       89.152    30719.986    23931.144     7948.164        8.810        3.130      336.963      104.252        0.096      350.091       30.995      857.613
07/10/2014  16:31:00     -307.769     -118.953        9.859      188.651      182.288       89.077    35589.276    33228.838     7934.654        9.285        3.838      329.957      110.938        0.113      350.141       31.082      857.638
07/10/2014  16:32:00     -371.675     -316.524       -5.087      236.375      172.373      101.009    55873.146    29712.414    10202.799       16.706        4.789      488.191      119.490        0.060      350.000       30.838      857.621
07/10/2014  16:33:00     -197.461      -61.186       13.604      169.376      101.516       76.901    28688.140    10305.414     5913.702        4.391        2.245      206.723       85.834        0.172      350.131       31.067      857.633
07/10/2014  16:34:00     -301.929     -177.438        0.195      178.640      144.032       69.384    31912.427    20745.196     4814.190        9.005        2.874      350.207       82.669        0.056      350.093       30.999      857.648
07/10/2014  16:35:00     -349.707     -137.001       -6.434      126.243      110.863       71.598    15937.330    12290.704     5126.299        8.722        1.668      375.585       66.769        0.032      350.112       31.032      857.655
07/10/2014  16:36:00     -218.795      -37.958      -10.564      121.704       90.107       65.919    14811.856     8119.328     4345.254        3.835        1.364      222.063       53.047        0.057      350.153       31.104      857.667
07/10/2014  16:37:00      -58.306       16.889       49.574      132.682      121.483       77.297    17604.538    14758.151     5974.758        2.223        1.917       60.702       87.163        2.062      350.250       31.273      857.663
07/10/2014  16:38:00     -194.708      -41.602       12.904      142.986      127.610       60.074    20445.056    16284.396     3608.927        4.007        2.017      199.103       42.924        0.046      350.237       31.251      857.685
07/10/2014  16:39:00     -255.643        2.958       -8.433      222.043      145.645       80.924    49303.064    21212.499     6548.665        7.124        3.853      255.660       81.601        0.102      350.151       31.101      857.681
07/10/2014  16:40:00     -311.595     -154.232       -7.797      154.584      141.184       81.737    23896.130    19933.031     6680.939        8.572        2.526      347.677       75.585        0.047      350.083       30.981      857.700
07/10/2014  16:41:00     -393.103     -100.681       -1.725      205.910      147.049       93.053    42398.748    21623.369     8658.817       11.866        3.634      405.792       99.765        0.060      350.128       31.059      857.709
07/10/2014  16:42:00     -469.893     -139.263      -41.117      185.012      207.250       83.137    34229.323    42952.602     6911.706       16.297        4.205      490.095       85.748        0.031      350.049       30.922      857.710
07/10/2014  16:43:00     -246.355      -66.953        4.433      151.842      111.359       64.353    23056.019    12400.786     4141.294        5.239        1.980      255.291       77.715        0.093      350.147       31.093      857.726
07/10/2014  16:44:00     -219.804     -130.297      -10.839      148.502       86.569       63.149    22052.725     7494.159     3987.790        4.947        1.677      255.521       76.749        0.090      350.172       31.135      857.735
07/10/2014  16:45:00     -116.181      -44.962       13.421       91.114       67.600       45.009     8301.713     4569.771     2025.838        1.530        0.745      124.577       44.525        0.128      350.239       31.255      857.737
07/10/2014  16:46:00      -88.053      -67.546       17.316       83.163       56.854       41.573     6916.035     3232.375     1728.338        1.224        0.594      110.977       47.708        0.185      350.303       31.367      857.733
07/10/2014  16:47:00     -229.862     -143.775        7.752      136.385      139.840       58.320    18600.856    19555.242     3401.251        5.756        2.078      271.123       52.889        0.038      350.193       31.173      857.725
07/10/2014  16:48:00     -377.000     -236.185      -11.466      191.735      140.887       93.691    36762.140    19849.198     8777.962       13.171        3.269      444.874      104.570        0.055      350.156       31.109      857.707
07/10/2014  16:49:00     -374.735     -282.363       -1.008      184.227      160.390       96.703    33939.633    25724.923     9351.439       14.457        3.451      469.207       97.745        0.043      350.135       31.071      857.733
07/10/2014  16:50:00     -349.105     -170.915      -10.710      155.528      146.292       87.952    24189.064    21401.326     7735.622       10.225        2.666      388.698       90.548        0.054      350.171       31.136      857.737
07/10/2014  16:51:00     -323.556     -244.304      -14.032      153.679      133.579       80.552    23617.167    17843.372     6488.649       10.625        2.397      405.429       82.222        0.041      350.092       30.998      857.754
07/10/2014  16:52:00     -346.566     -266.012       -5.954      210.873      158.060       95.507    44467.567    24982.919     9121.674       13.473        3.929      436.888      111.631        0.065      350.157       31.112      857.764
07/10/2014  16:53:00     -310.531     -124.128      -11.200      182.844      157.144       76.400    33432.037    24694.355     5836.970        8.795        3.198      334.421       86.187        0.066      350.203       31.190      857.757
07/10/2014  16:54:00     -375.098     -234.137       -1.967      247.362      153.731       72.947    61188.125    23633.347     5321.198       14.282        4.507      442.175       83.433        0.036      350.170       31.133      857.791
07/10/2014  16:55:00     -350.383     -354.726      -14.042      198.129      217.528       87.106    39255.033    47318.516     7587.535       17.146        4.708      498.596      102.144        0.042      350.003       30.843      857.810
07/10/2014  16:56:00     -315.439     -144.504        7.227      184.883      129.903       89.098    34181.752    16874.740     7938.472        8.971        2.950      346.963       92.706        0.071      350.036       30.900      857.774
07/10/2014  16:57:00     -126.259      -87.823       15.094      106.807      104.784       61.126    11407.753    10979.660     3736.388        2.500        1.306      153.799       60.083        0.153      350.093       30.999      857.786
07/10/2014  16:58:00     -221.045     -113.090       -5.353      202.455      137.211       81.522    40988.113    18826.958     6645.808        6.406        3.323      248.295      104.815        0.178      350.081       30.980      857.794
07/10/2014  16:59:00     -209.871     -187.864        3.914      144.078      119.194       68.538    20758.405    14207.217     4697.390        5.950        1.983      281.671       66.145        0.055      350.084       30.983      857.800
07/10/2014  17:00:00     -260.572     -188.720        9.768      212.474      172.916       88.633    45145.195    29900.005     7855.727        9.324        4.145      321.735       84.583        0.069      349.969       30.787      857.763
07/10/2014  17:01:00     -274.983     -221.867      -10.808      194.579      131.163       83.942    37860.959    17203.647     7046.278        9.352        3.106      353.328       83.524        0.056      349.979       30.804      857.777
07/10/2014  17:02:00     -245.917     -176.540       -1.522      159.597      116.531       72.420    25471.156    13579.425     5244.709        6.796        2.215      302.723       73.665        0.059      350.005       30.847      857.779
07/10/2014  17:03:00     -219.608     -246.272      -12.796      113.904      174.136       76.192    12974.204    30323.201     5805.245        7.906        2.455      329.965       75.936        0.053      349.953       30.756      857.774
07/10/2014  17:04:00     -342.439     -140.301      -15.740      144.305      137.529       76.002    20823.810    18914.280     5776.312        9.135        2.276      370.066       83.057        0.050      349.963       30.776      857.766
07/10/2014  17:05:00     -298.232     -188.229       -7.578      152.746      103.544       56.797    23331.260    10721.378     3225.925        8.085        1.864      352.665       62.619        0.032      349.950       30.752      857.740
07/10/2014  17:06:00     -170.827      -78.299        9.561      158.636      139.823       73.427    25165.265    19550.477     5391.496        4.275        2.505      187.916       85.148        0.205      350.024       30.881      857.736
07/10/2014  17:07:00     -339.689     -174.046       -2.293      188.764      178.318       80.932    35631.715    31797.340     6550.067       10.982        3.699      381.681       93.976        0.061      349.927       30.711      857.710
07/10/2014  17:08:00     -223.444     -191.583      -18.483      110.434      108.331       53.889    12195.711    11735.700     2904.050        5.690        1.342      294.332       47.182        0.026      349.946       30.747      857.723
07/10/2014  17:09:00     -442.998      -87.852      -34.449      179.219      115.553       88.337    32119.341    13352.604     7803.356       12.920        2.664      451.625       89.382        0.039      349.881       30.631      857.722
07/10/2014  17:10:00     -331.004     -101.780       -7.015      217.484      137.271       77.451    47299.122    18843.458     5998.616        9.604        3.607      346.299      105.140        0.092      349.847       30.573      857.722
07/10/2014  17:11:00     -317.711     -123.409       -0.646      168.093      154.892       72.407    28255.322    23991.564     5242.822        8.682        2.874      340.837       67.112        0.039      349.866       30.606      857.735
07/10/2014  17:12:00     -372.034     -171.149        6.710      199.787      172.972      100.356    39914.982    29919.475    10071.396       12.381        3.995      409.514      101.819        0.062      349.747       30.398      857.729
07/10/2014  17:13:00     -286.047      -31.836       -0.698      206.090      120.007       87.912    42473.210    14401.683     7728.493        7.371        3.230      287.814       99.438        0.119      349.724       30.359      857.757
07/10/2014  17:14:00     -213.232     -115.948        5.034      191.646      187.501       88.917    36728.072    35156.464     7906.267        6.935        3.990      242.718      109.400        0.203      349.733       30.374      857.765
07/10/2014  17:15:00     -292.922     -177.903        4.850      187.209      126.815       88.091    35047.376    16082.075     7759.967        8.817        2.944      342.714       98.469        0.083      349.649       30.228      857.771
07/10/2014  17:16:00     -390.932     -184.775       -7.092      201.003      155.437       89.089    40402.374    24160.593     7936.829       12.975        3.625      432.400      107.382        0.062      349.647       30.224      857.781
07/10/2014  17:17:00     -203.133      -96.497       -1.056      145.159      142.531       62.704    21071.067    20315.040     3931.788        4.794        2.266      224.888       56.673        0.064      349.669       30.265      857.786
07/10/2014  17:18:00     -130.446      -56.476       18.024      131.305      118.775       70.727    17241.053    14107.507     5002.370        2.843        1.818      142.147       59.759        0.177      349.682       30.288      857.795
07/10/2014  17:19:00     -222.568      -60.798        6.840      161.844      116.720       71.065    26193.468    13623.655     5050.232        4.907        2.243      230.723       79.419        0.118      349.638       30.210      857.789
07/10/2014  17:20:00     -147.240     -137.288        0.913      174.236      146.635       82.445    30358.107    21501.803     6797.211        4.958        2.933      201.314       92.535        0.211      349.615       30.171      857.779
07/10/2014  17:21:00     -317.498      -42.721      -13.286      174.312      131.590       72.760    30384.812    17315.889     5293.993        7.789        2.650      320.360       78.894        0.061      349.570       30.091      857.794
07/10/2014  17:22:00     -299.883     -114.883       -2.667      159.614      145.501       76.146    25476.499    21170.593     5798.197        7.778        2.622      321.135       75.241        0.055      349.577       30.105      857.816
07/10/2014  17:23:00     -416.564     -227.961       -2.132      202.679      159.579       83.260    41078.855    25465.601     6932.303       14.947        3.674      474.860       78.585        0.027      349.487       29.949      857.803
07/10/2014  17:24:00     -253.279     -146.108       -5.157      160.455      150.071       68.356    25745.736    22521.183     4672.591        6.922        2.647      292.400       69.208        0.056      349.550       30.057      857.808
07/10/2014  17:25:00     -277.345     -106.027        7.003      187.357      129.384       74.693    35102.530    16740.230     5579.054        7.281        2.871      296.921       83.012        0.078      349.567       30.087      857.821
07/10/2014  17:26:00     -324.318     -260.751       -6.346      200.932      173.492       89.146    40373.530    30099.593     7947.065       12.580        3.921      416.141       95.271        0.052      349.536       30.033      857.799
07/10/2014  17:27:00     -568.057     -270.341      -19.218      232.571      168.353       99.436    54089.378    28342.690     9887.483       24.422        4.616      629.105      104.872        0.028      349.473       29.923      857.773
07/10/2014  17:28:00     -434.068      -71.012      -12.936      178.543      167.045       87.203    31877.433    27904.137     7604.341       13.049        3.369      439.839       76.894        0.031      349.509       29.985      857.805
07/10/2014  17:29:00     -368.019      -54.917       -3.321      223.260      195.632       97.790    49845.108    38271.788     9562.794       11.806        4.884      372.094      108.065        0.084      349.486       29.945      857.813
07/10/2014  17:30:00     -265.011     -182.686        1.285      180.061      166.382       98.985    32421.958    27682.880     9798.035        8.674        3.495      321.877      102.253        0.101      349.485       29.944      857.815
07/10/2014  17:31:00     -361.294     -136.985      -14.041      211.058      160.366       89.157    44545.373    25717.215     7948.964       11.384        3.911      386.391       98.982        0.066      349.480       29.935      857.826
07/10/2014  17:32:00     -440.521      -19.688      -16.851      192.492      168.671       87.852    37053.152    28449.781     7718.044       13.396        3.661      440.960       94.574        0.046      349.423       29.836      857.846
07/10/2014  17:33:00     -405.344     -148.145       -2.511      231.864      182.239       81.268    53760.769    33211.027     6604.446       13.990        4.679      431.567       90.355        0.044      349.368       29.740      857.850
07/10/2014  17:34:00     -271.082     -182.183       21.107      209.226      212.334      101.993    43775.658    45085.592    10402.641       10.318        4.963      326.613      117.151        0.129      349.274       29.579      857.808
07/10/2014  17:35:00     -252.053     -119.072        3.887      198.291      159.347       88.984    39319.198    25391.543     7918.219        7.516        3.631      278.763      102.429        0.135      349.287       29.602      857.808
07/10/2014  17:36:00     -342.358     -212.988      -16.632      241.029      176.639       99.915    58095.019    31201.286     9983.099       13.105        4.964      403.203       99.408        0.061      349.163       29.387      857.800
07/10/2014  17:37:00     -297.181     -197.948      -16.395      216.645      171.644      100.367    46935.161    29461.566    10073.464       10.710        4.324      357.071      115.508        0.105      349.184       29.421      857.802
07/10/2014  17:38:00     -272.890     -234.395       15.115      202.398      183.783      107.878    40964.835    33776.062    11637.714       10.799        4.319      359.737      105.232        0.086      349.154       29.371      857.810
07/10/2014  17:39:00     -420.399      -88.545       -0.380      301.107      192.114      104.867    90665.712    36907.915    10997.081       16.155        6.929      429.622      140.255        0.107      349.162       29.384      857.815
07/10/2014  17:40:00     -521.220     -207.871      -34.396      339.835      206.996      114.482   115487.762    42847.375    13106.128       24.372        8.572      561.142      167.084        0.089      349.113       29.299      857.805
07/10/2014  17:41:00     -529.640     -137.946       -0.058      287.985      213.648      119.267    82935.283    45645.398    14224.640       22.115        7.140      547.309      144.285        0.069      349.086       29.252      857.821
07/10/2014  17:42:00     -415.649      -55.301      -11.215      271.163      175.566      100.240    73529.608    30823.585    10047.964       14.516        5.720      419.312      122.319        0.085      349.102       29.280      857.854
07/10/2014  17:43:00     -369.308      -14.541        0.753      224.458      167.823      104.547    50381.263    28164.442    10930.070       11.302        4.474      369.595      101.906        0.076      349.093       29.265      857.877
07/10/2014  17:44:00     -306.323      -32.112        0.040      216.532      178.319       92.549    46885.936    31797.760     8565.269        9.104        4.362      308.001      103.994        0.114      349.098       29.273      857.901
07/10/2014  17:45:00     -245.789     -123.135       22.386      245.264      154.734      102.116    60154.315    23942.759    10427.744        8.528        4.726      274.908      123.499        0.202      349.112       29.298      857.885
07/10/2014  17:46:00     -422.400      -70.651      -11.846      231.070      159.917      100.511    53393.419    25573.448    10102.433       13.630        4.453      428.268      108.044        0.064      349.084       29.248      857.892
07/10/2014  17:47:00     -322.638      -69.999       -5.563      214.557      189.784       93.310    46034.858    36017.939     8706.805        9.988        4.538      330.144       94.534        0.082      349.120       29.310      857.901
07/10/2014  17:48:00     -242.135     -154.014       41.370      231.946      157.118      108.990    53799.026    24686.182    11878.911        8.720        4.518      286.966      125.102        0.190      349.096       29.270      857.887
07/10/2014  17:49:00     -332.033     -194.163       -5.003      231.250      149.877       87.250    53476.440    22463.130     7612.605       11.575        4.178      384.636       98.912        0.066      349.129       29.326      857.885
07/10/2014  17:50:00     -306.184     -213.923      -13.160      196.523      141.531       98.137    38621.156    20031.037     9630.910       10.397        3.414      373.512      110.482        0.087      349.130       29.330      857.897
07/10/2014  17:51:00     -238.256      -82.722       14.125      174.286      135.092       85.528    30375.719    18249.944     7315.013        5.987        2.797      252.208       93.227        0.137      349.162       29.384      857.878
07/10/2014  17:52:00     -180.278      -85.607       -1.064      130.352      102.180       54.674    16991.553    10440.759     2989.236        3.512        1.521      199.572       54.863        0.076      349.192       29.437      857.892
07/10/2014  17:53:00     -244.529     -132.376        2.822      180.484      131.026       71.967    32574.605    17167.898     5179.251        6.611        2.746      278.060       84.127        0.092      349.186       29.426      857.878
07/10/2014  17:54:00     -316.624     -136.333        1.436      229.326      150.314       81.357    52590.312    22594.252     6618.887       10.031        4.090      344.728      115.554        0.112      349.146       29.358      857.876
07/10/2014  17:55:00     -348.584     -137.278      -14.836      230.194      140.862       85.135    52989.129    19842.111     7247.991       11.031        4.004      374.641      112.972        0.091      349.158       29.377      857.868
07/10/2014  17:56:00     -220.460     -160.604       -3.772      159.821      106.967       73.966    25542.650    11441.852     5470.950        5.843        2.123      272.757       67.465        0.061      349.173       29.406      857.896
07/10/2014  17:57:00     -306.964     -114.737      -12.818      151.353      102.555       81.554    22907.858    10517.553     6651.093        7.381        2.004      327.706       83.433        0.065      349.194       29.441      857.878
07/10/2014  17:58:00     -284.427      -91.385      -19.567      133.961      115.351       58.927    17945.552    13305.748     3472.385        6.217        1.736      298.747       64.188        0.046      349.190       29.433      857.895
07/10/2014  17:59:00     -221.493     -132.245       -2.052      136.070      134.707       62.192    18515.141    18146.033     3867.892        5.353        2.026      257.969       63.056        0.060      349.197       29.447      857.899
07/10/2014  18:00:00     -371.427     -144.112      -13.165      127.003      113.053       57.953    16129.791    12781.019     3358.565        9.558        1.613      398.405       49.306        0.015      349.159       29.378      857.879
07/10/2014  18:01:00     -396.519      -80.651      -20.068      200.125      190.490       80.623    40049.971    36286.573     6500.076       12.347        4.142      404.638       94.553        0.055      349.150       29.362      857.891
07/10/2014  18:02:00     -294.993      -84.779      -15.504      131.590      108.017       64.175    17315.976    11667.677     4118.390        6.377        1.655      306.934       61.436        0.040      349.148       29.360      857.902
07/10/2014  18:03:00     -316.538     -105.058       -1.676      164.840      139.700       67.055    27172.090    19516.165     4496.306        8.120        2.559      333.517       63.047        0.036      349.153       29.368      857.893
07/10/2014  18:04:00     -482.491     -139.729      -35.158      145.496      135.377       81.785    21169.002    18326.931     6688.754       14.986        2.309      502.317       63.842        0.016      349.069       29.222      857.899
07/10/2014  18:05:00     -426.009      -57.457      -16.643      188.361      152.182       89.535    35479.715    23159.395     8016.556       12.585        3.333      429.867       87.280        0.041      349.045       29.179      857.909
07/10/2014  18:06:00     -467.220     -131.086      -22.801      156.540      170.258       79.236    24504.782    28987.829     6278.384       14.787        2.989      485.260       68.794        0.020      348.974       29.060      857.907
07/10/2014  18:07:00     -452.010      -43.421      -31.207      240.348      189.168       84.410    57767.233    35784.345     7125.004       15.391        5.034      454.090       77.327        0.029      348.951       29.020      857.912
07/10/2014  18:08:00     -419.509      -87.895      -18.731      203.642      151.289       89.199    41470.231    22888.376     7956.396       12.818        3.616      428.618       98.913        0.053      348.961       29.036      857.923
07/10/2014  18:09:00     -473.369     -159.500      -21.466      169.992      179.323       90.926    28897.332    32156.820     8267.508       15.964        3.466      499.518       77.451        0.024      348.949       29.015      857.919
07/10/2014  18:10:00     -378.634      -48.953      -16.529      195.664      160.725       79.295    38284.578    25832.481     6287.647       10.821        3.520      381.786       90.965        0.057      348.978       29.067      857.903
07/10/2014  18:11:00     -409.055      -28.520       -6.102      230.854      170.782       92.241    53293.529    29166.566     8508.336       12.956        4.548      410.048      111.856        0.074      348.989       29.083      857.899
07/10/2014  18:12:00     -669.701      -92.725      -55.709      196.553      154.125       94.063    38633.006    23754.407     8847.873       26.571        3.562      676.089      105.776        0.024      348.941       29.003      857.879
07/10/2014  18:13:00     -422.363     -121.654      -25.376      223.421      195.813       91.087    49917.024    38342.834     8296.811       14.518        4.828      439.534      101.190        0.053      348.987       29.082      857.883
07/10/2014  18:14:00     -448.997     -120.863        2.792      208.089      181.452       95.455    43301.192    32924.941     9111.568       15.076        4.267      464.980      105.138        0.051      348.978       29.067      857.904
07/10/2014  18:15:00     -429.856      -94.631      -13.357      188.845      155.161       87.573    35662.408    24074.858     7669.055       13.065        3.370      440.149       98.638        0.050      348.983       29.076      857.897
07/10/2014  18:16:00     -405.931      -76.947      -30.795      180.382      158.401       80.399    32537.724    25090.757     6463.923       11.786        3.205      413.159       81.212        0.039      348.988       29.084      857.871
07/10/2014  18:17:00     -300.816      -91.972      -10.350      147.126      139.504       69.252    21646.168    19461.235     4795.805        7.247        2.295      314.562       67.798        0.046      349.010       29.122      857.886
07/10/2014  18:18:00     -438.551       14.611      -35.113      162.794      114.564       65.712    26501.773    13124.802     4318.123       11.885        2.197      438.794       58.478        0.018      349.000       29.104      857.880
07/10/2014  18:19:00     -223.379      -70.818       19.292      182.125      105.267       78.016    33169.407    11081.049     6086.422        5.280        2.517      234.336       94.135        0.161      349.038       29.171      857.864
07/10/2014  18:20:00     -306.983      -23.811       -3.552      167.996      134.719       68.584    28222.728    18149.325     4703.795        7.294        2.554      307.905       74.755        0.059      349.035       29.165      857.839
07/10/2014  18:21:00     -348.321      -63.638      -16.269      157.524      146.446       78.188    24813.681    21446.449     6113.313        8.900        2.619      354.087       78.834        0.050      349.052       29.193      857.868
07/10/2014  18:22:00     -315.003       49.431       -6.623      213.882      110.299       78.458    45745.452    12165.856     6155.607        8.288        3.203      318.858      104.955        0.108      349.089       29.258      857.855
07/10/2014  18:23:00     -186.396      -58.639       11.294      169.529      133.614       82.695    28740.040    17852.720     6838.466        4.586        2.672      195.402       88.752        0.206      349.113       29.299      857.843
07/10/2014  18:24:00     -365.941     -208.370      -13.853      165.787      170.151       77.129    27485.335    28951.270     5948.840       11.994        3.119      421.107       67.533        0.026      349.125       29.319      857.861
07/10/2014  18:25:00     -400.439     -227.981      -21.013      225.850      172.008       96.483    51008.042    29586.883     9309.064       15.132        4.495      460.789      100.275        0.047      349.099       29.275      857.857
07/10/2014  18:26:00     -269.995     -115.336       -0.814      156.958      168.011       70.030    24635.873    28227.653     4904.178        7.197        2.888      293.598       77.842        0.070      349.124       29.319      857.904
07/10/2014  18:27:00     -488.761      -42.397      -17.913      204.830      163.103       95.911    41955.252    26602.528     9198.957       15.937        3.888      490.596       99.443        0.041      349.037       29.166      857.911
07/10/2014  18:28:00     -486.821      -35.298      -28.173      223.883      131.498       87.739    50123.639    17291.598     7698.112       15.706        3.756      488.099       97.118        0.040      349.043       29.176      857.941
07/10/2014  18:29:00     -447.990      -47.661      -12.350      295.979      135.607       76.601    87603.279    18389.358     5867.688       15.747        5.593      450.518      107.122        0.057      349.070       29.225      857.954
07/10/2014  18:30:00     -310.894      -38.288       -5.879      170.250      126.126       79.240    28984.970    15907.677     6278.899        7.465        2.559      313.243       63.478        0.041      349.075       29.232      857.960
07/10/2014  18:31:00     -452.108      -38.932      -33.087      173.764      161.848       80.437    30193.889    26194.648     6470.190       13.492        3.143      453.781       82.488        0.033      349.054       29.195      857.992
07/10/2014  18:32:00     -387.288     -159.964      -28.039      191.933      167.075       72.887    36838.454    27914.102     5312.557       12.320        3.503      419.023       74.808        0.032      349.053       29.194      857.993
07/10/2014  18:33:00     -386.855      -96.027       -5.201      146.925      125.071       74.570    21586.844    15642.840     5560.671       10.084        2.140      398.595       70.540        0.031      349.052       29.191      858.013
07/10/2014  18:34:00     -345.223      -59.190       -9.651      172.722      146.662       74.117    29832.739    21509.597     5493.328        8.979        2.842      350.261       84.656        0.058      349.031       29.158      858.056
07/10/2014  18:35:00     -382.524       -5.432      -29.282      241.183      161.297       81.201    58169.164    26016.805     6593.585       11.898        4.539      382.563      111.162        0.084      348.981       29.071      858.057
07/10/2014  18:36:00     -483.083        2.842      -47.991      150.164      118.553       68.148    22549.185    14054.861     4644.213       13.846        2.062      483.091       72.904        0.023      348.962       29.040      858.063
07/10/2014  18:37:00     -408.052      -19.814      -38.499      163.719      135.155       75.488    26803.880    18266.883     5698.492       10.957        2.538      408.533       76.895        0.035      348.964       29.043      858.076
07/10/2014  18:38:00     -376.554      -46.714      -29.023      143.933      141.895       69.139    20716.663    20134.266     4780.197        9.522        2.282      379.440       49.944        0.017      349.004       29.112      858.091
07/10/2014  18:39:00     -373.545     -156.124      -20.076      139.872      108.636       57.300    19564.076    11801.740     3283.236        9.947        1.732      404.859       51.203        0.016      349.002       29.108      858.097
07/10/2014  18:40:00     -326.509     -120.630      -10.128      202.646      157.481       85.536    41065.352    24800.216     7316.428        9.721        3.659      348.080       80.220        0.053      349.033       29.160      858.091
07/10/2014  18:41:00     -330.178      -64.471        0.998      223.439      157.119       88.032    49924.954    24686.313     7749.604        9.775        4.118      336.413      103.125        0.094      349.045       29.181      858.124
07/10/2014  18:42:00     -306.357      -14.794      -11.063      138.339      104.667       64.288    19137.645    10955.110     4132.994        6.420        1.711      306.714       57.336        0.035      349.037       29.165      858.152
07/10/2014  18:43:00     -264.409      -47.719        2.931      147.035      109.749       68.600    21619.337    12044.760     4705.974        5.528        1.919      268.681       74.611        0.077      349.039       29.170      858.178
07/10/2014  18:44:00     -423.832      -91.716      -43.628      154.769      132.269       75.223    23953.314    17494.966     5658.570       11.852        2.355      433.642       79.586        0.034      349.024       29.145      858.186
07/10/2014  18:45:00     -239.094      -52.808      -10.099       86.619       68.250       57.574     7502.782     4658.128     3314.738        3.776        0.774      244.856       51.284        0.044      349.036       29.165      858.216
07/10/2014  18:46:00     -231.028     -148.371        0.558      127.958      102.801       57.875    16373.347    10568.058     3349.523        5.283        1.515      274.569       61.524        0.050      349.044       29.178      858.236
07/10/2014  18:47:00     -327.022     -130.354       -9.835      160.517      110.446       67.494    25765.853    12198.423     4555.426        8.327        2.126      352.045       67.045        0.036      349.059       29.205      858.254
07/10/2014  18:48:00     -322.546     -161.683      -11.363      162.474      132.348       75.347    26397.907    17515.938     5677.171        8.994        2.480      360.801       84.709        0.055      349.073       29.229      858.260
07/10/2014  18:49:00     -305.436     -100.327       -5.184      201.609      109.242       73.977    40646.172    11933.900     5472.526        8.071        2.903      321.492       82.521        0.066      349.072       29.228      858.262
07/10/2014  18:50:00     -290.591      -84.304      -18.851      131.591       99.441       54.060    17316.128     9888.488     2922.467        6.101        1.506      302.573       60.633        0.040      349.093       29.264      858.262
07/10/2014  18:51:00     -235.987     -111.016       -8.643      124.177       87.983       62.265    15419.956     7740.947     3876.992        4.756        1.352      260.796       67.716        0.067      349.091       29.260      858.259
07/10/2014  18:52:00     -103.244      -77.377       13.611      129.743       94.206       51.571    16833.187     8874.699     2659.594        2.259        1.418      129.022       61.283        0.226      349.120       29.313      858.251
07/10/2014  18:53:00     -164.327      -15.783       14.757      155.146      113.619       64.204    24070.155    12909.184     4122.120        3.428        2.055      165.084       65.504        0.157      349.115       29.304      858.248
07/10/2014  18:54:00     -172.467     -107.209       10.931      138.510      116.012       68.024    19184.950    13458.738     4627.303        3.931        1.864      203.073       69.589        0.117      349.147       29.359      858.262
07/10/2014  18:55:00     -234.315     -159.136       -9.158      134.009      115.003       54.252    17958.479    13225.664     2943.321        5.721        1.706      283.245       42.182        0.022      349.130       29.327      858.266
07/10/2014  18:56:00     -172.624      -83.161        8.025      122.649       86.211       43.584    15042.819     7432.281     1899.580        3.057        1.219      191.611       44.007        0.053      349.122       29.317      858.266
07/10/2014  18:57:00     -269.452      -67.690      -10.662      138.826      111.185       58.437    19272.560    12362.071     3414.912        5.617        1.752      277.824       57.409        0.043      349.074       29.231      858.270
07/10/2014  18:58:00     -402.692     -107.238      -26.239      124.982      116.184       64.699    15620.562    13498.838     4186.006       10.382        1.665      416.726       63.426        0.023      349.051       29.191      858.265
07/10/2014  18:59:00     -372.600      -64.906       -6.721      132.162      123.728       76.252    17466.861    15308.657     5814.432        9.083        1.929      378.211       72.680        0.037      349.038       29.169      858.283
07/10/2014  19:00:00     -285.936      -61.199        1.009      140.285      102.446       59.261    19679.840    10495.120     3511.808        5.959        1.684      292.412       73.330        0.063      349.050       29.190      858.305
07/10/2014  19:01:00     -188.194      -61.062       -7.119       84.245       64.592       44.525     7097.303     4172.156     1982.520        2.622        0.663      197.853       41.067        0.043      349.055       29.198      858.330
07/10/2014  19:02:00     -211.637      -53.917       -3.417      116.389       77.929       55.580    13546.390     6072.930     3089.170        3.520        1.135      218.397       62.559        0.082      349.081       29.244      858.370
07/10/2014  19:03:00     -138.961     -122.952        3.458       81.851       65.853       45.792     6699.544     4336.562     2096.864        2.378        0.657      185.546       44.047        0.056      349.140       29.347      858.424
07/10/2014  19:04:00     -114.826     -144.294       -4.470       65.388       70.425       38.771     4275.636     4959.713     1503.203        2.238        0.537      184.407       36.408        0.039      349.156       29.374      858.469
07/10/2014  19:05:00      -70.611     -126.002        7.724       78.506       58.101       39.007     6163.260     3375.696     1521.507        1.599        0.553      144.438       30.175        0.044      349.155       29.373      858.491
07/10/2014  19:06:00      -25.010      -34.051       -5.048       58.599       41.102       26.952     3433.829     1689.369      726.414        0.383        0.292       42.249       12.181        0.083      349.096       29.273      858.492
07/10/2014  19:07:00      -43.057      -81.946       13.109       80.293       57.869       38.702     6446.947     3348.852     1497.847        1.001        0.565       92.569       39.815        0.185      349.179       29.418      858.498
07/10/2014  19:08:00       -1.375      -67.641        2.806       97.738       79.662       39.674     9552.730     6346.091     1574.031        1.103        0.874       67.655       42.522        0.395      349.132       29.335      858.512
07/10/2014  19:09:00       17.840      -72.177       -3.693       49.354       70.919       34.731     2435.846     5029.554     1206.236        0.710        0.434       74.349       44.580        0.360      349.154       29.372      858.535
07/10/2014  19:10:00       28.316     -127.675       -8.830       51.109       44.248       34.928     2612.138     1957.850     1219.950        1.148        0.289      130.777       26.136        0.040      349.181       29.420      858.547
07/10/2014  19:11:00        9.779     -113.331        2.670       71.983       69.009       33.812     5181.594     4762.278     1143.260        1.201        0.554      113.752       17.385        0.023      349.230       29.505      858.560
07/10/2014  19:12:00       16.279      -72.548        6.500       83.089       65.894       43.908     6903.747     4342.076     1927.900        0.937        0.659       74.352       35.700        0.231      349.306       29.637      858.559
07/10/2014  19:13:00       22.370      -68.290       -3.204       53.114       54.978       34.976     2821.088     3022.555     1223.288        0.612        0.353       71.860       34.732        0.234      349.305       29.635      858.579
07/10/2014  19:14:00       91.825        2.894       58.362      105.448       97.176       69.664    11119.254     9443.256     4853.086        1.863        1.271       91.870       73.619        0.642      349.363       29.735      858.576
07/10/2014  19:15:00      121.247     -186.579      -32.694       97.519       65.818       39.547     9509.912     4332.005     1563.991        3.299        0.770      222.514       33.103        0.022      349.455       29.892      858.588
07/10/2014  19:16:00       35.613      -63.232       42.937       60.331       86.660       64.928     3639.856     7509.892     4215.663        1.123        0.768       72.571       56.723        0.611      349.464       29.911      858.588
07/10/2014  19:17:00        0.663      -58.928       14.721       48.545       63.599       50.473     2356.662     4044.779     2547.508        0.632        0.447       58.932       34.700        0.347      349.435       29.860      858.603
07/10/2014  19:18:00       -3.756        4.220       15.173       26.382       21.601       25.207      696.021      466.610      635.411        0.103        0.090        5.649       14.182        6.302      349.395       29.791      858.622
07/10/2014  19:19:00        3.046     -101.804        5.642       70.988       75.272       43.889     5039.307     5665.937     1926.255        1.152        0.632      101.850       38.554        0.143      349.322       29.664      858.627
07/10/2014  19:20:00       69.856      -80.957        8.329       74.338       69.498       41.535     5526.184     4830.041     1725.135        1.179        0.604      106.929       29.995        0.079      349.430       29.851      858.637
07/10/2014  19:21:00       79.635      -45.996       62.313       77.201      110.348       85.377     5959.989    12176.672     7289.309        1.888        1.271       91.964       85.199        0.858      349.404       29.806      858.633
07/10/2014  19:22:00       58.057       24.903      120.494      115.003      130.953       94.024    13225.726    17148.743     8840.471        2.885        1.961       63.172       92.496        2.144      349.458       29.899      858.635
07/10/2014  19:23:00       57.508       18.019      120.257      111.334      132.645       88.621    12395.199    17594.573     7853.676        2.796        1.892       60.265       91.830        2.322      349.429       29.848      858.647
07/10/2014  19:24:00      138.349      -89.249       56.524      106.214      175.497      112.531    11281.342    30799.117    12663.150        4.251        2.737      164.638      134.260        0.665      349.422       29.834      858.654
07/10/2014  19:25:00       68.852      -88.009       -2.175       74.394       65.429       57.195     5534.401     4280.995     3271.307        1.279        0.654      111.741       42.382        0.144      349.379       29.763      858.678
07/10/2014  19:26:00       16.706     -155.708       13.174       82.923       92.990       53.041     6876.291     8647.054     2813.309        2.151        0.917      156.602       39.672        0.064      349.310       29.642      858.686
07/10/2014  19:27:00       24.127      -33.453       48.036       71.123       93.045       42.810     5058.515     8657.457     1832.673        0.978        0.777       41.246       48.605        1.389      349.232       29.508      858.690
07/10/2014  19:28:00       14.979      -31.565       28.973       31.190       54.876       35.224      972.811     3011.395     1240.701        0.364        0.261       34.939       36.153        1.071      349.135       29.340      858.696
07/10/2014  19:29:00       50.654      -57.579       56.337       78.276      150.168       63.627     6127.087    22550.438     4048.385        2.088        1.636       76.688       79.560        1.076      349.188       29.431      858.699
07/10/2014  19:30:00      160.754     -172.171       20.531      132.408      195.650      124.235    17531.811    38278.845    15434.434        6.356        3.562      235.551      135.574        0.331      349.227       29.499      858.664
07/10/2014  19:31:00      118.122     -137.720        2.733      121.241      150.816       71.741    14699.340    22745.344     5146.805        3.775        2.130      181.437       90.915        0.251      349.204       29.460      858.691
07/10/2014  19:32:00      119.882     -142.830       55.538      157.589      199.931      124.526    24834.420    39972.567    15506.828        5.907        4.016      186.472      134.478        0.520      349.160       29.379      858.669
07/10/2014  19:33:00      124.193     -215.922       -5.586      130.624      122.473       72.469    17062.635    14999.720     5251.779        4.969        1.866      249.091       67.116        0.073      349.122       29.315      858.686
07/10/2014  19:34:00      159.019     -204.353        9.665      103.798      140.800       74.662    10774.119    19824.614     5574.390        5.165        1.809      258.935       70.074        0.073      349.092       29.263      858.677
07/10/2014  19:35:00       61.867       10.452       97.649       83.861      145.580       89.694     7032.651    21193.476     8045.004        2.486        1.814       62.744      104.800        2.790      349.043       29.181      858.641
07/10/2014  19:36:00       29.971     -129.541       16.695       80.152       95.199       52.269     6424.306     9062.847     2732.069        1.808        0.911      132.963       36.800        0.077      349.051       29.194      858.660
07/10/2014  19:37:00       81.161      -65.553       10.130       83.879       90.671       49.859     7035.714     8221.173     2485.922        1.436        0.887      104.328       60.226        0.333      349.060       29.210      858.647
07/10/2014  19:38:00      132.263     -174.634       37.808      142.350      216.085      114.627    20263.584    46692.524    13139.337        6.474        4.005      219.068      145.008        0.438      349.059       29.205      858.646
07/10/2014  19:39:00       70.541      -66.867      111.936       94.359      226.066      110.084     8903.639    51105.841    12118.536        4.704        3.606       97.197      139.294        2.054      349.047       29.185      858.629
07/10/2014  19:40:00      142.180     -278.732        1.116      120.576      134.514       74.320    14538.462    18093.971     5523.393        6.802        1.908      312.901       69.288        0.049      349.039       29.170      858.639
07/10/2014  19:41:00       22.856     -124.149        8.410      103.527      110.492       60.459    10717.835    12208.376     3655.239        2.129        1.329      126.236       46.373        0.135      348.986       29.081      858.645
07/10/2014  19:42:00       87.729     -106.364       31.594       85.565      113.525       66.974     7321.374    12887.992     4485.469        2.235        1.235      137.876       66.415        0.232      348.984       29.076      858.638
07/10/2014  19:43:00      195.331     -304.930        6.128      124.488      134.240       64.649    15497.345    18020.322     4179.545        8.443        1.885      362.128       68.786        0.036      349.013       29.125      858.626
07/10/2014  19:44:00      147.928     -186.624       -7.200      123.827      167.793       82.844    15333.087    28154.326     6863.188        5.355        2.518      238.141       92.162        0.150      348.984       29.076      858.616
07/10/2014  19:45:00       91.775     -103.695       28.828       95.452      138.819       73.757     9111.060    19270.801     5440.034        2.691        1.691      138.475       77.059        0.310      349.006       29.115      858.619
07/10/2014  19:46:00       95.371     -133.441        8.195       91.755      133.441       70.529     8418.930    17806.528     4974.383        2.908        1.560      164.019       79.347        0.234      348.943       29.005      858.615
07/10/2014  19:47:00       27.583      -16.630       60.210       72.184       96.850       46.943     5210.506     9379.979     2203.638        1.073        0.840       32.208       49.667        2.378      348.817       28.788      858.622
07/10/2014  19:48:00       92.097     -147.485      -11.723      122.961      110.333       59.141    15119.472    12173.263     3497.670        3.057        1.540      173.878       60.352        0.120      348.958       29.032      858.624
07/10/2014  19:49:00      114.922     -230.662       14.992      138.770      161.035       90.874    19257.092    25932.154     8258.153        6.003        2.672      257.705       80.950        0.099      348.956       29.028      858.601
07/10/2014  19:50:00       62.535      -36.652       78.497      119.360      162.001       93.356    14246.832    26244.240     8715.417        3.030        2.460       72.485      106.605        2.163      348.992       29.090      858.612
07/10/2014  19:51:00      141.880      -74.869       31.834      128.594      134.954       68.047    16536.430    18212.708     4630.377        3.306        1.969      160.422       78.990        0.242      348.928       28.981      858.602
07/10/2014  19:52:00      152.370     -192.530       57.223      130.403      223.133      109.089    17004.895    49788.383    11900.305        7.111        3.935      245.529      128.315        0.273      348.970       29.053      858.594
07/10/2014  19:53:00       58.267       24.745      140.521      112.219      151.387      102.146    12593.074    22917.901    10433.906        3.484        2.297       63.304      108.022        2.912      348.992       29.093      858.588
07/10/2014  19:54:00      107.017     -108.372       58.263      113.979      139.130      102.400    12991.307    19357.116    10485.665        3.470        2.142      152.306       96.562        0.402      348.996       29.099      858.598
07/10/2014  19:55:00       -3.732      -68.390       47.501       54.172       72.140       39.088     2934.628     5204.135     1527.906        0.831        0.483       68.491       25.610        0.140      348.979       29.068      858.650
07/10/2014  19:56:00       12.358       26.767       78.073       58.287       74.472       51.485     3397.411     5546.056     2650.680        0.928        0.580       29.483       27.986        0.901      348.798       28.756      858.643
07/10/2014  19:57:00      -16.423      -45.402       47.002       86.827       83.279       61.610     7539.005     6935.420     3795.774        1.140        0.914       48.281       55.531        1.323      348.871       28.882      858.663
07/10/2014  19:58:00       42.788      -85.341        5.667       68.283       98.904       54.240     4662.620     9782.041     2941.967        1.326        0.869       95.466       59.986        0.395      348.816       28.786      858.678
07/10/2014  19:59:00       28.880      -32.722       59.885       63.651      102.350       54.421     4051.440    10475.484     2961.643        1.149        0.874       43.644       63.889        2.143      348.947       29.014      858.690
07/10/2014  20:00:00      123.353      -34.524       55.698      111.027      113.741       69.911    12327.042    12937.062     4887.509        2.482        1.508      128.093       70.408        0.302      348.891       28.915      858.711
07/10/2014  20:01:00       -5.604       58.027      146.490       54.336      113.921       55.591     2952.413    12977.959     3090.347        2.194        0.951       58.297       58.755        1.016      348.980       29.071      858.728
07/10/2014  20:02:00       84.414      -71.476       82.927      106.201      146.579       74.707    11278.562    21485.429     5581.078        2.872        1.917      110.610       74.285        0.451      348.975       29.061      858.750
07/10/2014  20:03:00       91.435     -102.863       28.493      106.601      125.158       89.925    11363.780    15664.482     8086.560        2.743        1.756      137.627       90.724        0.435      348.957       29.031      858.766
07/10/2014  20:04:00       25.517      -19.531       46.928       53.901       87.019       46.664     2905.333     7572.221     2177.573        0.794        0.633       32.134       51.255        2.544      348.865       28.873      858.793
07/10/2014  20:05:00       82.112      -29.377       89.889      107.538      137.469      111.539    11564.469    18897.591    12440.999        2.929        2.145       87.209      103.638        1.412      348.943       29.006      858.784
07/10/2014  20:06:00       87.647     -127.338       10.567       99.040       87.313       64.236     9808.911     7623.557     4126.273        2.278        1.078      154.587       65.600        0.180      348.960       29.036      858.825
07/10/2014  20:07:00      107.615      -74.255       32.673      104.623      138.444       74.756    10945.909    19166.789     5588.501        2.692        1.785      130.747       89.492        0.468      348.976       29.063      858.830
07/10/2014  20:08:00       36.994       16.773       70.320       71.345       85.727       56.131     5090.149     7349.167     3150.686        1.109        0.780       40.619       64.033        2.485      348.856       28.856      858.841
07/10/2014  20:09:00       36.042      -43.594       81.079       61.955      135.141       70.763     3838.418    18263.154     5007.352        1.844        1.355       56.564       75.861        1.799      348.883       28.904      858.853
07/10/2014  20:10:00      120.954     -191.386      -17.610       76.941      127.969       56.417     5919.977    16376.165     3182.878        3.852        1.274      226.404       61.456        0.074      348.931       28.984      858.848
07/10/2014  20:11:00       59.155      -40.966       63.608      131.407      117.233       67.816    17267.910    13743.638     4598.945        2.241        1.781       71.955       89.398        1.544      348.828       28.809      858.861
07/10/2014  20:12:00       23.491       10.531       90.959       66.067       91.583       58.945     4364.914     8387.523     3474.540        1.258        0.811       25.744       53.637        4.341      348.933       28.991      858.867
07/10/2014  20:13:00       91.739     -117.529       10.080       71.302       71.661       47.255     5083.908     5135.359     2233.035        1.739        0.623      149.094       43.267        0.084      348.921       28.970      858.885
07/10/2014  20:14:00       89.402     -153.697       -6.185       46.273       54.125       37.723     2141.198     2929.464     1423.054        1.907        0.325      177.807       26.737        0.023      348.886       28.907      858.901
07/10/2014  20:15:00       23.854        0.036       41.051       41.381       45.064       30.854     1712.400     2030.791      951.981        0.347        0.235       23.854       31.164        1.707      348.799       28.758      858.916
07/10/2014  20:16:00       37.772       -6.864       41.500       56.915       56.556       36.311     3239.347     3198.636     1318.516        0.547        0.388       38.390       33.014        0.740      348.693       28.575      858.925
07/10/2014  20:17:00        5.359      -89.732      -12.328       46.035       49.883       35.778     2119.197     2488.270     1280.051        0.706        0.294       89.891       31.776        0.125      348.835       28.821      858.927
07/10/2014  20:18:00       21.976      -43.960       -1.610       25.767       31.714       32.443      663.963     1005.791     1052.561        0.257        0.136       49.147       23.874        0.236      348.743       28.665      858.941
07/10/2014  20:19:00       31.073      -61.983        7.760       34.411       33.856       23.188     1184.136     1146.199      537.693        0.387        0.143       69.335       17.644        0.065      348.803       28.765      858.945
07/10/2014  20:20:00       25.909      -65.453        5.632       33.476       36.154       21.347     1120.614     1307.124      455.705        0.393        0.144       70.394       15.233        0.047      348.809       28.777      858.943
07/10/2014  20:21:00       30.503      -31.639       26.513       34.516       43.233       26.402     1191.378     1869.054      697.083        0.320        0.188       43.948       28.356        0.416      348.743       28.663      858.944
07/10/2014  20:22:00       52.154     -100.397        9.510       70.423       76.054       39.438     4959.456     5784.182     1555.330        1.259        0.615      113.135       43.941        0.151      348.813       28.783      858.942
07/10/2014  20:23:00       58.742     -128.039       13.883       97.332      103.333       68.787     9473.528    10677.640     4731.597        2.246        1.244      140.871       57.050        0.164      348.874       28.887      858.931
07/10/2014  20:24:00      -59.083     -108.577       -0.702       60.023       72.209       34.397     3602.729     5214.140     1183.163        1.264        0.500      123.611       14.494        0.014      348.871       28.882      858.957
07/10/2014  20:25:00      -82.908     -122.674       -9.593       91.840       48.862       32.276     8434.656     2387.529     1041.765        1.694        0.593      148.064       27.795        0.035      348.960       29.035      858.940
07/10/2014  20:26:00       25.405      -95.597       -2.590       56.573       43.859       28.466     3200.518     1923.587      810.292        0.786        0.297       98.916       20.562        0.043      348.858       28.862      858.942
07/10/2014  20:27:00       42.045      -25.283       26.856       52.139       54.039       38.607     2718.462     2920.204     1490.480        0.513        0.356       49.061       28.563        0.339      348.844       28.836      858.946
07/10/2014  20:28:00      -28.699      -40.040       18.681       50.164       48.188       32.048     2516.456     2322.078     1027.066        0.432        0.293       49.263       29.104        0.349      348.914       28.956      858.942
07/10/2014  20:29:00       43.671     -102.546      -12.800       44.853       43.310       39.618     2011.793     1875.736     1569.607        0.902        0.273      111.458       21.922        0.039      348.817       28.789      858.966
07/10/2014  20:30:00       15.378      -94.705       13.085       45.105       37.103       32.581     2034.455     1376.660     1061.553        0.692        0.224       95.945       16.650        0.030      348.870       28.882      858.964
07/10/2014  20:31:00       35.194      -18.111       26.999       35.101       46.718       28.780     1232.069     2182.610      828.290        0.327        0.212       39.581       28.677        0.525      348.813       28.783      858.969
07/10/2014  20:32:00        9.716      -35.167       20.759       27.138       51.920       26.413      736.454     2695.672      697.659        0.295        0.206       36.484       21.789        0.357      348.741       28.659      858.968
07/10/2014  20:33:00        9.860      -86.093      -11.967       49.382       66.746       31.217     2438.600     4455.002      974.484        0.776        0.393       86.656       18.012        0.043      348.912       28.954      858.985
07/10/2014  20:34:00       -6.741      -95.804      -19.539       58.936       57.843       22.655     3473.503     3345.766      513.239        0.847        0.367       96.041       18.310        0.036      348.935       28.996      858.984
07/10/2014  20:35:00      -62.429      -53.994       -3.086       31.385       32.408       18.636      985.003     1050.288      347.315        0.460        0.119       82.539       12.099        0.021      348.864       28.871      859.002
07/10/2014  20:36:00      -17.652      -64.381       10.707       45.680       69.838       21.984     2086.682     4877.377      483.303        0.601        0.372       66.757       25.415        0.145      348.884       28.906      859.014
07/10/2014  20:37:00        4.700      -17.327       13.446       18.152       26.752       21.113      329.492      715.647      445.751        0.100        0.075       17.953       16.360        0.830      348.788       28.737      859.011
07/10/2014  20:38:00       35.157      -62.219        3.428       48.875       47.660       36.057     2388.792     2271.473     1300.073        0.554        0.298       71.465       31.728        0.197      348.844       28.836      859.011
07/10/2014  20:39:00       -0.214      -64.960        2.185       59.015       39.001       26.475     3482.733     1521.067      700.940        0.496        0.285       64.960       19.769        0.093      348.830       28.811      859.013
07/10/2014  20:40:00      -12.922      -22.814       -0.521       20.491       25.997       21.222      419.890      675.846      450.380        0.112        0.077       26.219       18.319        0.488      348.737       28.653      859.020
07/10/2014  20:41:00      -19.170       10.207       22.973       32.905       22.356       19.722     1082.730      499.770      388.952        0.149        0.099       21.718       12.124        0.312      348.719       28.619      859.037
07/10/2014  20:42:00       35.864      -60.812        1.385       37.944       78.446       32.258     1439.754     6153.826     1040.586        0.681        0.432       70.600       44.545        0.398      348.693       28.575      859.062
07/10/2014  20:43:00       37.638      -62.355       -5.995       29.830       57.344       25.058      889.845     3288.319      627.917        0.507        0.240       72.834       10.786        0.022      348.794       28.750      859.081
07/10/2014  20:44:00       13.679      -82.584       27.550       42.625       95.851       44.268     1816.861     9187.446     1959.669        1.036        0.648       83.709       49.500        0.350      348.667       28.531      859.089
07/10/2014  20:45:00       36.494      -68.996       13.169       73.432       95.577       50.864     5392.304     9134.990     2587.137        1.169        0.856       78.053       51.733        0.439      348.710       28.605      859.105
07/10/2014  20:46:00       75.714     -135.862       28.955       66.088      133.584       51.935     4367.640    17844.748     2697.295        2.496        1.245      155.535       60.063        0.149      348.922       28.971      859.118
07/10/2014  20:47:00       39.082      -69.912       12.284       35.428       27.707       27.849     1255.132      767.660      775.587        0.468        0.140       80.094       22.032        0.076      348.871       28.883      859.140
07/10/2014  20:48:00       87.623     -118.135        5.765       56.379       67.355       41.677     3178.606     4536.759     1737.002        1.556        0.473      147.084       32.954        0.050      348.893       28.921      859.168
07/10/2014  20:49:00       56.660     -109.616        8.220       72.291       89.857       42.781     5225.988     8074.275     1830.198        1.521        0.757      123.394       49.691        0.162      348.841       28.830      859.183
07/10/2014  20:50:00       52.113     -106.550       14.602       71.043       57.193       43.847     5047.055     3271.015     1922.599        1.226        0.512      118.611       37.774        0.101      348.820       28.796      859.204
07/10/2014  20:51:00       23.063      -53.900       13.511       47.016       51.087       36.494     2210.507     2609.914     1331.834        0.488        0.308       58.627       34.513        0.347      348.740       28.655      859.222
07/10/2014  20:52:00       51.206      -96.149       10.318       45.048       45.578       30.761     2029.307     2077.383      946.222        0.851        0.253      108.935       24.264        0.050      348.749       28.671      859.236
07/10/2014  20:53:00        4.987      -37.786        5.869       34.707       34.042       23.864     1204.604     1158.887      569.478        0.221        0.147       38.113       24.212        0.404      348.765       28.698      859.253
07/10/2014  20:54:00      -23.084      -19.383        4.862       29.715       32.803       17.455      883.006     1076.025      304.678        0.160        0.113       30.142        9.962        0.109      348.704       28.597      859.270
07/10/2014  20:55:00     -118.063      -15.742       -7.602       38.269       33.642       25.939     1464.553     1131.785      672.836        0.876        0.163      119.107       23.146        0.038      348.792       28.747      859.272
07/10/2014  20:56:00     -108.666      -45.748        3.442       78.459       38.310       28.453     6155.808     1467.691      809.582        1.117        0.422      117.903       28.990        0.060      348.808       28.773      859.280
07/10/2014  20:57:00      -58.004      -23.655       13.702       39.058       34.220       29.311     1525.512     1171.012      859.163        0.383        0.178       62.642       24.487        0.153      348.769       28.706      859.287
07/10/2014  20:58:00      -48.582     -117.836        2.207       44.443       53.435       33.071     1975.216     2855.291     1093.720        1.109        0.296      127.458       32.281        0.064      348.810       28.779      859.313
07/10/2014  20:59:00      -86.599     -101.929       -3.702       43.496       33.945       24.662     1891.867     1152.279      608.229        1.078        0.183      133.749       18.114        0.018      348.817       28.790      859.340
07/10/2014  21:00:00      -66.410      -63.215       11.926       48.983       60.384       33.356     2399.352     3646.225     1112.619        0.785        0.358       91.686       27.366        0.089      348.751       28.677      859.338
07/10/2014  21:01:00      -44.832      -79.083       10.240       33.533       51.592       26.504     1124.485     2661.723      702.437        0.643        0.224       90.907       20.709        0.052      348.740       28.656      859.332
07/10/2014  21:02:00      -80.095     -141.914       -6.473       47.296       51.931       29.001     2236.891     2696.861      841.042        1.618        0.289      162.957       13.645        0.007      348.744       28.665      859.330
07/10/2014  21:03:00      -78.234      -92.849        3.845       60.193       49.308       30.737     3623.190     2431.282      944.772        1.088        0.350      121.415       26.684        0.048      348.716       28.617      859.331
07/10/2014  21:04:00     -111.564     -102.774       -1.545       68.251       57.950       33.526     4658.199     3358.168     1123.966        1.607        0.457      151.687       34.425        0.052      348.723       28.628      859.338
07/10/2014  21:05:00     -125.472      -83.977        4.069       59.038       54.439       28.133     3485.529     2963.571      791.438        1.502        0.362      150.981       30.549        0.041      348.710       28.604      859.353
07/10/2014  21:06:00     -183.227     -106.287       -3.236       67.664       63.864       33.098     4578.373     4078.670     1095.479        2.731        0.488      211.823       26.189        0.015      348.664       28.520      859.370
07/10/2014  21:07:00     -147.316      -84.802       -5.771       82.069       81.685       31.136     6735.266     6672.372      969.471        2.165        0.719      169.981       38.125        0.050      348.630       28.463      859.393
07/10/2014  21:08:00     -159.741      -80.418        4.243       92.936       66.155       43.101     8637.008     4376.448     1857.707        2.343        0.744      178.842       48.217        0.073      348.621       28.448      859.405
07/10/2014  21:09:00     -307.511     -219.864      -13.173      121.316      102.997       62.209    14717.473    10608.333     3869.999        8.613        1.460      378.025       59.466        0.025      348.714       28.609      859.410
07/10/2014  21:10:00     -295.820     -180.142      -17.896      107.792       87.926       51.337    11619.012     7731.027     2635.442        7.113        1.099      346.354       42.576        0.015      348.755       28.680      859.409
07/10/2014  21:11:00     -306.819     -152.408      -22.907      111.554       98.947       54.082    12444.394     9790.412     2924.867        7.152        1.258      342.588       46.667        0.019      348.730       28.637      859.410
07/10/2014  21:12:00     -204.585      -55.222       12.872      119.449       90.632       50.465    14268.138     8214.072     2546.668        3.504        1.251      211.907       49.942        0.056      348.683       28.557      859.421
07/10/2014  21:13:00     -201.288      -87.156       -5.078      112.929       96.498       49.006    12753.026     9311.866     2401.621        3.630        1.223      219.347       57.154        0.068      348.700       28.585      859.451
07/10/2014  21:14:00     -324.757      -31.083      -20.400       83.994       75.740       43.936     7054.985     5736.545     1930.402        6.078        0.736      326.241       46.406        0.020      348.745       28.662      859.450
07/10/2014  21:15:00     -257.248      -81.694      -16.861      113.550       80.666       49.729    12893.522     6507.004     2472.993        4.750        1.094      269.908       45.767        0.029      348.774       28.712      859.468
07/10/2014  21:16:00      -93.352      -45.446       -2.331       76.146       54.136       38.049     5798.139     2930.716     1447.708        1.048        0.509      103.827       41.013        0.156      348.778       28.722      859.479
07/10/2014  21:17:00     -218.315        3.467      -14.403       69.345       66.099       40.396     4808.761     4369.021     1631.861        2.934        0.540      218.343       37.566        0.030      348.708       28.598      859.498
07/10/2014  21:18:00     -152.118      -39.372       -8.468       92.687       89.569       37.231     8590.965     8022.618     1386.134        2.138        0.900      157.131       30.991        0.039      348.710       28.605      859.505
07/10/2014  21:19:00     -114.525      -63.464        3.763       56.595       42.712       28.833     3202.947     1824.275      831.327        1.151        0.293      130.934       25.505        0.038      348.709       28.604      859.530
07/10/2014  21:20:00      -45.478      -41.543       18.795       60.545       54.075       32.054     3665.700     2924.055     1027.439        0.588        0.381       61.595       32.545        0.279      348.637       28.478      859.552
07/10/2014  21:21:00      -40.862      -75.916        9.492       37.514       50.683       20.496     1407.297     2568.816      420.101        0.596        0.220       86.215       14.992        0.030      348.649       28.500      859.577
07/10/2014  21:22:00      -49.813      -45.572        9.028       54.673       54.442       28.939     2989.172     2963.890      837.478        0.571        0.340       67.514       31.355        0.216      348.636       28.476      859.598
07/10/2014  21:23:00     -106.538      -59.849       -3.156       44.554       37.617       25.054     1985.032     1415.018      627.712        0.948        0.201      122.198       21.055        0.030      348.680       28.553      859.616
07/10/2014  21:24:00     -107.354      -20.709        1.954       64.081       76.681       34.379     4106.338     5880.046     1181.908        1.156        0.558      109.333       32.119        0.086      348.612       28.433      859.627
07/10/2014  21:25:00     -116.176      -26.943        3.542      106.877       96.392       57.944    11422.607     9291.495     3357.540        1.915        1.204      119.260       60.790        0.260      348.588       28.393      859.641
07/10/2014  21:26:00      -89.376      -86.762       10.866      112.879       86.708       56.401    12741.644     7518.213     3181.027        1.953        1.172      124.563       66.548        0.285      348.618       28.444      859.660
07/10/2014  21:27:00       -0.417        7.966        8.743       40.092       32.632       23.335     1607.365     1064.839      544.523        0.168        0.161        7.977       17.049        4.568      348.542       28.313      859.700
07/10/2014  21:28:00     -133.270      -24.549       -3.399       99.829       46.034       31.509     9965.869     2119.117      992.805        1.572        0.654      135.512       37.428        0.076      348.610       28.430      859.729
07/10/2014  21:29:00     -164.556      -58.852        5.053       76.241       60.396       31.698     5812.647     3647.643     1004.791        2.051        0.523      174.763       29.505        0.029      348.585       28.386      859.740
07/10/2014  21:30:00     -223.695      -46.176      -10.122       88.980       72.878       40.528     7917.386     5311.229     1642.484        3.357        0.744      228.411       38.039        0.028      348.558       28.337      859.773
07/10/2014  21:31:00      -71.158      -30.067        2.303       58.729       31.205       21.322     3449.121      973.732      454.638        0.542        0.244       77.250       20.331        0.069      348.542       28.314      859.780
07/10/2014  21:32:00     -119.065      -59.204        3.287      109.828       79.951       52.425    12062.088     6392.123     2748.406        1.944        1.060      132.973       64.712        0.237      348.569       28.358      859.778
07/10/2014  21:33:00     -177.114      -50.366       -3.659       90.483       64.600       38.634     8187.115     4173.184     1492.600        2.388        0.693      184.136       45.875        0.062      348.557       28.337      859.789
07/10/2014  21:34:00     -124.329      -62.237        4.737       81.712       44.045       33.377     6676.855     1939.959     1114.025        1.454        0.487      139.036       45.356        0.106      348.561       28.347      859.817
07/10/2014  21:35:00     -120.225      -89.593      -11.358       63.358       71.019       34.591     4014.256     5043.706     1196.508        1.643        0.513      149.936       36.259        0.058      348.610       28.431      859.822
07/10/2014  21:36:00      -75.810       33.104       -3.313       33.516       25.913       20.505     1123.349      671.465      420.438        0.453        0.111       82.722       16.697        0.041      348.541       28.311      859.811
07/10/2014  21:37:00     -181.610      -21.863      -12.436       60.106       50.830       25.815     3612.708     2583.643      666.390        2.024        0.343      182.921       24.822        0.018      348.526       28.285      859.814
07/10/2014  21:38:00     -232.302      -39.706       -7.217       84.126       63.232       34.499     7077.224     3998.300     1190.178        3.393        0.613      235.671       38.264        0.026      348.516       28.265      859.821
07/10/2014  21:39:00     -109.867      -35.994       -0.575       77.635       63.438       32.507     6027.186     4024.392     1056.685        1.224        0.555      115.612       34.861        0.091      348.466       28.182      859.844
07/10/2014  21:40:00     -231.914      -77.879       -8.957      106.977       68.074       44.733    11444.093     4634.096     2001.072        3.900        0.904      244.641       51.264        0.044      348.512       28.256      859.852
07/10/2014  21:41:00     -269.829      -21.846      -18.082      124.008       79.710       51.685    15377.966     6353.760     2671.323        4.900        1.220      270.712       55.609        0.042      348.525       28.281      859.869
07/10/2014  21:42:00     -191.925     -106.988        5.940       95.493       87.385       46.257     9118.847     7636.114     2139.673        3.360        0.945      219.731       44.110        0.040      348.540       28.307      859.873
07/10/2014  21:43:00     -232.956      -53.820      -23.612      106.330       86.690       40.280    11306.004     7515.162     1622.448        3.908        1.022      239.093       21.821        0.008      348.536       28.299      859.881
07/10/2014  21:44:00     -279.098      -52.621      -26.163       86.570       88.128       46.628     7494.395     7766.525     2174.216        4.939        0.872      284.016       36.057        0.016      348.544       28.313      859.887
07/10/2014  21:45:00     -271.582      -30.442       -3.443      109.190       70.478       48.342    11922.457     4967.165     2336.985        4.696        0.961      273.283       57.153        0.044      348.525       28.280      859.900
07/10/2014  21:46:00     -301.309      -57.609      -15.198      124.174       83.255       47.638    15419.199     6931.390     2269.352        5.947        1.231      306.767       43.602        0.020      348.557       28.336      859.923
07/10/2014  21:47:00      -95.930       27.174      -12.543       62.800       65.823       34.011     3943.869     4332.711     1156.758        0.976        0.472       99.704       27.647        0.077      348.526       28.283      859.931
07/10/2014  21:48:00     -110.182       18.860        1.057       99.042       69.727       32.098     9809.253     4861.849     1030.298        1.410        0.785      111.784       38.766        0.120      348.500       28.241      859.944
07/10/2014  21:49:00      -53.516      -25.069       16.724       65.137       34.500       33.185     4242.849     1190.244     1101.263        0.515        0.327       59.097       39.497        0.447      348.497       28.235      859.965
07/10/2014  21:50:00      -70.781      -52.320        3.190       64.221       50.152       32.466     4124.299     2515.267     1054.056        0.772        0.385       88.019       28.309        0.103      348.626       28.458      860.011
07/10/2014  21:51:00     -144.144      -37.012        1.550       99.318       77.795       45.810     9864.132     6052.076     2098.557        2.008        0.901      148.820       45.469        0.093      348.822       28.796      860.037
07/10/2014  21:52:00        9.961      -63.352       20.070       61.721       46.029       32.128     3809.479     2118.702     1032.192        0.574        0.348       64.130       27.193        0.180      348.716       28.615      860.069
07/10/2014  21:53:00       40.675       19.572       38.289       48.648       44.421       35.699     2366.617     1973.214     1274.440        0.456        0.281       45.139       37.562        0.692      348.514       28.265      860.078
07/10/2014  21:54:00       89.529       35.996       50.865       54.306       37.198       34.067     2949.124     1383.669     1160.549        0.869        0.275       96.494       31.138        0.104      348.439       28.137      860.071
07/10/2014  21:55:00       39.634       29.917       63.802       44.310       63.554       39.539     1963.414     4039.123     1563.320        0.705        0.378       49.658       44.229        0.793      348.340       27.966      860.064
07/10/2014  21:56:00       23.949      -32.992        8.626       34.517       40.873       38.675     1191.428     1670.624     1495.760        0.305        0.218       40.768       25.486        0.391      348.354       27.989      860.067
07/10/2014  21:57:00        5.151      -48.563        8.815       21.706       39.897       30.325      471.165     1591.766      919.604        0.272        0.149       48.836       18.699        0.147      348.465       28.180      860.074
07/10/2014  21:58:00       -3.368      -56.632       -1.339       32.880       27.496       20.225     1081.073      756.041      409.058        0.273        0.112       56.733       15.371        0.073      348.497       28.237      860.091
07/10/2014  21:59:00      -37.023      -26.408       -9.704       17.337       13.604       12.337      300.557      185.061      152.201        0.140        0.032       45.476        8.135        0.032      348.521       28.277      860.102
07/10/2014  22:00:00       -1.331       -0.446       -3.993        8.530        9.953        5.562       72.765       99.058       30.932        0.011        0.010        1.404        3.297        5.512      348.479       28.205      860.106
07/10/2014  22:01:00      -20.259        3.287       -7.409       24.288       25.055       19.059      589.892      627.747      363.237        0.103        0.079       20.524       16.022        0.609      348.584       28.385      860.111
07/10/2014  22:02:00       -6.205      -29.912      -11.342       10.324       14.656       14.101      106.581      214.810      198.842        0.079        0.026       30.549        9.157        0.090      348.600       28.417      860.117
07/10/2014  22:03:00       -6.122       -8.779        4.399       19.001       11.175       12.031      361.036      124.887      144.740        0.038        0.032       10.703       10.405        0.945      348.462       28.177      860.136
07/10/2014  22:04:00      -89.090      -30.225       -0.477       28.204       33.219       14.910      795.455     1103.511      222.294        0.549        0.106       94.078       15.727        0.028      348.497       28.235      860.149
07/10/2014  22:05:00     -102.235      -30.379       -7.567       21.103       29.061       20.253      445.319      844.558      410.183        0.657        0.085      106.654       10.061        0.009      348.541       28.312      860.154
07/10/2014  22:06:00     -163.712      -49.175       -6.975       43.728       30.045       17.143     1912.167      902.681      293.895        1.619        0.155      170.938       16.670        0.010      348.585       28.388      860.147
07/10/2014  22:07:00     -179.985       14.485      -12.082       69.398       38.237       24.221     4816.040     1462.069      586.644        1.981        0.343      180.567       29.103        0.026      348.566       28.353      860.130
07/10/2014  22:08:00     -231.551       31.199      -29.112       62.729       72.378       29.437     3934.927     5238.535      866.566        3.274        0.502      233.643       16.611        0.005      348.529       28.287      860.115
07/10/2014  22:09:00     -203.215       58.792      -14.743       85.333       50.541       33.018     7281.802     2554.412     1090.168        2.795        0.546      211.549       36.834        0.030      348.514       28.263      860.112
07/10/2014  22:10:00     -180.602       -0.778       -6.176       93.287       66.035       37.567     8702.392     4360.674     1411.267        2.356        0.724      180.603       43.411        0.058      348.494       28.229      860.122
07/10/2014  22:11:00     -111.281       22.010        0.500       41.613       42.498       23.962     1731.627     1806.063      574.195        0.849        0.206      113.437       17.701        0.024      348.473       28.195      860.144
07/10/2014  22:12:00     -117.678       28.732      -11.639       37.922       39.581       24.024     1438.064     1566.666      577.159        0.919        0.179      121.135       12.724        0.011      348.474       28.197      860.152
07/10/2014  22:13:00     -132.519      -15.798       -8.118       37.096       56.655       26.802     1376.092     3209.755      718.325        1.159        0.265      133.457       20.225        0.023      348.508       28.255      860.148
07/10/2014  22:14:00     -180.227      -47.459       -0.362       75.106       48.186       34.852     5640.872     2321.902     1214.660        2.195        0.459      186.371       34.136        0.034      348.448       28.150      860.155
07/10/2014  22:15:00      -63.063      -68.358       17.511       74.127       54.708       41.563     5494.863     2992.950     1727.493        0.958        0.511       93.005       43.935        0.223      348.396       28.061      860.173
07/10/2014  22:16:00      -76.639      -88.776        3.420       52.783       46.217       33.051     2786.085     2136.052     1092.379        0.989        0.301      117.280       34.072        0.084      348.418       28.101      860.206
07/10/2014  22:17:00      -30.419      -81.459       -1.160       26.358       40.366       18.951      694.728     1629.403      359.155        0.512        0.134       86.953       11.892        0.019      348.419       28.101      860.223
07/10/2014  22:18:00      -25.076      -11.234       11.310       26.959       20.223       19.158      726.813      408.988      367.043        0.119        0.075       27.477       17.841        0.422      348.387       28.045      860.227
07/10/2014  22:19:00      -15.723      -48.478        0.450       42.282       64.875       24.667     1787.777     4208.718      608.466        0.460        0.330       50.964       18.428        0.131      348.373       28.023      860.235
07/10/2014  22:20:00       48.740      -56.096       -0.410       52.013       70.320       44.225     2705.375     4944.957     1955.886        0.756        0.480       74.313       36.341        0.239      348.486       28.218      860.231
07/10/2014  22:21:00       35.128      -54.227       -0.898       55.232       49.120       40.874     3050.598     2412.802     1670.659        0.565        0.357       64.610       24.271        0.141      348.455       28.165      860.238
07/10/2014  22:22:00       34.727      -46.359        2.120       23.873       42.157       29.250      569.901     1777.253      855.566        0.328        0.160       57.923       27.083        0.219      348.383       28.038      860.253
07/10/2014  22:23:00      -13.121      -60.526        1.776       28.800       36.610       19.045      829.431     1340.327      362.714        0.319        0.127       61.932       13.287        0.046      348.314       27.922      860.253
07/10/2014  22:24:00      -19.371      -94.513       -5.115       12.889       17.490       15.896      166.133      305.917      252.687        0.503        0.036       96.477        6.362        0.004      348.338       27.963      860.240
07/10/2014  22:25:00      -13.545      -74.970        0.116       21.439       39.559       17.141      459.613     1564.904      293.823        0.406        0.116       76.184        9.101        0.014      348.359       27.998      860.236
07/10/2014  22:26:00      -33.217      -78.779       -1.984       27.241       31.075       22.784      742.062      965.636      519.128        0.477        0.111       85.496       11.984        0.020      348.597       28.409      860.232
07/10/2014  22:27:00      -21.988      -92.547        1.147       19.623       34.181       15.072      385.054     1168.332      227.155        0.541        0.089       95.124       13.311        0.020      348.468       28.185      860.225
07/10/2014  22:28:00      -11.840      -91.671      -14.884       68.879       40.407       30.058     4744.361     1632.751      903.478        0.802        0.364       92.433       32.943        0.127      348.244       27.799      860.222
07/10/2014  22:29:00      -48.682     -170.207       -6.395       42.792       64.325       34.322     1831.196     4137.735     1178.026        1.926        0.357      177.032       18.482        0.011      348.252       27.809      860.229
07/10/2014  22:30:00      -33.548      -89.748       -7.617       41.387       33.182       21.763     1712.862     1101.044      473.626        0.626        0.164       95.813       15.300        0.025      348.321       27.929      860.236
07/10/2014  22:31:00      -39.209      -49.470       -0.383       29.365       25.765       19.553      862.331      663.846      382.305        0.295        0.095       63.124       13.806        0.048      348.288       27.873      860.238
07/10/2014  22:32:00      -27.598      -79.557        4.317       31.794       32.249       18.535     1010.850     1039.985      343.546        0.475        0.120       84.208       20.266        0.058      348.313       27.917      860.236
07/10/2014  22:33:00      -15.343      -41.561        2.231       32.120       21.264       14.044     1031.726      452.158      197.244        0.182        0.084       44.303        9.068        0.042      348.294       27.885      860.244
07/10/2014  22:34:00        7.144      -86.391        8.957       26.457       26.915       16.254      699.951      724.420      264.205        0.464        0.084       86.686       10.489        0.015      348.271       27.848      860.248
07/10/2014  22:35:00       10.904      -91.627       -1.419       28.715       19.673       18.219      824.562      387.033      331.939        0.503        0.077       92.273       11.125        0.015      348.283       27.865      860.247
07/10/2014  22:36:00      -43.632      -38.992      -11.906       27.984       20.278        8.691      783.101      411.181       75.532        0.242        0.063       58.516        6.709        0.013      348.244       27.800      860.247
07/10/2014  22:37:00      -14.243        2.883        6.392       27.851       25.672       19.753      775.677      659.063      390.178        0.104        0.091       14.532       19.086        1.725      348.225       27.768      860.251
07/10/2014  22:38:00      -10.161      -68.291       -1.404       29.319       33.355       23.666      859.606     1112.588      560.080        0.365        0.127       69.043       15.216        0.049      348.078       27.511      860.255
07/10/2014  22:39:00      -25.218      -20.787       16.970       27.095       31.461       17.937      734.139      989.784      321.751        0.170        0.102       32.681       17.333        0.281      348.136       27.613      860.249
07/10/2014  22:40:00       -6.358      -59.734        4.516       26.069       29.842       16.140      679.572      890.542      260.501        0.273        0.092       60.072       13.129        0.048      348.161       27.656      860.250
07/10/2014  22:41:00      -36.553      -63.728       -9.748       27.025       31.488       22.065      730.332      991.489      486.850        0.385        0.110       73.467       18.371        0.063      348.121       27.586      860.249
07/10/2014  22:42:00      -32.071      -79.344       -2.333       27.980       36.952       22.027      782.858     1365.448      485.184        0.498        0.132       85.581       17.847        0.043      348.078       27.512      860.255
07/10/2014  22:43:00      -61.130      -33.513        4.191       53.504       27.620       21.931     2862.709      762.861      480.985        0.449        0.205       69.714       22.664        0.106      348.122       27.586      860.273
07/10/2014  22:44:00     -106.596      -57.545       -0.233       82.348       39.607       32.382     6781.212     1568.696     1048.575        1.203        0.470      121.137       41.595        0.118      348.155       27.644      860.275
07/10/2014  22:45:00      -79.976      -42.703        0.451       46.743       32.121       17.932     2184.898     1031.743      321.564        0.588        0.177       90.663       13.580        0.022      348.153       27.642      860.279
07/10/2014  22:46:00      -65.345      -28.682        2.003       29.985       48.901       21.810      899.075     2391.264      475.690        0.443        0.188       71.363       19.476        0.074      348.179       27.686      860.273
07/10/2014  22:47:00      -76.179      -89.475        8.855       53.706       82.293       29.901     2884.325     6772.197      894.097        1.222        0.528      117.511       18.865        0.026      348.176       27.681      860.273
07/10/2014  22:48:00      -83.780      -49.589        0.616       96.252       40.243       34.649     9264.514     1619.506     1200.551        1.078        0.604       97.356       45.232        0.216      348.193       27.711      860.264
07/10/2014  22:49:00     -124.703      -70.425        5.547       80.172       58.700       31.215     6427.576     3445.642      974.346        1.569        0.542      143.215       37.824        0.070      348.190       27.706      860.262
07/10/2014  22:50:00     -115.227      -57.161        4.251       69.456       40.526       28.495     4824.128     1642.321      811.956        1.192        0.364      128.626       34.213        0.071      348.176       27.680      860.269
07/10/2014  22:51:00     -177.117      -64.495       -8.885       51.485       42.188       32.270     2650.666     1779.822     1041.376        2.054        0.274      188.494       30.610        0.026      348.177       27.681      860.270
07/10/2014  22:52:00      -83.285      -49.494        5.476       61.418       33.981       31.253     3772.208     1154.689      976.775        0.766        0.295       96.881       32.147        0.110      348.106       27.561      860.268
07/10/2014  22:53:00      -90.816      -45.332        3.113       50.340       34.427       20.051     2534.097     1185.232      402.059        0.722        0.206      101.501       22.261        0.048      348.082       27.516      860.268
07/10/2014  22:54:00     -115.312      -59.419        0.064       70.275       52.671       23.647     4938.541     2774.193      559.175        1.255        0.414      129.721       30.062        0.054      348.089       27.531      860.275
07/10/2014  22:55:00     -117.419      -40.691        6.445       47.955       37.931       26.458     2299.688     1438.783      700.005        0.996        0.222      124.270       22.946        0.034      348.064       27.486      860.280
07/10/2014  22:56:00      -91.185      -64.108        3.394       54.169       40.435       25.050     2934.259     1635.020      627.509        0.882        0.260      111.466       27.995        0.063      348.065       27.489      860.291
07/10/2014  22:57:00      -50.128      -38.742       11.992       44.888       39.749       21.081     2014.888     1579.985      444.414        0.410        0.202       63.354       20.636        0.106      348.050       27.462      860.287
07/10/2014  22:58:00     -105.971      -50.358        2.496       51.455       25.784       22.455     2647.591      664.815      504.215        0.879        0.191      117.328       26.733        0.052      348.052       27.466      860.277
07/10/2014  22:59:00     -103.275      -58.499        0.640       43.891       38.418       23.589     1926.395     1475.927      556.458        0.902        0.198      118.693       20.516        0.030      348.087       27.527      860.279
07/10/2014  23:00:00      -47.213      -23.463        6.708       39.610       34.574       21.724     1568.955     1195.393      471.935        0.303        0.162       52.722       21.229        0.162      347.992       27.366      860.289
07/10/2014  23:01:00      -35.964      -30.863        0.857       32.862       17.333       13.484     1079.896      300.426      181.806        0.190        0.078       47.391       13.688        0.083      348.034       27.436      860.295
07/10/2014  23:02:00      -35.669      -55.693        3.316       36.364       30.598       23.951     1322.362      936.210      573.649        0.361        0.142       66.136       24.622        0.139      348.040       27.447      860.299
07/10/2014  23:03:00      -55.458      -49.576       -3.710       30.583       22.328       16.471      935.328      498.545      271.281        0.363        0.085       74.387        7.390        0.010      348.073       27.502      860.305
07/10/2014  23:04:00      -48.122      -17.791       -0.683       37.347       17.521       16.886     1394.792      306.973      285.136        0.231        0.099       51.305       18.104        0.125      347.993       27.366      860.316
07/10/2014  23:05:00      -39.184      -33.851       -0.129       31.648       18.465       12.580     1001.576      340.948      158.247        0.209        0.075       51.781       12.962        0.063      347.933       27.259      860.318
07/10/2014  23:06:00      -25.567      -28.225       -1.228       39.440       23.417       18.241     1555.486      548.337      332.744        0.194        0.122       38.083       15.916        0.175      347.914       27.228      860.311
07/10/2014  23:07:00      -40.178      -54.380        3.123       29.915       22.298       15.289      894.911      497.212      233.766        0.310        0.081       67.612       13.635        0.041      347.997       27.372      860.319
07/10/2014  23:08:00      -71.746      -42.679        5.766       42.323       29.106       20.405     1791.240      847.153      416.361        0.503        0.153       83.481       22.094        0.070      347.965       27.317      860.309
07/10/2014  23:09:00      -29.133      -45.236       12.102       45.382       28.714       20.962     2059.516      824.497      439.426        0.318        0.166       53.806       23.448        0.190      347.954       27.299      860.297
07/10/2014  23:10:00      -75.758      -74.146        4.795       52.939       36.118       28.003     2802.555     1304.539      784.195        0.807        0.245      106.004       25.572        0.058      347.940       27.272      860.290
07/10/2014  23:11:00      -55.801      -88.157        5.624       49.626       49.276       31.614     2462.707     2428.162      999.444        0.840        0.295      104.333       32.706        0.098      347.986       27.352      860.274
07/10/2014  23:12:00      -45.168     -116.757        3.935       30.035       25.190       22.267      902.076      634.554      495.802        0.886        0.102      125.189       15.862        0.016      347.954       27.298      860.258
07/10/2014  23:13:00      -63.875     -102.453       -9.017       30.057       34.375       17.742      903.435     1181.654      314.770        0.853        0.120      120.734       14.891        0.015      347.991       27.361      860.256
07/10/2014  23:14:00      -46.058      -78.047        5.835       37.033       29.849       18.617     1371.459      890.963      346.598        0.543        0.130       90.624       11.829        0.017      348.004       27.385      860.239
07/10/2014  23:15:00      -29.378      -51.116       10.190       26.519       28.331       19.354      703.281      802.621      374.597        0.273        0.094       58.957       19.188        0.106      347.962       27.310      860.234
07/10/2014  23:16:00      -61.381      -32.226        6.104       36.657       25.671       20.537     1343.723      658.997      421.784        0.363        0.121       69.326       20.622        0.088      347.964       27.313      860.241
07/10/2014  23:17:00      -92.865      -51.206       -2.872       37.344       26.047       20.902     1394.564      678.447      436.877        0.688        0.125      106.047       21.079        0.040      347.943       27.278      860.231
07/10/2014  23:18:00      -51.875       -1.224        4.232       46.894       17.828       20.536     2199.008      317.848      421.714        0.282        0.147       51.889       20.938        0.163      347.962       27.309      860.226
07/10/2014  23:19:00      -89.569       10.557       -5.902       26.393       24.180       15.343      696.577      584.659      235.401        0.484        0.076       90.189       11.630        0.017      347.841       27.103      860.233
07/10/2014  23:20:00      -98.172       21.788       -2.147       20.663       18.681       13.162      426.970      348.994      173.232        0.553        0.047      100.560        9.881        0.010      347.905       27.212      860.225
07/10/2014  23:21:00     -130.170       29.238       -9.431       21.713       22.482       12.422      471.467      505.462      154.310        0.951        0.057      133.413       10.084        0.006      347.891       27.188      860.219
07/10/2014  23:22:00      -78.737       55.525       -9.185       39.076       24.748       16.533     1526.968      612.468      273.331        0.589        0.121       96.346       11.060        0.013      347.905       27.212      860.226
07/10/2014  23:23:00      -93.189       19.145       -5.183       33.393       29.873       20.134     1115.066      892.407      405.395        0.574        0.121       95.135       15.119        0.025      347.898       27.201      860.224
07/10/2014  23:24:00      -97.041       26.437       -4.709       28.128       25.889       18.101      791.209      670.242      327.649        0.596        0.089      100.577       16.998        0.029      347.960       27.305      860.216
07/10/2014  23:25:00      -88.289       -8.200       -9.808       38.419       44.922       20.211     1476.045     2017.961      408.482        0.593        0.195       88.669       21.369        0.058      347.901       27.208      860.199
07/10/2014  23:26:00     -100.286       -4.590      -13.964       31.686       46.640       28.576     1004.032     2175.288      816.591        0.713        0.200      100.391       25.855        0.066      347.859       27.133      860.201
07/10/2014  23:27:00     -116.029      -15.099       -8.444       47.156       50.564       22.888     2223.717     2556.758      523.878        0.953        0.265      117.008       24.522        0.044      347.801       27.034      860.205
07/10/2014  23:28:00      -78.318      -13.026       -9.766       33.465       27.367       23.074     1119.913      748.931      532.398        0.440        0.120       79.394       20.576        0.067      347.771       26.982      860.197
07/10/2014  23:29:00     -101.150        2.774      -15.369       34.968       54.241       22.547     1222.780     2942.104      508.373        0.757        0.234      101.189       13.918        0.019      347.789       27.013      860.192
07/10/2014  23:30:00      -80.608      -27.141       -6.952       22.942       46.729       19.697      526.332     2183.563      387.972        0.519        0.155       85.054        8.998        0.011      347.919       27.236      860.192
07/10/2014  23:31:00        1.942       -1.912       -0.335       30.499       24.685       18.478      930.174      609.330      341.449        0.094        0.094        2.725       11.471       17.717      347.904       27.212      860.203
07/10/2014  23:32:00      -60.291       70.582      -17.815       44.999       56.625       23.232     2024.927     3206.368      539.710        0.735        0.289       92.827       21.325        0.053      347.947       27.286      860.212
07/10/2014  23:33:00       13.419       -8.946       19.028       23.886       59.644       19.191      570.535     3557.396      368.286        0.256        0.225       16.128       21.165        1.722      347.781       26.998      860.216
07/10/2014  23:34:00      -19.162     -112.510        5.463       30.310       26.628       13.472      918.667      709.066      181.491        0.743        0.090      114.130       16.860        0.022      347.914       27.225      860.223
07/10/2014  23:35:00      -12.906     -113.683      -11.543       45.098       33.164       28.904     2033.798     1099.851      835.453        0.860        0.198      114.413       26.727        0.055      347.756       26.956      860.221
07/10/2014  23:36:00      -22.983     -141.531       -4.062       54.252       57.852       29.399     2943.309     3346.908      864.300        1.386        0.358      143.385       26.061        0.033      347.789       27.012      860.215
07/10/2014  23:37:00      -52.977      -55.504        2.860       66.823       52.645       34.120     4465.360     2771.532     1164.154        0.715        0.420       76.729       33.833        0.194      347.747       26.941      860.196
07/10/2014  23:38:00      -49.512      -84.855        2.649       51.299       36.327       24.449     2631.638     1319.647      597.733        0.710        0.227       98.244       16.443        0.028      347.707       26.872      860.191
07/10/2014  23:39:00      -80.341     -175.916      -12.032       45.007       59.504       32.346     2025.601     3540.674     1046.290        2.208        0.331      193.394       14.538        0.006      347.742       26.929      860.191
07/10/2014  23:40:00      -61.215      -86.227      -14.306       46.023       44.977       32.522     2118.147     2022.906     1057.670        0.829        0.260      105.747       26.449        0.063      347.745       26.934      860.178
07/10/2014  23:41:00      -66.684     -105.988       -2.281       36.311       46.529       24.511     1318.517     2164.927      600.790        0.988        0.204      125.220       16.823        0.018      347.800       27.032      860.154
07/10/2014  23:42:00      -70.961     -100.880       -3.783       51.455       39.387       21.955     2647.633     1551.360      482.002        0.995        0.234      123.338       20.804        0.028      347.769       26.978      860.136
07/10/2014  23:43:00     -100.433      -98.544        4.073       66.766       55.111       34.012     4457.678     3037.265     1156.838        1.423        0.433      140.705       35.718        0.064      347.815       27.054      860.125
07/10/2014  23:44:00      -40.793     -147.230       -7.968       46.032       43.792       28.011     2118.903     1917.733      784.639        1.411        0.241      152.777       25.597        0.028      347.793       27.021      860.108
07/10/2014  23:45:00      -70.308      -91.243       -0.300       54.839       34.288       26.998     3007.334     1175.667      728.915        0.909        0.246      115.189       23.879        0.043      347.731       26.913      860.087
07/10/2014  23:46:00     -129.812     -117.252       -4.382       55.455       52.092       35.826     3075.298     2713.551     1283.533        1.884        0.354      174.926       24.343        0.019      347.739       26.925      860.071
07/10/2014  23:47:00      -96.484      -62.582       -4.012       52.616       40.727       24.725     2768.393     1658.702      611.307        0.914        0.252      115.003       21.683        0.036      347.721       26.894      860.055
07/10/2014  23:48:00      -51.278      -45.388        4.469       46.216       27.697       17.752     2135.958      767.099      315.120        0.396        0.161       68.480       12.249        0.032      347.759       26.962      860.036
07/10/2014  23:49:00      -53.432     -118.853       -0.740       36.679       24.769       23.074     1345.385      613.505      532.424        0.974        0.125      130.311       19.784        0.023      347.855       27.128      860.025
07/10/2014  23:50:00      -65.696     -150.737       -0.131       47.008       48.873       24.835     2209.755     2388.576      616.756        1.613        0.261      164.431       19.475        0.014      347.769       26.977      860.014
07/10/2014  23:51:00      -55.154     -134.121       -0.028       35.769       40.693       20.583     1279.397     1655.936      423.679        1.219        0.168      145.019       15.434        0.011      347.748       26.941      860.007
07/10/2014  23:52:00      -93.455      -86.255       -6.601       53.936       45.249       27.187     2909.074     2047.444      739.145        1.096        0.285      127.177       25.279        0.040      347.797       27.025      859.999
07/10/2014  23:53:00     -114.146      -78.248        4.880       83.170       33.201       30.254     6917.315     1102.319      915.318        1.405        0.447      138.391       29.578        0.046      347.787       27.009      860.011
07/10/2014  23:54:00     -100.802     -116.155       -0.540       73.201       45.669       29.690     5358.406     2085.684      881.489        1.599        0.416      153.796       24.590        0.026      347.795       27.023      860.025
07/10/2014  23:55:00     -119.183     -103.007       -0.116       65.731       66.430       35.101     4320.583     4412.958     1232.079        1.739        0.498      157.528       31.956        0.041      347.750       26.944      860.031
07/10/2014  23:56:00     -128.867      -79.080        0.747       84.317       67.878       42.157     7109.411     4607.372     1777.179        1.817        0.675      151.197       46.586        0.095      347.694       26.848      860.021
07/10/2014  23:57:00     -169.701     -105.068       -3.071       71.978       65.241       47.817     5180.889     4256.440     2286.493        2.578        0.586      199.594       35.680        0.032      347.699       26.854      860.026
07/10/2014  23:58:00     -206.210     -111.026       -6.631       79.371       56.571       34.496     6299.732     3200.287     1189.972        3.279        0.534      234.199       26.971        0.013      347.679       26.819      860.023
07/10/2014  23:59:00     -189.716     -121.683        0.352      110.807       77.604       47.280    12278.295     6022.430     2235.435        3.566        1.027      225.386       58.607        0.068      347.673       26.808      860.029
